<?xml version="1.0" encoding="UTF-8" standalone="no" ?>
<gpx xmlns="http://www.topografix.com/GPX/1/1" xmlns:xsi="http://www.w3.org/2001/XMLSchema-instance" xsi:schemaLocation="http://www.topografix.com/GPX/1/1 http://www.topografix.com/GPX/1/1/gpx.xsd" version="1.1" creator="VisuGPX - https://www.visugpx.com">
  <metadata>
    <name>Marche ACC du 14/12/2021</name>
    <desc><![CDATA[Circuit au départ du château de l'Hôpitau, rond point de la rivière, promenade des renards, Champ de course du petit Port, Vallée du Cens, les bords du ruisseau de La Patouillerie, Le parc de la Gaudinière, château de la Gaudinière, les bords du Cens, Le Petit Port, les bords de l'Erdre, Port Barbe et retour château de l'Hôpitau.]]></desc>
  </metadata>
  <trk>
    <name><![CDATA[20211214_082456.gpx]]></name>
    <trkseg>
      <trkpt lat="47.27011" lon="-1.55225">
        <ele>78.304985</ele>
        <time>2021-12-14T07:24:58Z</time>
      </trkpt>
      <trkpt lat="47.27012" lon="-1.55226">
        <ele>77.78802</ele>
        <time>2021-12-14T07:24:59Z</time>
      </trkpt>
      <trkpt lat="47.27011" lon="-1.55226">
        <ele>75.96422</ele>
        <time>2021-12-14T07:25:09Z</time>
      </trkpt>
      <trkpt lat="47.27011" lon="-1.55226">
        <ele>75.96422</ele>
        <time>2021-12-14T07:25:09Z</time>
      </trkpt>
      <trkpt lat="47.27006" lon="-1.55223">
        <ele>76.50663</ele>
        <time>2021-12-14T07:25:47Z</time>
      </trkpt>
      <trkpt lat="47.27002" lon="-1.55221">
        <ele>76.57409</ele>
        <time>2021-12-14T07:25:50Z</time>
      </trkpt>
      <trkpt lat="47.27" lon="-1.55227">
        <ele>76.60034</ele>
        <time>2021-12-14T07:25:57Z</time>
      </trkpt>
      <trkpt lat="47.27" lon="-1.55228">
        <ele>76.52133</ele>
        <time>2021-12-14T07:26:02Z</time>
      </trkpt>
      <trkpt lat="47.27" lon="-1.55228">
        <ele>76.52133</ele>
        <time>2021-12-14T07:26:02Z</time>
      </trkpt>
      <trkpt lat="47.26993" lon="-1.55225">
        <ele>75.92012</ele>
        <time>2021-12-14T07:26:21Z</time>
      </trkpt>
      <trkpt lat="47.26993" lon="-1.55225">
        <ele>75.8072</ele>
        <time>2021-12-14T07:26:24Z</time>
      </trkpt>
      <trkpt lat="47.26993" lon="-1.55225">
        <ele>75.8072</ele>
        <time>2021-12-14T07:26:24Z</time>
      </trkpt>
      <trkpt lat="47.26971" lon="-1.55224">
        <ele>70.91876</ele>
        <time>2021-12-14T07:32:52Z</time>
      </trkpt>
      <trkpt lat="47.26966" lon="-1.55225">
        <ele>71.44263</ele>
        <time>2021-12-14T07:32:57Z</time>
      </trkpt>
      <trkpt lat="47.26961" lon="-1.55226">
        <ele>71.85481</ele>
        <time>2021-12-14T07:33:01Z</time>
      </trkpt>
      <trkpt lat="47.26957" lon="-1.55229">
        <ele>72.055176</ele>
        <time>2021-12-14T07:33:06Z</time>
      </trkpt>
      <trkpt lat="47.26952" lon="-1.55233">
        <ele>71.9131</ele>
        <time>2021-12-14T07:33:12Z</time>
      </trkpt>
      <trkpt lat="47.26947" lon="-1.55237">
        <ele>71.5232</ele>
        <time>2021-12-14T07:33:17Z</time>
      </trkpt>
      <trkpt lat="47.26943" lon="-1.5524">
        <ele>71.1876</ele>
        <time>2021-12-14T07:33:22Z</time>
      </trkpt>
      <trkpt lat="47.26938" lon="-1.5524">
        <ele>70.99131</ele>
        <time>2021-12-14T07:33:26Z</time>
      </trkpt>
      <trkpt lat="47.26933" lon="-1.55242">
        <ele>70.785194</ele>
        <time>2021-12-14T07:33:30Z</time>
      </trkpt>
      <trkpt lat="47.26928" lon="-1.55244">
        <ele>70.61231</ele>
        <time>2021-12-14T07:33:33Z</time>
      </trkpt>
      <trkpt lat="47.26924" lon="-1.55246">
        <ele>70.510826</ele>
        <time>2021-12-14T07:33:37Z</time>
      </trkpt>
      <trkpt lat="47.26918" lon="-1.55248">
        <ele>70.36314</ele>
        <time>2021-12-14T07:33:41Z</time>
      </trkpt>
      <trkpt lat="47.26913" lon="-1.55251">
        <ele>70.28311</ele>
        <time>2021-12-14T07:33:45Z</time>
      </trkpt>
      <trkpt lat="47.26909" lon="-1.55255">
        <ele>70.382385</ele>
        <time>2021-12-14T07:33:50Z</time>
      </trkpt>
      <trkpt lat="47.26904" lon="-1.55258">
        <ele>70.53373</ele>
        <time>2021-12-14T07:33:53Z</time>
      </trkpt>
      <trkpt lat="47.269" lon="-1.55261">
        <ele>70.5878</ele>
        <time>2021-12-14T07:33:58Z</time>
      </trkpt>
      <trkpt lat="47.26895" lon="-1.55263">
        <ele>70.42252</ele>
        <time>2021-12-14T07:34:02Z</time>
      </trkpt>
      <trkpt lat="47.2689" lon="-1.55264">
        <ele>70.20855</ele>
        <time>2021-12-14T07:34:05Z</time>
      </trkpt>
      <trkpt lat="47.26886" lon="-1.55266">
        <ele>70.08544</ele>
        <time>2021-12-14T07:34:08Z</time>
      </trkpt>
      <trkpt lat="47.26881" lon="-1.55269">
        <ele>69.87671</ele>
        <time>2021-12-14T07:34:12Z</time>
      </trkpt>
      <trkpt lat="47.26876" lon="-1.55273">
        <ele>69.6047</ele>
        <time>2021-12-14T07:34:16Z</time>
      </trkpt>
      <trkpt lat="47.26871" lon="-1.55275">
        <ele>69.43534</ele>
        <time>2021-12-14T07:34:20Z</time>
      </trkpt>
      <trkpt lat="47.26865" lon="-1.55277">
        <ele>69.37536</ele>
        <time>2021-12-14T07:34:24Z</time>
      </trkpt>
      <trkpt lat="47.26861" lon="-1.55281">
        <ele>69.4232</ele>
        <time>2021-12-14T07:34:27Z</time>
      </trkpt>
      <trkpt lat="47.26856" lon="-1.55281">
        <ele>69.57121</ele>
        <time>2021-12-14T07:34:31Z</time>
      </trkpt>
      <trkpt lat="47.2685" lon="-1.55281">
        <ele>69.68972</ele>
        <time>2021-12-14T07:34:35Z</time>
      </trkpt>
      <trkpt lat="47.26845" lon="-1.55282">
        <ele>69.73867</ele>
        <time>2021-12-14T07:34:39Z</time>
      </trkpt>
      <trkpt lat="47.2684" lon="-1.55283">
        <ele>69.79153</ele>
        <time>2021-12-14T07:34:43Z</time>
      </trkpt>
      <trkpt lat="47.26835" lon="-1.55287">
        <ele>69.82969</ele>
        <time>2021-12-14T07:34:47Z</time>
      </trkpt>
      <trkpt lat="47.2683" lon="-1.55291">
        <ele>69.914955</ele>
        <time>2021-12-14T07:34:50Z</time>
      </trkpt>
      <trkpt lat="47.26825" lon="-1.55294">
        <ele>70.046074</ele>
        <time>2021-12-14T07:34:54Z</time>
      </trkpt>
      <trkpt lat="47.26821" lon="-1.55297">
        <ele>70.22163</ele>
        <time>2021-12-14T07:34:57Z</time>
      </trkpt>
      <trkpt lat="47.26816" lon="-1.553">
        <ele>70.48358</ele>
        <time>2021-12-14T07:35:00Z</time>
      </trkpt>
      <trkpt lat="47.26812" lon="-1.55304">
        <ele>70.77238</ele>
        <time>2021-12-14T07:35:03Z</time>
      </trkpt>
      <trkpt lat="47.26808" lon="-1.55307">
        <ele>71.02142</ele>
        <time>2021-12-14T07:35:06Z</time>
      </trkpt>
      <trkpt lat="47.26803" lon="-1.5531">
        <ele>71.22045</ele>
        <time>2021-12-14T07:35:09Z</time>
      </trkpt>
      <trkpt lat="47.26799" lon="-1.55312">
        <ele>71.458534</ele>
        <time>2021-12-14T07:35:13Z</time>
      </trkpt>
      <trkpt lat="47.26794" lon="-1.55316">
        <ele>71.59062</ele>
        <time>2021-12-14T07:35:17Z</time>
      </trkpt>
      <trkpt lat="47.26791" lon="-1.55322">
        <ele>71.65378</ele>
        <time>2021-12-14T07:35:21Z</time>
      </trkpt>
      <trkpt lat="47.26788" lon="-1.55327">
        <ele>71.643524</ele>
        <time>2021-12-14T07:35:25Z</time>
      </trkpt>
      <trkpt lat="47.26784" lon="-1.55333">
        <ele>71.60748</ele>
        <time>2021-12-14T07:35:29Z</time>
      </trkpt>
      <trkpt lat="47.26781" lon="-1.5534">
        <ele>71.573814</ele>
        <time>2021-12-14T07:35:34Z</time>
      </trkpt>
      <trkpt lat="47.26776" lon="-1.55341">
        <ele>71.44753</ele>
        <time>2021-12-14T07:35:38Z</time>
      </trkpt>
      <trkpt lat="47.26772" lon="-1.55338">
        <ele>71.27953</ele>
        <time>2021-12-14T07:35:42Z</time>
      </trkpt>
      <trkpt lat="47.26768" lon="-1.55333">
        <ele>71.11061</ele>
        <time>2021-12-14T07:35:47Z</time>
      </trkpt>
      <trkpt lat="47.26764" lon="-1.55328">
        <ele>70.92377</ele>
        <time>2021-12-14T07:35:51Z</time>
      </trkpt>
      <trkpt lat="47.26759" lon="-1.55326">
        <ele>70.67885</ele>
        <time>2021-12-14T07:35:55Z</time>
      </trkpt>
      <trkpt lat="47.26754" lon="-1.55323">
        <ele>70.182175</ele>
        <time>2021-12-14T07:35:59Z</time>
      </trkpt>
      <trkpt lat="47.2675" lon="-1.55318">
        <ele>69.529274</ele>
        <time>2021-12-14T07:36:03Z</time>
      </trkpt>
      <trkpt lat="47.26745" lon="-1.55316">
        <ele>68.86451</ele>
        <time>2021-12-14T07:36:07Z</time>
      </trkpt>
      <trkpt lat="47.2674" lon="-1.55314">
        <ele>68.36819</ele>
        <time>2021-12-14T07:36:10Z</time>
      </trkpt>
      <trkpt lat="47.26734" lon="-1.55312">
        <ele>67.83353</ele>
        <time>2021-12-14T07:36:14Z</time>
      </trkpt>
      <trkpt lat="47.26728" lon="-1.55312">
        <ele>67.40247</ele>
        <time>2021-12-14T07:36:18Z</time>
      </trkpt>
      <trkpt lat="47.26723" lon="-1.5531">
        <ele>67.01944</ele>
        <time>2021-12-14T07:36:22Z</time>
      </trkpt>
      <trkpt lat="47.26718" lon="-1.55308">
        <ele>66.200714</ele>
        <time>2021-12-14T07:36:28Z</time>
      </trkpt>
      <trkpt lat="47.26712" lon="-1.55307">
        <ele>65.759384</ele>
        <time>2021-12-14T07:36:32Z</time>
      </trkpt>
      <trkpt lat="47.26708" lon="-1.55304">
        <ele>65.54259</ele>
        <time>2021-12-14T07:36:35Z</time>
      </trkpt>
      <trkpt lat="47.26702" lon="-1.55303">
        <ele>65.42702</ele>
        <time>2021-12-14T07:36:39Z</time>
      </trkpt>
      <trkpt lat="47.26697" lon="-1.55304">
        <ele>65.44574</ele>
        <time>2021-12-14T07:36:44Z</time>
      </trkpt>
      <trkpt lat="47.26692" lon="-1.55302">
        <ele>65.50681</ele>
        <time>2021-12-14T07:36:48Z</time>
      </trkpt>
      <trkpt lat="47.26687" lon="-1.55299">
        <ele>65.61873</ele>
        <time>2021-12-14T07:36:52Z</time>
      </trkpt>
      <trkpt lat="47.26682" lon="-1.55294">
        <ele>65.745636</ele>
        <time>2021-12-14T07:36:57Z</time>
      </trkpt>
      <trkpt lat="47.26677" lon="-1.55291">
        <ele>65.80068</ele>
        <time>2021-12-14T07:37:03Z</time>
      </trkpt>
      <trkpt lat="47.26673" lon="-1.55288">
        <ele>65.82888</ele>
        <time>2021-12-14T07:37:06Z</time>
      </trkpt>
      <trkpt lat="47.26668" lon="-1.55285">
        <ele>65.89958</ele>
        <time>2021-12-14T07:37:10Z</time>
      </trkpt>
      <trkpt lat="47.26664" lon="-1.55282">
        <ele>65.964455</ele>
        <time>2021-12-14T07:37:13Z</time>
      </trkpt>
      <trkpt lat="47.26659" lon="-1.55279">
        <ele>66.033295</ele>
        <time>2021-12-14T07:37:15Z</time>
      </trkpt>
      <trkpt lat="47.26654" lon="-1.55277">
        <ele>66.16168</ele>
        <time>2021-12-14T07:37:17Z</time>
      </trkpt>
      <trkpt lat="47.26649" lon="-1.55274">
        <ele>66.450226</ele>
        <time>2021-12-14T07:37:20Z</time>
      </trkpt>
      <trkpt lat="47.26646" lon="-1.55268">
        <ele>66.748245</ele>
        <time>2021-12-14T07:37:24Z</time>
      </trkpt>
      <trkpt lat="47.26642" lon="-1.55266">
        <ele>66.89512</ele>
        <time>2021-12-14T07:37:27Z</time>
      </trkpt>
      <trkpt lat="47.26638" lon="-1.55263">
        <ele>67.04838</ele>
        <time>2021-12-14T07:37:30Z</time>
      </trkpt>
      <trkpt lat="47.26632" lon="-1.55259">
        <ele>67.34062</ele>
        <time>2021-12-14T07:37:34Z</time>
      </trkpt>
      <trkpt lat="47.26627" lon="-1.55256">
        <ele>67.55258</ele>
        <time>2021-12-14T07:37:38Z</time>
      </trkpt>
      <trkpt lat="47.26622" lon="-1.55252">
        <ele>67.70575</ele>
        <time>2021-12-14T07:37:42Z</time>
      </trkpt>
      <trkpt lat="47.26618" lon="-1.55249">
        <ele>67.84188</ele>
        <time>2021-12-14T07:37:46Z</time>
      </trkpt>
      <trkpt lat="47.26614" lon="-1.55245">
        <ele>67.96552</ele>
        <time>2021-12-14T07:37:50Z</time>
      </trkpt>
      <trkpt lat="47.26609" lon="-1.55244">
        <ele>68.178535</ele>
        <time>2021-12-14T07:37:53Z</time>
      </trkpt>
      <trkpt lat="47.26604" lon="-1.5524">
        <ele>68.48083</ele>
        <time>2021-12-14T07:37:57Z</time>
      </trkpt>
      <trkpt lat="47.26601" lon="-1.55238">
        <ele>68.82375</ele>
        <time>2021-12-14T07:38:04Z</time>
      </trkpt>
      <trkpt lat="47.26601" lon="-1.55238">
        <ele>68.82375</ele>
        <time>2021-12-14T07:38:04Z</time>
      </trkpt>
      <trkpt lat="47.26597" lon="-1.55236">
        <ele>68.867775</ele>
        <time>2021-12-14T07:38:11Z</time>
      </trkpt>
      <trkpt lat="47.26591" lon="-1.55233">
        <ele>68.81088</ele>
        <time>2021-12-14T07:38:15Z</time>
      </trkpt>
      <trkpt lat="47.26587" lon="-1.55231">
        <ele>68.72633</ele>
        <time>2021-12-14T07:38:18Z</time>
      </trkpt>
      <trkpt lat="47.26582" lon="-1.55229">
        <ele>68.639145</ele>
        <time>2021-12-14T07:38:21Z</time>
      </trkpt>
      <trkpt lat="47.26577" lon="-1.55228">
        <ele>68.56572</ele>
        <time>2021-12-14T07:38:25Z</time>
      </trkpt>
      <trkpt lat="47.26573" lon="-1.55232">
        <ele>68.371796</ele>
        <time>2021-12-14T07:38:32Z</time>
      </trkpt>
      <trkpt lat="47.26571" lon="-1.55237">
        <ele>68.300095</ele>
        <time>2021-12-14T07:38:35Z</time>
      </trkpt>
      <trkpt lat="47.26567" lon="-1.55243">
        <ele>68.26948</ele>
        <time>2021-12-14T07:38:39Z</time>
      </trkpt>
      <trkpt lat="47.26563" lon="-1.55249">
        <ele>68.2643</ele>
        <time>2021-12-14T07:38:44Z</time>
      </trkpt>
      <trkpt lat="47.26562" lon="-1.55257">
        <ele>68.28257</ele>
        <time>2021-12-14T07:38:48Z</time>
      </trkpt>
      <trkpt lat="47.26559" lon="-1.55263">
        <ele>68.25516</ele>
        <time>2021-12-14T07:38:51Z</time>
      </trkpt>
      <trkpt lat="47.26556" lon="-1.55268">
        <ele>68.16823</ele>
        <time>2021-12-14T07:38:54Z</time>
      </trkpt>
      <trkpt lat="47.26553" lon="-1.55274">
        <ele>67.93244</ele>
        <time>2021-12-14T07:38:57Z</time>
      </trkpt>
      <trkpt lat="47.26551" lon="-1.5528">
        <ele>67.67283</ele>
        <time>2021-12-14T07:39:00Z</time>
      </trkpt>
      <trkpt lat="47.26548" lon="-1.55285">
        <ele>67.31962</ele>
        <time>2021-12-14T07:39:04Z</time>
      </trkpt>
      <trkpt lat="47.26545" lon="-1.55293">
        <ele>67.124115</ele>
        <time>2021-12-14T07:39:07Z</time>
      </trkpt>
      <trkpt lat="47.26543" lon="-1.55301">
        <ele>67.00015</ele>
        <time>2021-12-14T07:39:10Z</time>
      </trkpt>
      <trkpt lat="47.26541" lon="-1.55308">
        <ele>66.997505</ele>
        <time>2021-12-14T07:39:13Z</time>
      </trkpt>
      <trkpt lat="47.26538" lon="-1.55314">
        <ele>67.11159</ele>
        <time>2021-12-14T07:39:16Z</time>
      </trkpt>
      <trkpt lat="47.26534" lon="-1.55318">
        <ele>67.179</ele>
        <time>2021-12-14T07:39:19Z</time>
      </trkpt>
      <trkpt lat="47.26529" lon="-1.55322">
        <ele>67.22721</ele>
        <time>2021-12-14T07:39:23Z</time>
      </trkpt>
      <trkpt lat="47.26525" lon="-1.55323">
        <ele>67.252556</ele>
        <time>2021-12-14T07:39:26Z</time>
      </trkpt>
      <trkpt lat="47.2652" lon="-1.55322">
        <ele>67.21057</ele>
        <time>2021-12-14T07:39:31Z</time>
      </trkpt>
      <trkpt lat="47.26515" lon="-1.5532">
        <ele>66.9887</ele>
        <time>2021-12-14T07:39:36Z</time>
      </trkpt>
      <trkpt lat="47.26511" lon="-1.55322">
        <ele>67.01118</ele>
        <time>2021-12-14T07:39:38Z</time>
      </trkpt>
      <trkpt lat="47.26506" lon="-1.55322">
        <ele>67.106995</ele>
        <time>2021-12-14T07:39:40Z</time>
      </trkpt>
      <trkpt lat="47.26501" lon="-1.55321">
        <ele>67.26686</ele>
        <time>2021-12-14T07:39:43Z</time>
      </trkpt>
      <trkpt lat="47.26496" lon="-1.55316">
        <ele>67.427124</ele>
        <time>2021-12-14T07:39:47Z</time>
      </trkpt>
      <trkpt lat="47.26493" lon="-1.55311">
        <ele>67.72502</ele>
        <time>2021-12-14T07:39:51Z</time>
      </trkpt>
      <trkpt lat="47.26488" lon="-1.55306">
        <ele>68.1802</ele>
        <time>2021-12-14T07:39:55Z</time>
      </trkpt>
      <trkpt lat="47.26483" lon="-1.55304">
        <ele>68.39884</ele>
        <time>2021-12-14T07:39:59Z</time>
      </trkpt>
      <trkpt lat="47.26477" lon="-1.55302">
        <ele>68.62288</ele>
        <time>2021-12-14T07:40:03Z</time>
      </trkpt>
      <trkpt lat="47.26473" lon="-1.55301">
        <ele>68.84514</ele>
        <time>2021-12-14T07:40:07Z</time>
      </trkpt>
      <trkpt lat="47.26469" lon="-1.55297">
        <ele>69.18293</ele>
        <time>2021-12-14T07:40:10Z</time>
      </trkpt>
      <trkpt lat="47.26466" lon="-1.5529">
        <ele>70.133804</ele>
        <time>2021-12-14T07:40:15Z</time>
      </trkpt>
      <trkpt lat="47.26461" lon="-1.55286">
        <ele>70.89133</ele>
        <time>2021-12-14T07:40:19Z</time>
      </trkpt>
      <trkpt lat="47.26457" lon="-1.55283">
        <ele>71.58592</ele>
        <time>2021-12-14T07:40:22Z</time>
      </trkpt>
      <trkpt lat="47.26452" lon="-1.55277">
        <ele>72.80328</ele>
        <time>2021-12-14T07:40:25Z</time>
      </trkpt>
      <trkpt lat="47.26448" lon="-1.55272">
        <ele>73.67275</ele>
        <time>2021-12-14T07:40:27Z</time>
      </trkpt>
      <trkpt lat="47.26444" lon="-1.55266">
        <ele>74.58433</ele>
        <time>2021-12-14T07:40:29Z</time>
      </trkpt>
      <trkpt lat="47.26438" lon="-1.55264">
        <ele>75.87397</ele>
        <time>2021-12-14T07:40:32Z</time>
      </trkpt>
      <trkpt lat="47.26432" lon="-1.55263">
        <ele>76.78058</ele>
        <time>2021-12-14T07:40:35Z</time>
      </trkpt>
      <trkpt lat="47.26428" lon="-1.5526">
        <ele>77.7899</ele>
        <time>2021-12-14T07:40:40Z</time>
      </trkpt>
      <trkpt lat="47.26424" lon="-1.55258">
        <ele>78.3203</ele>
        <time>2021-12-14T07:40:46Z</time>
      </trkpt>
      <trkpt lat="47.26423" lon="-1.55257">
        <ele>78.30387</ele>
        <time>2021-12-14T07:40:47Z</time>
      </trkpt>
      <trkpt lat="47.26419" lon="-1.55253">
        <ele>78.03601</ele>
        <time>2021-12-14T07:40:53Z</time>
      </trkpt>
      <trkpt lat="47.26415" lon="-1.55248">
        <ele>77.61154</ele>
        <time>2021-12-14T07:40:59Z</time>
      </trkpt>
      <trkpt lat="47.26411" lon="-1.55243">
        <ele>77.273346</ele>
        <time>2021-12-14T07:41:03Z</time>
      </trkpt>
      <trkpt lat="47.26407" lon="-1.5524">
        <ele>76.98652</ele>
        <time>2021-12-14T07:41:06Z</time>
      </trkpt>
      <trkpt lat="47.26403" lon="-1.55236">
        <ele>76.628105</ele>
        <time>2021-12-14T07:41:09Z</time>
      </trkpt>
      <trkpt lat="47.26398" lon="-1.55232">
        <ele>76.103096</ele>
        <time>2021-12-14T07:41:13Z</time>
      </trkpt>
      <trkpt lat="47.26393" lon="-1.55228">
        <ele>75.56954</ele>
        <time>2021-12-14T07:41:17Z</time>
      </trkpt>
      <trkpt lat="47.26389" lon="-1.55226">
        <ele>75.22925</ele>
        <time>2021-12-14T07:41:20Z</time>
      </trkpt>
      <trkpt lat="47.26384" lon="-1.55223">
        <ele>74.75114</ele>
        <time>2021-12-14T07:41:25Z</time>
      </trkpt>
      <trkpt lat="47.2638" lon="-1.55219">
        <ele>74.088394</ele>
        <time>2021-12-14T07:41:31Z</time>
      </trkpt>
      <trkpt lat="47.26376" lon="-1.55216">
        <ele>73.56161</ele>
        <time>2021-12-14T07:41:36Z</time>
      </trkpt>
      <trkpt lat="47.26372" lon="-1.55213">
        <ele>73.18562</ele>
        <time>2021-12-14T07:41:40Z</time>
      </trkpt>
      <trkpt lat="47.26368" lon="-1.55209">
        <ele>72.9686</ele>
        <time>2021-12-14T07:41:43Z</time>
      </trkpt>
      <trkpt lat="47.26363" lon="-1.55205">
        <ele>72.643974</ele>
        <time>2021-12-14T07:41:47Z</time>
      </trkpt>
      <trkpt lat="47.26359" lon="-1.55201">
        <ele>72.38685</ele>
        <time>2021-12-14T07:41:50Z</time>
      </trkpt>
      <trkpt lat="47.26355" lon="-1.55197">
        <ele>71.8447</ele>
        <time>2021-12-14T07:41:55Z</time>
      </trkpt>
      <trkpt lat="47.26349" lon="-1.55196">
        <ele>71.3057</ele>
        <time>2021-12-14T07:42:00Z</time>
      </trkpt>
      <trkpt lat="47.26345" lon="-1.55198">
        <ele>70.85505</ele>
        <time>2021-12-14T07:42:04Z</time>
      </trkpt>
      <trkpt lat="47.26338" lon="-1.552">
        <ele>70.54755</ele>
        <time>2021-12-14T07:42:07Z</time>
      </trkpt>
      <trkpt lat="47.26333" lon="-1.55204">
        <ele>70.26003</ele>
        <time>2021-12-14T07:42:11Z</time>
      </trkpt>
      <trkpt lat="47.26329" lon="-1.55209">
        <ele>70.10589</ele>
        <time>2021-12-14T07:42:15Z</time>
      </trkpt>
      <trkpt lat="47.26326" lon="-1.55214">
        <ele>69.95473</ele>
        <time>2021-12-14T07:42:19Z</time>
      </trkpt>
      <trkpt lat="47.26321" lon="-1.55217">
        <ele>69.63268</ele>
        <time>2021-12-14T07:42:24Z</time>
      </trkpt>
      <trkpt lat="47.26317" lon="-1.55221">
        <ele>69.36397</ele>
        <time>2021-12-14T07:42:27Z</time>
      </trkpt>
      <trkpt lat="47.26313" lon="-1.55223">
        <ele>69.17206</ele>
        <time>2021-12-14T07:42:30Z</time>
      </trkpt>
      <trkpt lat="47.26308" lon="-1.55226">
        <ele>68.89887</ele>
        <time>2021-12-14T07:42:34Z</time>
      </trkpt>
      <trkpt lat="47.26304" lon="-1.55229">
        <ele>68.65008</ele>
        <time>2021-12-14T07:42:37Z</time>
      </trkpt>
      <trkpt lat="47.26298" lon="-1.55231">
        <ele>68.415565</ele>
        <time>2021-12-14T07:42:40Z</time>
      </trkpt>
      <trkpt lat="47.26293" lon="-1.55232">
        <ele>68.13656</ele>
        <time>2021-12-14T07:42:44Z</time>
      </trkpt>
      <trkpt lat="47.26289" lon="-1.55236">
        <ele>67.703835</ele>
        <time>2021-12-14T07:42:49Z</time>
      </trkpt>
      <trkpt lat="47.26285" lon="-1.55241">
        <ele>67.37936</ele>
        <time>2021-12-14T07:42:53Z</time>
      </trkpt>
      <trkpt lat="47.26282" lon="-1.55246">
        <ele>67.17656</ele>
        <time>2021-12-14T07:42:56Z</time>
      </trkpt>
      <trkpt lat="47.26278" lon="-1.55251">
        <ele>66.97307</ele>
        <time>2021-12-14T07:43:00Z</time>
      </trkpt>
      <trkpt lat="47.26275" lon="-1.55256">
        <ele>66.75606</ele>
        <time>2021-12-14T07:43:04Z</time>
      </trkpt>
      <trkpt lat="47.26272" lon="-1.55262">
        <ele>66.51788</ele>
        <time>2021-12-14T07:43:07Z</time>
      </trkpt>
      <trkpt lat="47.26269" lon="-1.55268">
        <ele>66.23687</ele>
        <time>2021-12-14T07:43:10Z</time>
      </trkpt>
      <trkpt lat="47.26265" lon="-1.55274">
        <ele>65.82111</ele>
        <time>2021-12-14T07:43:14Z</time>
      </trkpt>
      <trkpt lat="47.26262" lon="-1.5528">
        <ele>65.49655</ele>
        <time>2021-12-14T07:43:17Z</time>
      </trkpt>
      <trkpt lat="47.26259" lon="-1.55284">
        <ele>65.00855</ele>
        <time>2021-12-14T07:43:21Z</time>
      </trkpt>
      <trkpt lat="47.26255" lon="-1.55288">
        <ele>64.51296</ele>
        <time>2021-12-14T07:43:25Z</time>
      </trkpt>
      <trkpt lat="47.26252" lon="-1.55294">
        <ele>64.16135</ele>
        <time>2021-12-14T07:43:28Z</time>
      </trkpt>
      <trkpt lat="47.2625" lon="-1.55301">
        <ele>63.828995</ele>
        <time>2021-12-14T07:43:31Z</time>
      </trkpt>
      <trkpt lat="47.26247" lon="-1.55306">
        <ele>63.60293</ele>
        <time>2021-12-14T07:43:34Z</time>
      </trkpt>
      <trkpt lat="47.26243" lon="-1.55311">
        <ele>63.337788</ele>
        <time>2021-12-14T07:43:38Z</time>
      </trkpt>
      <trkpt lat="47.26239" lon="-1.55316">
        <ele>62.833946</ele>
        <time>2021-12-14T07:43:43Z</time>
      </trkpt>
      <trkpt lat="47.26234" lon="-1.55318">
        <ele>62.29532</ele>
        <time>2021-12-14T07:43:47Z</time>
      </trkpt>
      <trkpt lat="47.2623" lon="-1.55322">
        <ele>61.82068</ele>
        <time>2021-12-14T07:43:51Z</time>
      </trkpt>
      <trkpt lat="47.26227" lon="-1.55328">
        <ele>61.43504</ele>
        <time>2021-12-14T07:43:55Z</time>
      </trkpt>
      <trkpt lat="47.26224" lon="-1.55334">
        <ele>61.091076</ele>
        <time>2021-12-14T07:43:59Z</time>
      </trkpt>
      <trkpt lat="47.2622" lon="-1.55339">
        <ele>60.66335</ele>
        <time>2021-12-14T07:44:04Z</time>
      </trkpt>
      <trkpt lat="47.26217" lon="-1.55345">
        <ele>60.354164</ele>
        <time>2021-12-14T07:44:07Z</time>
      </trkpt>
      <trkpt lat="47.26213" lon="-1.55347">
        <ele>60.082436</ele>
        <time>2021-12-14T07:44:10Z</time>
      </trkpt>
      <trkpt lat="47.26207" lon="-1.55349">
        <ele>59.8619</ele>
        <time>2021-12-14T07:44:14Z</time>
      </trkpt>
      <trkpt lat="47.26203" lon="-1.55351">
        <ele>59.72948</ele>
        <time>2021-12-14T07:44:18Z</time>
      </trkpt>
      <trkpt lat="47.26198" lon="-1.55352">
        <ele>59.731754</ele>
        <time>2021-12-14T07:44:22Z</time>
      </trkpt>
      <trkpt lat="47.26193" lon="-1.55351">
        <ele>59.837406</ele>
        <time>2021-12-14T07:44:25Z</time>
      </trkpt>
      <trkpt lat="47.26188" lon="-1.55348">
        <ele>60.127068</ele>
        <time>2021-12-14T07:44:29Z</time>
      </trkpt>
      <trkpt lat="47.26183" lon="-1.55346">
        <ele>60.388702</ele>
        <time>2021-12-14T07:44:32Z</time>
      </trkpt>
      <trkpt lat="47.26178" lon="-1.55343">
        <ele>60.687744</ele>
        <time>2021-12-14T07:44:35Z</time>
      </trkpt>
      <trkpt lat="47.26174" lon="-1.55339">
        <ele>61.010963</ele>
        <time>2021-12-14T07:44:38Z</time>
      </trkpt>
      <trkpt lat="47.2617" lon="-1.55336">
        <ele>61.624023</ele>
        <time>2021-12-14T07:44:44Z</time>
      </trkpt>
      <trkpt lat="47.26164" lon="-1.55335">
        <ele>61.926025</ele>
        <time>2021-12-14T07:44:48Z</time>
      </trkpt>
      <trkpt lat="47.26159" lon="-1.55334">
        <ele>62.039604</ele>
        <time>2021-12-14T07:44:51Z</time>
      </trkpt>
      <trkpt lat="47.26154" lon="-1.55332">
        <ele>61.997272</ele>
        <time>2021-12-14T07:44:55Z</time>
      </trkpt>
      <trkpt lat="47.26149" lon="-1.5533">
        <ele>61.719173</ele>
        <time>2021-12-14T07:45:00Z</time>
      </trkpt>
      <trkpt lat="47.26145" lon="-1.55328">
        <ele>61.367695</ele>
        <time>2021-12-14T07:45:04Z</time>
      </trkpt>
      <trkpt lat="47.2614" lon="-1.55324">
        <ele>60.96944</ele>
        <time>2021-12-14T07:45:08Z</time>
      </trkpt>
      <trkpt lat="47.26136" lon="-1.55321">
        <ele>60.65742</ele>
        <time>2021-12-14T07:45:11Z</time>
      </trkpt>
      <trkpt lat="47.26131" lon="-1.55318">
        <ele>60.402153</ele>
        <time>2021-12-14T07:45:14Z</time>
      </trkpt>
      <trkpt lat="47.26127" lon="-1.55315">
        <ele>60.21086</ele>
        <time>2021-12-14T07:45:17Z</time>
      </trkpt>
      <trkpt lat="47.26122" lon="-1.55313">
        <ele>59.999794</ele>
        <time>2021-12-14T07:45:21Z</time>
      </trkpt>
      <trkpt lat="47.26117" lon="-1.5531">
        <ele>59.78388</ele>
        <time>2021-12-14T07:45:25Z</time>
      </trkpt>
      <trkpt lat="47.26114" lon="-1.55306">
        <ele>59.675766</ele>
        <time>2021-12-14T07:45:28Z</time>
      </trkpt>
      <trkpt lat="47.26109" lon="-1.55302">
        <ele>59.61433</ele>
        <time>2021-12-14T07:45:32Z</time>
      </trkpt>
      <trkpt lat="47.26105" lon="-1.55305">
        <ele>59.519726</ele>
        <time>2021-12-14T07:45:36Z</time>
      </trkpt>
      <trkpt lat="47.26102" lon="-1.55312">
        <ele>59.302605</ele>
        <time>2021-12-14T07:45:40Z</time>
      </trkpt>
      <trkpt lat="47.261" lon="-1.55318">
        <ele>58.96174</ele>
        <time>2021-12-14T07:45:44Z</time>
      </trkpt>
      <trkpt lat="47.26097" lon="-1.55324">
        <ele>58.61302</ele>
        <time>2021-12-14T07:45:48Z</time>
      </trkpt>
      <trkpt lat="47.26093" lon="-1.5533">
        <ele>58.294315</ele>
        <time>2021-12-14T07:45:52Z</time>
      </trkpt>
      <trkpt lat="47.2609" lon="-1.55335">
        <ele>58.041397</ele>
        <time>2021-12-14T07:45:56Z</time>
      </trkpt>
      <trkpt lat="47.26086" lon="-1.55341">
        <ele>57.86351</ele>
        <time>2021-12-14T07:46:01Z</time>
      </trkpt>
      <trkpt lat="47.26085" lon="-1.55348">
        <ele>57.63127</ele>
        <time>2021-12-14T07:46:04Z</time>
      </trkpt>
      <trkpt lat="47.26082" lon="-1.55354">
        <ele>57.344997</ele>
        <time>2021-12-14T07:46:08Z</time>
      </trkpt>
      <trkpt lat="47.2608" lon="-1.55361">
        <ele>56.83535</ele>
        <time>2021-12-14T07:46:12Z</time>
      </trkpt>
      <trkpt lat="47.26077" lon="-1.55367">
        <ele>56.506973</ele>
        <time>2021-12-14T07:46:14Z</time>
      </trkpt>
      <trkpt lat="47.26074" lon="-1.55373">
        <ele>56.108704</ele>
        <time>2021-12-14T07:46:18Z</time>
      </trkpt>
      <trkpt lat="47.26071" lon="-1.55381">
        <ele>55.61683</ele>
        <time>2021-12-14T07:46:23Z</time>
      </trkpt>
      <trkpt lat="47.26068" lon="-1.55386">
        <ele>55.405113</ele>
        <time>2021-12-14T07:46:26Z</time>
      </trkpt>
      <trkpt lat="47.26065" lon="-1.55392">
        <ele>55.27792</ele>
        <time>2021-12-14T07:46:29Z</time>
      </trkpt>
      <trkpt lat="47.26062" lon="-1.55398">
        <ele>55.189243</ele>
        <time>2021-12-14T07:46:32Z</time>
      </trkpt>
      <trkpt lat="47.26061" lon="-1.55405">
        <ele>55.080757</ele>
        <time>2021-12-14T07:46:35Z</time>
      </trkpt>
      <trkpt lat="47.26058" lon="-1.55413">
        <ele>54.901466</ele>
        <time>2021-12-14T07:46:39Z</time>
      </trkpt>
      <trkpt lat="47.26056" lon="-1.55419">
        <ele>54.62201</ele>
        <time>2021-12-14T07:46:45Z</time>
      </trkpt>
      <trkpt lat="47.26053" lon="-1.55426">
        <ele>54.539314</ele>
        <time>2021-12-14T07:46:49Z</time>
      </trkpt>
      <trkpt lat="47.26052" lon="-1.55433">
        <ele>54.501816</ele>
        <time>2021-12-14T07:46:53Z</time>
      </trkpt>
      <trkpt lat="47.2605" lon="-1.5544">
        <ele>54.41103</ele>
        <time>2021-12-14T07:46:56Z</time>
      </trkpt>
      <trkpt lat="47.26047" lon="-1.55447">
        <ele>54.31542</ele>
        <time>2021-12-14T07:47:00Z</time>
      </trkpt>
      <trkpt lat="47.26046" lon="-1.55455">
        <ele>54.27048</ele>
        <time>2021-12-14T07:47:04Z</time>
      </trkpt>
      <trkpt lat="47.26044" lon="-1.55462">
        <ele>54.23759</ele>
        <time>2021-12-14T07:47:07Z</time>
      </trkpt>
      <trkpt lat="47.26043" lon="-1.55469">
        <ele>54.17888</ele>
        <time>2021-12-14T07:47:11Z</time>
      </trkpt>
      <trkpt lat="47.26041" lon="-1.55476">
        <ele>54.13736</ele>
        <time>2021-12-14T07:47:15Z</time>
      </trkpt>
      <trkpt lat="47.26039" lon="-1.55483">
        <ele>53.9608</ele>
        <time>2021-12-14T07:47:19Z</time>
      </trkpt>
      <trkpt lat="47.26036" lon="-1.55489">
        <ele>53.79179</ele>
        <time>2021-12-14T07:47:23Z</time>
      </trkpt>
      <trkpt lat="47.26034" lon="-1.55495">
        <ele>53.64961</ele>
        <time>2021-12-14T07:47:27Z</time>
      </trkpt>
      <trkpt lat="47.26031" lon="-1.55502">
        <ele>53.501568</ele>
        <time>2021-12-14T07:47:31Z</time>
      </trkpt>
      <trkpt lat="47.26029" lon="-1.55509">
        <ele>53.45821</ele>
        <time>2021-12-14T07:47:34Z</time>
      </trkpt>
      <trkpt lat="47.26027" lon="-1.55516">
        <ele>53.446</ele>
        <time>2021-12-14T07:47:38Z</time>
      </trkpt>
      <trkpt lat="47.26024" lon="-1.55526">
        <ele>53.453735</ele>
        <time>2021-12-14T07:47:43Z</time>
      </trkpt>
      <trkpt lat="47.26022" lon="-1.55533">
        <ele>53.473602</ele>
        <time>2021-12-14T07:47:47Z</time>
      </trkpt>
      <trkpt lat="47.26019" lon="-1.5554">
        <ele>53.53735</ele>
        <time>2021-12-14T07:47:51Z</time>
      </trkpt>
      <trkpt lat="47.26017" lon="-1.55546">
        <ele>53.495255</ele>
        <time>2021-12-14T07:47:55Z</time>
      </trkpt>
      <trkpt lat="47.26016" lon="-1.55554">
        <ele>53.416656</ele>
        <time>2021-12-14T07:47:59Z</time>
      </trkpt>
      <trkpt lat="47.26013" lon="-1.5556">
        <ele>53.338932</ele>
        <time>2021-12-14T07:48:03Z</time>
      </trkpt>
      <trkpt lat="47.26011" lon="-1.55567">
        <ele>53.242817</ele>
        <time>2021-12-14T07:48:07Z</time>
      </trkpt>
      <trkpt lat="47.26009" lon="-1.55575">
        <ele>53.076923</ele>
        <time>2021-12-14T07:48:11Z</time>
      </trkpt>
      <trkpt lat="47.26007" lon="-1.55582">
        <ele>52.940323</ele>
        <time>2021-12-14T07:48:15Z</time>
      </trkpt>
      <trkpt lat="47.26005" lon="-1.55589">
        <ele>52.973232</ele>
        <time>2021-12-14T07:48:19Z</time>
      </trkpt>
      <trkpt lat="47.26006" lon="-1.55596">
        <ele>53.225903</ele>
        <time>2021-12-14T07:48:24Z</time>
      </trkpt>
      <trkpt lat="47.26003" lon="-1.55601">
        <ele>53.557827</ele>
        <time>2021-12-14T07:48:29Z</time>
      </trkpt>
      <trkpt lat="47.25998" lon="-1.55603">
        <ele>53.937637</ele>
        <time>2021-12-14T07:48:34Z</time>
      </trkpt>
      <trkpt lat="47.25993" lon="-1.55608">
        <ele>54.344482</ele>
        <time>2021-12-14T07:48:39Z</time>
      </trkpt>
      <trkpt lat="47.25988" lon="-1.55612">
        <ele>54.753754</ele>
        <time>2021-12-14T07:48:43Z</time>
      </trkpt>
      <trkpt lat="47.25983" lon="-1.55617">
        <ele>55.36499</ele>
        <time>2021-12-14T07:48:48Z</time>
      </trkpt>
      <trkpt lat="47.25979" lon="-1.55618">
        <ele>55.858833</ele>
        <time>2021-12-14T07:48:53Z</time>
      </trkpt>
      <trkpt lat="47.25972" lon="-1.55619">
        <ele>56.248165</ele>
        <time>2021-12-14T07:48:59Z</time>
      </trkpt>
      <trkpt lat="47.25967" lon="-1.55619">
        <ele>56.64443</ele>
        <time>2021-12-14T07:49:04Z</time>
      </trkpt>
      <trkpt lat="47.25963" lon="-1.55623">
        <ele>56.865643</ele>
        <time>2021-12-14T07:49:11Z</time>
      </trkpt>
      <trkpt lat="47.25961" lon="-1.55631">
        <ele>56.946205</ele>
        <time>2021-12-14T07:49:17Z</time>
      </trkpt>
      <trkpt lat="47.2596" lon="-1.55637">
        <ele>57.03937</ele>
        <time>2021-12-14T07:49:21Z</time>
      </trkpt>
      <trkpt lat="47.25956" lon="-1.55644">
        <ele>57.495956</ele>
        <time>2021-12-14T07:49:28Z</time>
      </trkpt>
      <trkpt lat="47.25953" lon="-1.55651">
        <ele>57.600174</ele>
        <time>2021-12-14T07:49:31Z</time>
      </trkpt>
      <trkpt lat="47.25951" lon="-1.55659">
        <ele>57.88719</ele>
        <time>2021-12-14T07:49:35Z</time>
      </trkpt>
      <trkpt lat="47.2595" lon="-1.55667">
        <ele>58.34304</ele>
        <time>2021-12-14T07:49:39Z</time>
      </trkpt>
      <trkpt lat="47.25946" lon="-1.55672">
        <ele>58.76602</ele>
        <time>2021-12-14T07:49:43Z</time>
      </trkpt>
      <trkpt lat="47.25942" lon="-1.55676">
        <ele>59.05561</ele>
        <time>2021-12-14T07:49:47Z</time>
      </trkpt>
      <trkpt lat="47.25942" lon="-1.55685">
        <ele>59.21947</ele>
        <time>2021-12-14T07:49:51Z</time>
      </trkpt>
      <trkpt lat="47.25943" lon="-1.55691">
        <ele>59.59827</ele>
        <time>2021-12-14T07:49:55Z</time>
      </trkpt>
      <trkpt lat="47.25941" lon="-1.557">
        <ele>60.107136</ele>
        <time>2021-12-14T07:50:00Z</time>
      </trkpt>
      <trkpt lat="47.25939" lon="-1.55706">
        <ele>60.4635</ele>
        <time>2021-12-14T07:50:04Z</time>
      </trkpt>
      <trkpt lat="47.25939" lon="-1.55713">
        <ele>60.49427</ele>
        <time>2021-12-14T07:50:09Z</time>
      </trkpt>
      <trkpt lat="47.25942" lon="-1.55719">
        <ele>60.42456</ele>
        <time>2021-12-14T07:50:12Z</time>
      </trkpt>
      <trkpt lat="47.25946" lon="-1.55724">
        <ele>60.435844</ele>
        <time>2021-12-14T07:50:16Z</time>
      </trkpt>
      <trkpt lat="47.25949" lon="-1.55729">
        <ele>60.48114</ele>
        <time>2021-12-14T07:50:20Z</time>
      </trkpt>
      <trkpt lat="47.25952" lon="-1.55736">
        <ele>60.581165</ele>
        <time>2021-12-14T07:50:24Z</time>
      </trkpt>
      <trkpt lat="47.25953" lon="-1.55743">
        <ele>60.7411</ele>
        <time>2021-12-14T07:50:29Z</time>
      </trkpt>
      <trkpt lat="47.25952" lon="-1.55747">
        <ele>61.23386</ele>
        <time>2021-12-14T07:50:37Z</time>
      </trkpt>
      <trkpt lat="47.25952" lon="-1.55747">
        <ele>61.23386</ele>
        <time>2021-12-14T07:50:37Z</time>
      </trkpt>
      <trkpt lat="47.25948" lon="-1.55751">
        <ele>62.543526</ele>
        <time>2021-12-14T07:51:07Z</time>
      </trkpt>
      <trkpt lat="47.25943" lon="-1.55751">
        <ele>62.73931</ele>
        <time>2021-12-14T07:51:13Z</time>
      </trkpt>
      <trkpt lat="47.25937" lon="-1.55751">
        <ele>62.61837</ele>
        <time>2021-12-14T07:51:17Z</time>
      </trkpt>
      <trkpt lat="47.25933" lon="-1.55751">
        <ele>62.429695</ele>
        <time>2021-12-14T07:51:19Z</time>
      </trkpt>
      <trkpt lat="47.25929" lon="-1.55755">
        <ele>61.11457</ele>
        <time>2021-12-14T07:51:26Z</time>
      </trkpt>
      <trkpt lat="47.25924" lon="-1.55756">
        <ele>59.86509</ele>
        <time>2021-12-14T07:51:32Z</time>
      </trkpt>
      <trkpt lat="47.25919" lon="-1.55754">
        <ele>59.563248</ele>
        <time>2021-12-14T07:51:34Z</time>
      </trkpt>
      <trkpt lat="47.25915" lon="-1.55754">
        <ele>58.93543</ele>
        <time>2021-12-14T07:51:38Z</time>
      </trkpt>
      <trkpt lat="47.25909" lon="-1.55752">
        <ele>58.431362</ele>
        <time>2021-12-14T07:51:41Z</time>
      </trkpt>
      <trkpt lat="47.25904" lon="-1.5575">
        <ele>58.13901</ele>
        <time>2021-12-14T07:51:43Z</time>
      </trkpt>
      <trkpt lat="47.25899" lon="-1.55753">
        <ele>57.626633</ele>
        <time>2021-12-14T07:51:47Z</time>
      </trkpt>
      <trkpt lat="47.25894" lon="-1.55755">
        <ele>57.29982</ele>
        <time>2021-12-14T07:51:50Z</time>
      </trkpt>
      <trkpt lat="47.25889" lon="-1.5576">
        <ele>57.009235</ele>
        <time>2021-12-14T07:51:53Z</time>
      </trkpt>
      <trkpt lat="47.25885" lon="-1.55766">
        <ele>56.78754</ele>
        <time>2021-12-14T07:51:56Z</time>
      </trkpt>
      <trkpt lat="47.25882" lon="-1.55773">
        <ele>56.572742</ele>
        <time>2021-12-14T07:52:00Z</time>
      </trkpt>
      <trkpt lat="47.2588" lon="-1.55779">
        <ele>56.28563</ele>
        <time>2021-12-14T07:52:04Z</time>
      </trkpt>
      <trkpt lat="47.25877" lon="-1.55785">
        <ele>56.013493</ele>
        <time>2021-12-14T07:52:07Z</time>
      </trkpt>
      <trkpt lat="47.25873" lon="-1.55791">
        <ele>55.742508</ele>
        <time>2021-12-14T07:52:10Z</time>
      </trkpt>
      <trkpt lat="47.25869" lon="-1.55797">
        <ele>55.420063</ele>
        <time>2021-12-14T07:52:14Z</time>
      </trkpt>
      <trkpt lat="47.25865" lon="-1.558">
        <ele>55.188095</ele>
        <time>2021-12-14T07:52:17Z</time>
      </trkpt>
      <trkpt lat="47.25861" lon="-1.55804">
        <ele>54.87541</ele>
        <time>2021-12-14T07:52:21Z</time>
      </trkpt>
      <trkpt lat="47.25856" lon="-1.55805">
        <ele>54.658836</ele>
        <time>2021-12-14T07:52:24Z</time>
      </trkpt>
      <trkpt lat="47.2585" lon="-1.55809">
        <ele>54.471203</ele>
        <time>2021-12-14T07:52:29Z</time>
      </trkpt>
      <trkpt lat="47.25849" lon="-1.55816">
        <ele>54.380188</ele>
        <time>2021-12-14T07:52:32Z</time>
      </trkpt>
      <trkpt lat="47.25848" lon="-1.55822">
        <ele>54.292015</ele>
        <time>2021-12-14T07:52:35Z</time>
      </trkpt>
      <trkpt lat="47.25846" lon="-1.55829">
        <ele>54.190643</ele>
        <time>2021-12-14T07:52:38Z</time>
      </trkpt>
      <trkpt lat="47.25844" lon="-1.55835">
        <ele>54.08086</ele>
        <time>2021-12-14T07:52:43Z</time>
      </trkpt>
      <trkpt lat="47.25842" lon="-1.55842">
        <ele>54.056854</ele>
        <time>2021-12-14T07:52:46Z</time>
      </trkpt>
      <trkpt lat="47.25841" lon="-1.55849">
        <ele>54.067257</ele>
        <time>2021-12-14T07:52:49Z</time>
      </trkpt>
      <trkpt lat="47.2584" lon="-1.55857">
        <ele>54.102642</ele>
        <time>2021-12-14T07:52:53Z</time>
      </trkpt>
      <trkpt lat="47.25838" lon="-1.55864">
        <ele>54.24379</ele>
        <time>2021-12-14T07:52:58Z</time>
      </trkpt>
      <trkpt lat="47.25835" lon="-1.55869">
        <ele>54.395836</ele>
        <time>2021-12-14T07:53:02Z</time>
      </trkpt>
      <trkpt lat="47.25831" lon="-1.55876">
        <ele>54.52417</ele>
        <time>2021-12-14T07:53:06Z</time>
      </trkpt>
      <trkpt lat="47.25828" lon="-1.55881">
        <ele>54.662476</ele>
        <time>2021-12-14T07:53:10Z</time>
      </trkpt>
      <trkpt lat="47.25824" lon="-1.55886">
        <ele>54.880142</ele>
        <time>2021-12-14T07:53:14Z</time>
      </trkpt>
      <trkpt lat="47.25819" lon="-1.5589">
        <ele>55.134914</ele>
        <time>2021-12-14T07:53:18Z</time>
      </trkpt>
      <trkpt lat="47.25815" lon="-1.55895">
        <ele>55.31031</ele>
        <time>2021-12-14T07:53:22Z</time>
      </trkpt>
      <trkpt lat="47.2581" lon="-1.559">
        <ele>55.434086</ele>
        <time>2021-12-14T07:53:26Z</time>
      </trkpt>
      <trkpt lat="47.25807" lon="-1.55905">
        <ele>55.541573</ele>
        <time>2021-12-14T07:53:30Z</time>
      </trkpt>
      <trkpt lat="47.25802" lon="-1.55911">
        <ele>55.638145</ele>
        <time>2021-12-14T07:53:34Z</time>
      </trkpt>
      <trkpt lat="47.25798" lon="-1.55914">
        <ele>55.746895</ele>
        <time>2021-12-14T07:53:37Z</time>
      </trkpt>
      <trkpt lat="47.25794" lon="-1.55918">
        <ele>55.936893</ele>
        <time>2021-12-14T07:53:41Z</time>
      </trkpt>
      <trkpt lat="47.2579" lon="-1.55922">
        <ele>56.196712</ele>
        <time>2021-12-14T07:53:45Z</time>
      </trkpt>
      <trkpt lat="47.25785" lon="-1.55925">
        <ele>56.659</ele>
        <time>2021-12-14T07:53:50Z</time>
      </trkpt>
      <trkpt lat="47.2578" lon="-1.55925">
        <ele>57.22748</ele>
        <time>2021-12-14T07:53:54Z</time>
      </trkpt>
      <trkpt lat="47.25774" lon="-1.55926">
        <ele>58.076138</ele>
        <time>2021-12-14T07:53:59Z</time>
      </trkpt>
      <trkpt lat="47.2577" lon="-1.55929">
        <ele>58.83417</ele>
        <time>2021-12-14T07:54:04Z</time>
      </trkpt>
      <trkpt lat="47.25769" lon="-1.55938">
        <ele>59.254604</ele>
        <time>2021-12-14T07:54:08Z</time>
      </trkpt>
      <trkpt lat="47.25768" lon="-1.55945">
        <ele>59.595264</ele>
        <time>2021-12-14T07:54:11Z</time>
      </trkpt>
      <trkpt lat="47.25767" lon="-1.55953">
        <ele>60.017086</ele>
        <time>2021-12-14T07:54:15Z</time>
      </trkpt>
      <trkpt lat="47.25766" lon="-1.55961">
        <ele>60.407665</ele>
        <time>2021-12-14T07:54:19Z</time>
      </trkpt>
      <trkpt lat="47.25764" lon="-1.55968">
        <ele>60.683704</ele>
        <time>2021-12-14T07:54:22Z</time>
      </trkpt>
      <trkpt lat="47.25764" lon="-1.55976">
        <ele>61.101234</ele>
        <time>2021-12-14T07:54:27Z</time>
      </trkpt>
      <trkpt lat="47.25763" lon="-1.55984">
        <ele>61.402935</ele>
        <time>2021-12-14T07:54:31Z</time>
      </trkpt>
      <trkpt lat="47.25763" lon="-1.55992">
        <ele>61.685486</ele>
        <time>2021-12-14T07:54:36Z</time>
      </trkpt>
      <trkpt lat="47.25762" lon="-1.55999">
        <ele>61.951893</ele>
        <time>2021-12-14T07:54:40Z</time>
      </trkpt>
      <trkpt lat="47.25761" lon="-1.56005">
        <ele>62.211334</ele>
        <time>2021-12-14T07:54:44Z</time>
      </trkpt>
      <trkpt lat="47.25759" lon="-1.56012">
        <ele>62.356125</ele>
        <time>2021-12-14T07:54:49Z</time>
      </trkpt>
      <trkpt lat="47.25757" lon="-1.5602">
        <ele>62.379818</ele>
        <time>2021-12-14T07:54:53Z</time>
      </trkpt>
      <trkpt lat="47.25755" lon="-1.56027">
        <ele>62.401775</ele>
        <time>2021-12-14T07:54:57Z</time>
      </trkpt>
      <trkpt lat="47.25752" lon="-1.56033">
        <ele>62.263077</ele>
        <time>2021-12-14T07:55:02Z</time>
      </trkpt>
      <trkpt lat="47.25748" lon="-1.56037">
        <ele>62.015564</ele>
        <time>2021-12-14T07:55:06Z</time>
      </trkpt>
      <trkpt lat="47.25744" lon="-1.5604">
        <ele>61.716347</ele>
        <time>2021-12-14T07:55:10Z</time>
      </trkpt>
      <trkpt lat="47.25739" lon="-1.56045">
        <ele>61.329693</ele>
        <time>2021-12-14T07:55:14Z</time>
      </trkpt>
      <trkpt lat="47.25735" lon="-1.5605">
        <ele>60.87556</ele>
        <time>2021-12-14T07:55:18Z</time>
      </trkpt>
      <trkpt lat="47.25732" lon="-1.56057">
        <ele>60.5009</ele>
        <time>2021-12-14T07:55:21Z</time>
      </trkpt>
      <trkpt lat="47.25729" lon="-1.56065">
        <ele>60.010242</ele>
        <time>2021-12-14T07:55:25Z</time>
      </trkpt>
      <trkpt lat="47.25726" lon="-1.56071">
        <ele>59.51157</ele>
        <time>2021-12-14T07:55:30Z</time>
      </trkpt>
      <trkpt lat="47.25723" lon="-1.56076">
        <ele>59.190754</ele>
        <time>2021-12-14T07:55:33Z</time>
      </trkpt>
      <trkpt lat="47.2572" lon="-1.56082">
        <ele>58.911068</ele>
        <time>2021-12-14T07:55:36Z</time>
      </trkpt>
      <trkpt lat="47.25716" lon="-1.56087">
        <ele>58.369247</ele>
        <time>2021-12-14T07:55:43Z</time>
      </trkpt>
      <trkpt lat="47.25715" lon="-1.56094">
        <ele>58.01257</ele>
        <time>2021-12-14T07:55:47Z</time>
      </trkpt>
      <trkpt lat="47.25713" lon="-1.56102">
        <ele>57.669918</ele>
        <time>2021-12-14T07:55:51Z</time>
      </trkpt>
      <trkpt lat="47.25713" lon="-1.56111">
        <ele>57.5244</ele>
        <time>2021-12-14T07:55:54Z</time>
      </trkpt>
      <trkpt lat="47.25713" lon="-1.56117">
        <ele>57.48176</ele>
        <time>2021-12-14T07:55:56Z</time>
      </trkpt>
      <trkpt lat="47.25713" lon="-1.56125">
        <ele>57.42602</ele>
        <time>2021-12-14T07:55:59Z</time>
      </trkpt>
      <trkpt lat="47.25711" lon="-1.56131">
        <ele>57.35815</ele>
        <time>2021-12-14T07:56:02Z</time>
      </trkpt>
      <trkpt lat="47.25709" lon="-1.56138">
        <ele>57.22709</ele>
        <time>2021-12-14T07:56:05Z</time>
      </trkpt>
      <trkpt lat="47.25706" lon="-1.56144">
        <ele>57.00674</ele>
        <time>2021-12-14T07:56:09Z</time>
      </trkpt>
      <trkpt lat="47.25702" lon="-1.5615">
        <ele>56.788628</ele>
        <time>2021-12-14T07:56:13Z</time>
      </trkpt>
      <trkpt lat="47.25697" lon="-1.56157">
        <ele>56.704308</ele>
        <time>2021-12-14T07:56:17Z</time>
      </trkpt>
      <trkpt lat="47.25695" lon="-1.56162">
        <ele>56.628746</ele>
        <time>2021-12-14T07:56:21Z</time>
      </trkpt>
      <trkpt lat="47.25691" lon="-1.56168">
        <ele>56.56325</ele>
        <time>2021-12-14T07:56:25Z</time>
      </trkpt>
      <trkpt lat="47.25688" lon="-1.56173">
        <ele>56.561283</ele>
        <time>2021-12-14T07:56:29Z</time>
      </trkpt>
      <trkpt lat="47.25685" lon="-1.5618">
        <ele>56.672955</ele>
        <time>2021-12-14T07:56:32Z</time>
      </trkpt>
      <trkpt lat="47.25683" lon="-1.56187">
        <ele>56.97869</ele>
        <time>2021-12-14T07:56:37Z</time>
      </trkpt>
      <trkpt lat="47.25679" lon="-1.56193">
        <ele>57.20802</ele>
        <time>2021-12-14T07:56:42Z</time>
      </trkpt>
      <trkpt lat="47.25676" lon="-1.56199">
        <ele>57.27668</ele>
        <time>2021-12-14T07:56:47Z</time>
      </trkpt>
      <trkpt lat="47.25674" lon="-1.56206">
        <ele>57.323647</ele>
        <time>2021-12-14T07:56:50Z</time>
      </trkpt>
      <trkpt lat="47.25672" lon="-1.56212">
        <ele>57.37882</ele>
        <time>2021-12-14T07:56:54Z</time>
      </trkpt>
      <trkpt lat="47.2567" lon="-1.5622">
        <ele>57.435863</ele>
        <time>2021-12-14T07:56:58Z</time>
      </trkpt>
      <trkpt lat="47.25668" lon="-1.56229">
        <ele>57.424847</ele>
        <time>2021-12-14T07:57:02Z</time>
      </trkpt>
      <trkpt lat="47.25666" lon="-1.56237">
        <ele>57.36765</ele>
        <time>2021-12-14T07:57:06Z</time>
      </trkpt>
      <trkpt lat="47.25665" lon="-1.56245">
        <ele>57.223717</ele>
        <time>2021-12-14T07:57:11Z</time>
      </trkpt>
      <trkpt lat="47.25663" lon="-1.56252">
        <ele>57.077007</ele>
        <time>2021-12-14T07:57:15Z</time>
      </trkpt>
      <trkpt lat="47.25662" lon="-1.56261">
        <ele>57.025032</ele>
        <time>2021-12-14T07:57:18Z</time>
      </trkpt>
      <trkpt lat="47.25662" lon="-1.56268">
        <ele>57.0069</ele>
        <time>2021-12-14T07:57:21Z</time>
      </trkpt>
      <trkpt lat="47.25661" lon="-1.56275">
        <ele>57.051937</ele>
        <time>2021-12-14T07:57:24Z</time>
      </trkpt>
      <trkpt lat="47.2566" lon="-1.56282">
        <ele>57.249256</ele>
        <time>2021-12-14T07:57:29Z</time>
      </trkpt>
      <trkpt lat="47.25658" lon="-1.56289">
        <ele>57.31228</ele>
        <time>2021-12-14T07:57:33Z</time>
      </trkpt>
      <trkpt lat="47.25655" lon="-1.56296">
        <ele>57.316784</ele>
        <time>2021-12-14T07:57:37Z</time>
      </trkpt>
      <trkpt lat="47.2565" lon="-1.56301">
        <ele>57.358677</ele>
        <time>2021-12-14T07:57:41Z</time>
      </trkpt>
      <trkpt lat="47.25647" lon="-1.56306">
        <ele>57.45345</ele>
        <time>2021-12-14T07:57:45Z</time>
      </trkpt>
      <trkpt lat="47.25642" lon="-1.5631">
        <ele>57.599155</ele>
        <time>2021-12-14T07:57:50Z</time>
      </trkpt>
      <trkpt lat="47.25638" lon="-1.56313">
        <ele>57.690826</ele>
        <time>2021-12-14T07:57:54Z</time>
      </trkpt>
      <trkpt lat="47.25633" lon="-1.56313">
        <ele>57.932976</ele>
        <time>2021-12-14T07:57:59Z</time>
      </trkpt>
      <trkpt lat="47.25629" lon="-1.56308">
        <ele>58.25998</ele>
        <time>2021-12-14T07:58:05Z</time>
      </trkpt>
      <trkpt lat="47.25625" lon="-1.56305">
        <ele>58.41993</ele>
        <time>2021-12-14T07:58:08Z</time>
      </trkpt>
      <trkpt lat="47.2562" lon="-1.563">
        <ele>58.69957</ele>
        <time>2021-12-14T07:58:12Z</time>
      </trkpt>
      <trkpt lat="47.25616" lon="-1.56297">
        <ele>59.008987</ele>
        <time>2021-12-14T07:58:16Z</time>
      </trkpt>
      <trkpt lat="47.25611" lon="-1.56295">
        <ele>59.5544</ele>
        <time>2021-12-14T07:58:21Z</time>
      </trkpt>
      <trkpt lat="47.25606" lon="-1.56293">
        <ele>60.165325</ele>
        <time>2021-12-14T07:58:26Z</time>
      </trkpt>
      <trkpt lat="47.25601" lon="-1.56289">
        <ele>60.87475</ele>
        <time>2021-12-14T07:58:31Z</time>
      </trkpt>
      <trkpt lat="47.25597" lon="-1.56289">
        <ele>61.511505</ele>
        <time>2021-12-14T07:58:35Z</time>
      </trkpt>
      <trkpt lat="47.25591" lon="-1.56291">
        <ele>62.24679</ele>
        <time>2021-12-14T07:58:40Z</time>
      </trkpt>
      <trkpt lat="47.25585" lon="-1.56294">
        <ele>62.77709</ele>
        <time>2021-12-14T07:58:44Z</time>
      </trkpt>
      <trkpt lat="47.2558" lon="-1.56297">
        <ele>63.32149</ele>
        <time>2021-12-14T07:58:48Z</time>
      </trkpt>
      <trkpt lat="47.25576" lon="-1.56302">
        <ele>63.81987</ele>
        <time>2021-12-14T07:58:53Z</time>
      </trkpt>
      <trkpt lat="47.25571" lon="-1.56306">
        <ele>64.28736</ele>
        <time>2021-12-14T07:58:57Z</time>
      </trkpt>
      <trkpt lat="47.25567" lon="-1.56309">
        <ele>64.76913</ele>
        <time>2021-12-14T07:59:02Z</time>
      </trkpt>
      <trkpt lat="47.25563" lon="-1.56313">
        <ele>65.06541</ele>
        <time>2021-12-14T07:59:06Z</time>
      </trkpt>
      <trkpt lat="47.25559" lon="-1.56316">
        <ele>65.34298</ele>
        <time>2021-12-14T07:59:10Z</time>
      </trkpt>
      <trkpt lat="47.25553" lon="-1.5632">
        <ele>65.584885</ele>
        <time>2021-12-14T07:59:14Z</time>
      </trkpt>
      <trkpt lat="47.25549" lon="-1.56324">
        <ele>65.78006</ele>
        <time>2021-12-14T07:59:17Z</time>
      </trkpt>
      <trkpt lat="47.25544" lon="-1.56327">
        <ele>66.00233</ele>
        <time>2021-12-14T07:59:21Z</time>
      </trkpt>
      <trkpt lat="47.2554" lon="-1.5633">
        <ele>66.20185</ele>
        <time>2021-12-14T07:59:25Z</time>
      </trkpt>
      <trkpt lat="47.25535" lon="-1.56335">
        <ele>66.37862</ele>
        <time>2021-12-14T07:59:30Z</time>
      </trkpt>
      <trkpt lat="47.2553" lon="-1.5634">
        <ele>66.5001</ele>
        <time>2021-12-14T07:59:35Z</time>
      </trkpt>
      <trkpt lat="47.25525" lon="-1.56344">
        <ele>66.59731</ele>
        <time>2021-12-14T07:59:40Z</time>
      </trkpt>
      <trkpt lat="47.2552" lon="-1.56349">
        <ele>66.62325</ele>
        <time>2021-12-14T07:59:45Z</time>
      </trkpt>
      <trkpt lat="47.25515" lon="-1.56351">
        <ele>66.64588</ele>
        <time>2021-12-14T07:59:49Z</time>
      </trkpt>
      <trkpt lat="47.25511" lon="-1.56354">
        <ele>66.77458</ele>
        <time>2021-12-14T07:59:53Z</time>
      </trkpt>
      <trkpt lat="47.25507" lon="-1.56359">
        <ele>66.95601</ele>
        <time>2021-12-14T07:59:57Z</time>
      </trkpt>
      <trkpt lat="47.25501" lon="-1.5636">
        <ele>67.269165</ele>
        <time>2021-12-14T08:00:02Z</time>
      </trkpt>
      <trkpt lat="47.25497" lon="-1.56364">
        <ele>67.44863</ele>
        <time>2021-12-14T08:00:05Z</time>
      </trkpt>
      <trkpt lat="47.25494" lon="-1.56368">
        <ele>67.641556</ele>
        <time>2021-12-14T08:00:09Z</time>
      </trkpt>
      <trkpt lat="47.25489" lon="-1.56373">
        <ele>67.71061</ele>
        <time>2021-12-14T08:00:13Z</time>
      </trkpt>
      <trkpt lat="47.25486" lon="-1.56378">
        <ele>67.70038</ele>
        <time>2021-12-14T08:00:17Z</time>
      </trkpt>
      <trkpt lat="47.25483" lon="-1.56383">
        <ele>67.57689</ele>
        <time>2021-12-14T08:00:20Z</time>
      </trkpt>
      <trkpt lat="47.25479" lon="-1.5639">
        <ele>67.25643</ele>
        <time>2021-12-14T08:00:24Z</time>
      </trkpt>
      <trkpt lat="47.25476" lon="-1.56395">
        <ele>66.70139</ele>
        <time>2021-12-14T08:00:28Z</time>
      </trkpt>
      <trkpt lat="47.25472" lon="-1.564">
        <ele>66.17366</ele>
        <time>2021-12-14T08:00:31Z</time>
      </trkpt>
      <trkpt lat="47.25468" lon="-1.56404">
        <ele>65.43464</ele>
        <time>2021-12-14T08:00:35Z</time>
      </trkpt>
      <trkpt lat="47.25464" lon="-1.5641">
        <ele>64.59129</ele>
        <time>2021-12-14T08:00:39Z</time>
      </trkpt>
      <trkpt lat="47.25459" lon="-1.56412">
        <ele>63.76352</ele>
        <time>2021-12-14T08:00:43Z</time>
      </trkpt>
      <trkpt lat="47.25454" lon="-1.56412">
        <ele>63.1083</ele>
        <time>2021-12-14T08:00:47Z</time>
      </trkpt>
      <trkpt lat="47.25449" lon="-1.56413">
        <ele>62.79293</ele>
        <time>2021-12-14T08:00:50Z</time>
      </trkpt>
      <trkpt lat="47.25444" lon="-1.56413">
        <ele>62.705746</ele>
        <time>2021-12-14T08:00:53Z</time>
      </trkpt>
      <trkpt lat="47.25439" lon="-1.56416">
        <ele>62.684017</ele>
        <time>2021-12-14T08:00:58Z</time>
      </trkpt>
      <trkpt lat="47.25434" lon="-1.56418">
        <ele>62.80952</ele>
        <time>2021-12-14T08:01:02Z</time>
      </trkpt>
      <trkpt lat="47.25429" lon="-1.5642">
        <ele>63.07077</ele>
        <time>2021-12-14T08:01:06Z</time>
      </trkpt>
      <trkpt lat="47.25424" lon="-1.56421">
        <ele>63.376667</ele>
        <time>2021-12-14T08:01:10Z</time>
      </trkpt>
      <trkpt lat="47.25419" lon="-1.5642">
        <ele>63.743027</ele>
        <time>2021-12-14T08:01:13Z</time>
      </trkpt>
      <trkpt lat="47.25415" lon="-1.56414">
        <ele>64.26411</ele>
        <time>2021-12-14T08:01:16Z</time>
      </trkpt>
      <trkpt lat="47.25412" lon="-1.56409">
        <ele>65.24337</ele>
        <time>2021-12-14T08:01:20Z</time>
      </trkpt>
      <trkpt lat="47.25409" lon="-1.56404">
        <ele>66.16586</ele>
        <time>2021-12-14T08:01:24Z</time>
      </trkpt>
      <trkpt lat="47.25406" lon="-1.56396">
        <ele>66.942825</ele>
        <time>2021-12-14T08:01:28Z</time>
      </trkpt>
      <trkpt lat="47.25401" lon="-1.56393">
        <ele>68.11848</ele>
        <time>2021-12-14T08:01:34Z</time>
      </trkpt>
      <trkpt lat="47.25396" lon="-1.56394">
        <ele>69.03612</ele>
        <time>2021-12-14T08:01:39Z</time>
      </trkpt>
      <trkpt lat="47.25392" lon="-1.56398">
        <ele>69.75757</ele>
        <time>2021-12-14T08:01:45Z</time>
      </trkpt>
      <trkpt lat="47.25388" lon="-1.56402">
        <ele>70.11407</ele>
        <time>2021-12-14T08:01:49Z</time>
      </trkpt>
      <trkpt lat="47.25383" lon="-1.56405">
        <ele>70.429344</ele>
        <time>2021-12-14T08:01:53Z</time>
      </trkpt>
      <trkpt lat="47.25378" lon="-1.56404">
        <ele>70.83112</ele>
        <time>2021-12-14T08:01:58Z</time>
      </trkpt>
      <trkpt lat="47.25374" lon="-1.564">
        <ele>70.99134</ele>
        <time>2021-12-14T08:02:02Z</time>
      </trkpt>
      <trkpt lat="47.25369" lon="-1.56399">
        <ele>71.03839</ele>
        <time>2021-12-14T08:02:06Z</time>
      </trkpt>
      <trkpt lat="47.25362" lon="-1.56399">
        <ele>71.142334</ele>
        <time>2021-12-14T08:02:11Z</time>
      </trkpt>
      <trkpt lat="47.25356" lon="-1.56399">
        <ele>71.25789</ele>
        <time>2021-12-14T08:02:15Z</time>
      </trkpt>
      <trkpt lat="47.25351" lon="-1.56395">
        <ele>71.36533</ele>
        <time>2021-12-14T08:02:20Z</time>
      </trkpt>
      <trkpt lat="47.25346" lon="-1.56391">
        <ele>71.32311</ele>
        <time>2021-12-14T08:02:25Z</time>
      </trkpt>
      <trkpt lat="47.25341" lon="-1.56392">
        <ele>71.32327</ele>
        <time>2021-12-14T08:02:28Z</time>
      </trkpt>
      <trkpt lat="47.25335" lon="-1.5639">
        <ele>71.26668</ele>
        <time>2021-12-14T08:02:32Z</time>
      </trkpt>
      <trkpt lat="47.2533" lon="-1.56385">
        <ele>71.06109</ele>
        <time>2021-12-14T08:02:38Z</time>
      </trkpt>
      <trkpt lat="47.25326" lon="-1.56384">
        <ele>70.92353</ele>
        <time>2021-12-14T08:02:41Z</time>
      </trkpt>
      <trkpt lat="47.25321" lon="-1.56379">
        <ele>70.64379</ele>
        <time>2021-12-14T08:02:46Z</time>
      </trkpt>
      <trkpt lat="47.25316" lon="-1.5638">
        <ele>70.28154</ele>
        <time>2021-12-14T08:02:51Z</time>
      </trkpt>
      <trkpt lat="47.25311" lon="-1.56379">
        <ele>70.07539</ele>
        <time>2021-12-14T08:02:54Z</time>
      </trkpt>
      <trkpt lat="47.25306" lon="-1.5638">
        <ele>69.89818</ele>
        <time>2021-12-14T08:02:57Z</time>
      </trkpt>
      <trkpt lat="47.25302" lon="-1.56379">
        <ele>69.712234</ele>
        <time>2021-12-14T08:03:00Z</time>
      </trkpt>
      <trkpt lat="47.25297" lon="-1.56376">
        <ele>69.49992</ele>
        <time>2021-12-14T08:03:03Z</time>
      </trkpt>
      <trkpt lat="47.25292" lon="-1.56376">
        <ele>69.11529</ele>
        <time>2021-12-14T08:03:07Z</time>
      </trkpt>
      <trkpt lat="47.25287" lon="-1.56378">
        <ele>68.83026</ele>
        <time>2021-12-14T08:03:11Z</time>
      </trkpt>
      <trkpt lat="47.25281" lon="-1.56377">
        <ele>68.62701</ele>
        <time>2021-12-14T08:03:15Z</time>
      </trkpt>
      <trkpt lat="47.25276" lon="-1.56376">
        <ele>68.49829</ele>
        <time>2021-12-14T08:03:18Z</time>
      </trkpt>
      <trkpt lat="47.25271" lon="-1.56374">
        <ele>68.39415</ele>
        <time>2021-12-14T08:03:22Z</time>
      </trkpt>
      <trkpt lat="47.25266" lon="-1.56373">
        <ele>68.364</ele>
        <time>2021-12-14T08:03:27Z</time>
      </trkpt>
      <trkpt lat="47.25259" lon="-1.56371">
        <ele>68.54101</ele>
        <time>2021-12-14T08:03:31Z</time>
      </trkpt>
      <trkpt lat="47.25254" lon="-1.5637">
        <ele>68.81429</ele>
        <time>2021-12-14T08:03:35Z</time>
      </trkpt>
      <trkpt lat="47.2525" lon="-1.5637">
        <ele>69.14665</ele>
        <time>2021-12-14T08:03:39Z</time>
      </trkpt>
      <trkpt lat="47.25244" lon="-1.5637">
        <ele>69.31143</ele>
        <time>2021-12-14T08:03:43Z</time>
      </trkpt>
      <trkpt lat="47.25238" lon="-1.56373">
        <ele>69.649796</ele>
        <time>2021-12-14T08:03:48Z</time>
      </trkpt>
      <trkpt lat="47.25233" lon="-1.56375">
        <ele>69.9212</ele>
        <time>2021-12-14T08:03:52Z</time>
      </trkpt>
      <trkpt lat="47.25227" lon="-1.56376">
        <ele>70.09586</ele>
        <time>2021-12-14T08:03:57Z</time>
      </trkpt>
      <trkpt lat="47.25223" lon="-1.56379">
        <ele>70.20918</ele>
        <time>2021-12-14T08:04:02Z</time>
      </trkpt>
      <trkpt lat="47.25218" lon="-1.5638">
        <ele>70.37332</ele>
        <time>2021-12-14T08:04:07Z</time>
      </trkpt>
      <trkpt lat="47.25215" lon="-1.56387">
        <ele>70.664925</ele>
        <time>2021-12-14T08:04:13Z</time>
      </trkpt>
      <trkpt lat="47.25212" lon="-1.56393">
        <ele>70.641266</ele>
        <time>2021-12-14T08:04:18Z</time>
      </trkpt>
      <trkpt lat="47.25211" lon="-1.564">
        <ele>70.56166</ele>
        <time>2021-12-14T08:04:21Z</time>
      </trkpt>
      <trkpt lat="47.25207" lon="-1.56404">
        <ele>70.33751</ele>
        <time>2021-12-14T08:04:26Z</time>
      </trkpt>
      <trkpt lat="47.25203" lon="-1.56404">
        <ele>70.113914</ele>
        <time>2021-12-14T08:04:30Z</time>
      </trkpt>
      <trkpt lat="47.25197" lon="-1.56402">
        <ele>69.93749</ele>
        <time>2021-12-14T08:04:33Z</time>
      </trkpt>
      <trkpt lat="47.25192" lon="-1.56403">
        <ele>69.91051</ele>
        <time>2021-12-14T08:04:37Z</time>
      </trkpt>
      <trkpt lat="47.25187" lon="-1.56403">
        <ele>70.0072</ele>
        <time>2021-12-14T08:04:40Z</time>
      </trkpt>
      <trkpt lat="47.25183" lon="-1.56404">
        <ele>70.378136</ele>
        <time>2021-12-14T08:04:47Z</time>
      </trkpt>
      <trkpt lat="47.2518" lon="-1.56411">
        <ele>70.62437</ele>
        <time>2021-12-14T08:04:52Z</time>
      </trkpt>
      <trkpt lat="47.25181" lon="-1.56422">
        <ele>70.76849</ele>
        <time>2021-12-14T08:04:58Z</time>
      </trkpt>
      <trkpt lat="47.25181" lon="-1.56429">
        <ele>70.75169</ele>
        <time>2021-12-14T08:05:02Z</time>
      </trkpt>
      <trkpt lat="47.25183" lon="-1.56435">
        <ele>70.69704</ele>
        <time>2021-12-14T08:05:06Z</time>
      </trkpt>
      <trkpt lat="47.25184" lon="-1.56442">
        <ele>70.72039</ele>
        <time>2021-12-14T08:05:11Z</time>
      </trkpt>
      <trkpt lat="47.25183" lon="-1.5645">
        <ele>70.68086</ele>
        <time>2021-12-14T08:05:16Z</time>
      </trkpt>
      <trkpt lat="47.25182" lon="-1.56457">
        <ele>70.54518</ele>
        <time>2021-12-14T08:05:20Z</time>
      </trkpt>
      <trkpt lat="47.25182" lon="-1.56464">
        <ele>70.52009</ele>
        <time>2021-12-14T08:05:22Z</time>
      </trkpt>
      <trkpt lat="47.25182" lon="-1.56471">
        <ele>70.53611</ele>
        <time>2021-12-14T08:05:24Z</time>
      </trkpt>
      <trkpt lat="47.25181" lon="-1.56478">
        <ele>70.65698</ele>
        <time>2021-12-14T08:05:27Z</time>
      </trkpt>
      <trkpt lat="47.25179" lon="-1.56487">
        <ele>70.76344</ele>
        <time>2021-12-14T08:05:30Z</time>
      </trkpt>
      <trkpt lat="47.25177" lon="-1.56494">
        <ele>70.83817</ele>
        <time>2021-12-14T08:05:33Z</time>
      </trkpt>
      <trkpt lat="47.25175" lon="-1.565">
        <ele>71.05362</ele>
        <time>2021-12-14T08:05:38Z</time>
      </trkpt>
      <trkpt lat="47.2517" lon="-1.565">
        <ele>70.93446</ele>
        <time>2021-12-14T08:05:42Z</time>
      </trkpt>
      <trkpt lat="47.25165" lon="-1.56502">
        <ele>70.83468</ele>
        <time>2021-12-14T08:05:46Z</time>
      </trkpt>
      <trkpt lat="47.25157" lon="-1.56498">
        <ele>70.97003</ele>
        <time>2021-12-14T08:05:51Z</time>
      </trkpt>
      <trkpt lat="47.25151" lon="-1.56494">
        <ele>71.131195</ele>
        <time>2021-12-14T08:05:55Z</time>
      </trkpt>
      <trkpt lat="47.25146" lon="-1.56493">
        <ele>71.43959</ele>
        <time>2021-12-14T08:06:00Z</time>
      </trkpt>
      <trkpt lat="47.25141" lon="-1.56492">
        <ele>71.640915</ele>
        <time>2021-12-14T08:06:03Z</time>
      </trkpt>
      <trkpt lat="47.25135" lon="-1.56492">
        <ele>71.789734</ele>
        <time>2021-12-14T08:06:07Z</time>
      </trkpt>
      <trkpt lat="47.2513" lon="-1.56493">
        <ele>71.73056</ele>
        <time>2021-12-14T08:06:12Z</time>
      </trkpt>
      <trkpt lat="47.25126" lon="-1.56491">
        <ele>71.51999</ele>
        <time>2021-12-14T08:06:16Z</time>
      </trkpt>
      <trkpt lat="47.2512" lon="-1.56489">
        <ele>71.08748</ele>
        <time>2021-12-14T08:06:21Z</time>
      </trkpt>
      <trkpt lat="47.25116" lon="-1.56485">
        <ele>70.438805</ele>
        <time>2021-12-14T08:06:26Z</time>
      </trkpt>
      <trkpt lat="47.25113" lon="-1.56481">
        <ele>69.255585</ele>
        <time>2021-12-14T08:06:32Z</time>
      </trkpt>
      <trkpt lat="47.25108" lon="-1.56478">
        <ele>68.46455</ele>
        <time>2021-12-14T08:06:36Z</time>
      </trkpt>
      <trkpt lat="47.25102" lon="-1.56475">
        <ele>67.81514</ele>
        <time>2021-12-14T08:06:39Z</time>
      </trkpt>
      <trkpt lat="47.25097" lon="-1.5647">
        <ele>66.85962</ele>
        <time>2021-12-14T08:06:43Z</time>
      </trkpt>
      <trkpt lat="47.25094" lon="-1.56465">
        <ele>66.13152</ele>
        <time>2021-12-14T08:06:46Z</time>
      </trkpt>
      <trkpt lat="47.25088" lon="-1.5646">
        <ele>65.19138</ele>
        <time>2021-12-14T08:06:50Z</time>
      </trkpt>
      <trkpt lat="47.25083" lon="-1.56456">
        <ele>64.30346</ele>
        <time>2021-12-14T08:06:54Z</time>
      </trkpt>
      <trkpt lat="47.25078" lon="-1.56452">
        <ele>63.49542</ele>
        <time>2021-12-14T08:06:58Z</time>
      </trkpt>
      <trkpt lat="47.25074" lon="-1.56449">
        <ele>62.925087</ele>
        <time>2021-12-14T08:07:01Z</time>
      </trkpt>
      <trkpt lat="47.25068" lon="-1.56442">
        <ele>62.28781</ele>
        <time>2021-12-14T08:07:05Z</time>
      </trkpt>
      <trkpt lat="47.25063" lon="-1.56438">
        <ele>61.771393</ele>
        <time>2021-12-14T08:07:09Z</time>
      </trkpt>
      <trkpt lat="47.25059" lon="-1.56435">
        <ele>61.254105</ele>
        <time>2021-12-14T08:07:13Z</time>
      </trkpt>
      <trkpt lat="47.25054" lon="-1.56432">
        <ele>60.725822</ele>
        <time>2021-12-14T08:07:18Z</time>
      </trkpt>
      <trkpt lat="47.2505" lon="-1.56427">
        <ele>60.49222</ele>
        <time>2021-12-14T08:07:22Z</time>
      </trkpt>
      <trkpt lat="47.25045" lon="-1.56423">
        <ele>60.543434</ele>
        <time>2021-12-14T08:07:26Z</time>
      </trkpt>
      <trkpt lat="47.2504" lon="-1.56418">
        <ele>60.587215</ele>
        <time>2021-12-14T08:07:32Z</time>
      </trkpt>
      <trkpt lat="47.25036" lon="-1.56414">
        <ele>60.711155</ele>
        <time>2021-12-14T08:07:34Z</time>
      </trkpt>
      <trkpt lat="47.25031" lon="-1.5641">
        <ele>61.047688</ele>
        <time>2021-12-14T08:07:37Z</time>
      </trkpt>
      <trkpt lat="47.25026" lon="-1.56405">
        <ele>61.453148</ele>
        <time>2021-12-14T08:07:40Z</time>
      </trkpt>
      <trkpt lat="47.25021" lon="-1.56401">
        <ele>61.91362</ele>
        <time>2021-12-14T08:07:43Z</time>
      </trkpt>
      <trkpt lat="47.25016" lon="-1.56397">
        <ele>62.37005</ele>
        <time>2021-12-14T08:07:46Z</time>
      </trkpt>
      <trkpt lat="47.25011" lon="-1.56394">
        <ele>62.82384</ele>
        <time>2021-12-14T08:07:49Z</time>
      </trkpt>
      <trkpt lat="47.25007" lon="-1.5639">
        <ele>63.301506</ele>
        <time>2021-12-14T08:07:52Z</time>
      </trkpt>
      <trkpt lat="47.25002" lon="-1.56386">
        <ele>64.01168</ele>
        <time>2021-12-14T08:07:56Z</time>
      </trkpt>
      <trkpt lat="47.24998" lon="-1.56383">
        <ele>64.68342</ele>
        <time>2021-12-14T08:08:00Z</time>
      </trkpt>
      <trkpt lat="47.24993" lon="-1.5638">
        <ele>65.17954</ele>
        <time>2021-12-14T08:08:03Z</time>
      </trkpt>
      <trkpt lat="47.24988" lon="-1.56377">
        <ele>65.95328</ele>
        <time>2021-12-14T08:08:08Z</time>
      </trkpt>
      <trkpt lat="47.24983" lon="-1.56375">
        <ele>66.51194</ele>
        <time>2021-12-14T08:08:12Z</time>
      </trkpt>
      <trkpt lat="47.24978" lon="-1.56374">
        <ele>67.06961</ele>
        <time>2021-12-14T08:08:16Z</time>
      </trkpt>
      <trkpt lat="47.24973" lon="-1.56372">
        <ele>67.587875</ele>
        <time>2021-12-14T08:08:20Z</time>
      </trkpt>
      <trkpt lat="47.24967" lon="-1.5637">
        <ele>68.029564</ele>
        <time>2021-12-14T08:08:24Z</time>
      </trkpt>
      <trkpt lat="47.24962" lon="-1.56368">
        <ele>68.45388</ele>
        <time>2021-12-14T08:08:28Z</time>
      </trkpt>
      <trkpt lat="47.24957" lon="-1.56366">
        <ele>68.95091</ele>
        <time>2021-12-14T08:08:32Z</time>
      </trkpt>
      <trkpt lat="47.24951" lon="-1.56363">
        <ele>69.52489</ele>
        <time>2021-12-14T08:08:36Z</time>
      </trkpt>
      <trkpt lat="47.24946" lon="-1.5636">
        <ele>70.1083</ele>
        <time>2021-12-14T08:08:41Z</time>
      </trkpt>
      <trkpt lat="47.24941" lon="-1.56357">
        <ele>70.519516</ele>
        <time>2021-12-14T08:08:45Z</time>
      </trkpt>
      <trkpt lat="47.24936" lon="-1.56354">
        <ele>70.861046</ele>
        <time>2021-12-14T08:08:49Z</time>
      </trkpt>
      <trkpt lat="47.24931" lon="-1.56352">
        <ele>71.258354</ele>
        <time>2021-12-14T08:08:54Z</time>
      </trkpt>
      <trkpt lat="47.24925" lon="-1.56351">
        <ele>71.61237</ele>
        <time>2021-12-14T08:08:58Z</time>
      </trkpt>
      <trkpt lat="47.24921" lon="-1.56349">
        <ele>71.86743</ele>
        <time>2021-12-14T08:09:01Z</time>
      </trkpt>
      <trkpt lat="47.24916" lon="-1.56347">
        <ele>72.17149</ele>
        <time>2021-12-14T08:09:05Z</time>
      </trkpt>
      <trkpt lat="47.2491" lon="-1.56346">
        <ele>72.39698</ele>
        <time>2021-12-14T08:09:09Z</time>
      </trkpt>
      <trkpt lat="47.24906" lon="-1.56342">
        <ele>72.58332</ele>
        <time>2021-12-14T08:09:13Z</time>
      </trkpt>
      <trkpt lat="47.249" lon="-1.5634">
        <ele>72.65884</ele>
        <time>2021-12-14T08:09:17Z</time>
      </trkpt>
      <trkpt lat="47.24896" lon="-1.56338">
        <ele>72.637596</ele>
        <time>2021-12-14T08:09:21Z</time>
      </trkpt>
      <trkpt lat="47.2489" lon="-1.56334">
        <ele>72.56974</ele>
        <time>2021-12-14T08:09:25Z</time>
      </trkpt>
      <trkpt lat="47.24886" lon="-1.56332">
        <ele>72.462036</ele>
        <time>2021-12-14T08:09:29Z</time>
      </trkpt>
      <trkpt lat="47.2488" lon="-1.56329">
        <ele>72.35376</ele>
        <time>2021-12-14T08:09:33Z</time>
      </trkpt>
      <trkpt lat="47.24875" lon="-1.56326">
        <ele>72.242035</ele>
        <time>2021-12-14T08:09:37Z</time>
      </trkpt>
      <trkpt lat="47.24871" lon="-1.56323">
        <ele>72.15641</ele>
        <time>2021-12-14T08:09:41Z</time>
      </trkpt>
      <trkpt lat="47.24866" lon="-1.56321">
        <ele>72.15709</ele>
        <time>2021-12-14T08:09:44Z</time>
      </trkpt>
      <trkpt lat="47.24861" lon="-1.56318">
        <ele>72.190346</ele>
        <time>2021-12-14T08:09:48Z</time>
      </trkpt>
      <trkpt lat="47.24857" lon="-1.56315">
        <ele>72.19856</ele>
        <time>2021-12-14T08:09:52Z</time>
      </trkpt>
      <trkpt lat="47.24852" lon="-1.56313">
        <ele>72.266396</ele>
        <time>2021-12-14T08:09:56Z</time>
      </trkpt>
      <trkpt lat="47.24847" lon="-1.56309">
        <ele>72.44011</ele>
        <time>2021-12-14T08:10:00Z</time>
      </trkpt>
      <trkpt lat="47.24843" lon="-1.56305">
        <ele>72.63275</ele>
        <time>2021-12-14T08:10:03Z</time>
      </trkpt>
      <trkpt lat="47.24837" lon="-1.56301">
        <ele>73.016365</ele>
        <time>2021-12-14T08:10:07Z</time>
      </trkpt>
      <trkpt lat="47.24833" lon="-1.56298">
        <ele>73.37239</ele>
        <time>2021-12-14T08:10:10Z</time>
      </trkpt>
      <trkpt lat="47.24828" lon="-1.56294">
        <ele>73.849556</ele>
        <time>2021-12-14T08:10:14Z</time>
      </trkpt>
      <trkpt lat="47.24823" lon="-1.56291">
        <ele>74.31</ele>
        <time>2021-12-14T08:10:18Z</time>
      </trkpt>
      <trkpt lat="47.24818" lon="-1.56288">
        <ele>74.84167</ele>
        <time>2021-12-14T08:10:23Z</time>
      </trkpt>
      <trkpt lat="47.24813" lon="-1.56284">
        <ele>75.25218</ele>
        <time>2021-12-14T08:10:27Z</time>
      </trkpt>
      <trkpt lat="47.24808" lon="-1.56281">
        <ele>75.57911</ele>
        <time>2021-12-14T08:10:31Z</time>
      </trkpt>
      <trkpt lat="47.24803" lon="-1.56277">
        <ele>75.85127</ele>
        <time>2021-12-14T08:10:35Z</time>
      </trkpt>
      <trkpt lat="47.24799" lon="-1.56275">
        <ele>76.13887</ele>
        <time>2021-12-14T08:10:38Z</time>
      </trkpt>
      <trkpt lat="47.24794" lon="-1.56272">
        <ele>76.44624</ele>
        <time>2021-12-14T08:10:42Z</time>
      </trkpt>
      <trkpt lat="47.24789" lon="-1.5627">
        <ele>76.77447</ele>
        <time>2021-12-14T08:10:46Z</time>
      </trkpt>
      <trkpt lat="47.24785" lon="-1.56267">
        <ele>77.04265</ele>
        <time>2021-12-14T08:10:49Z</time>
      </trkpt>
      <trkpt lat="47.2478" lon="-1.56263">
        <ele>77.45297</ele>
        <time>2021-12-14T08:10:53Z</time>
      </trkpt>
      <trkpt lat="47.24775" lon="-1.5626">
        <ele>77.89909</ele>
        <time>2021-12-14T08:10:57Z</time>
      </trkpt>
      <trkpt lat="47.2477" lon="-1.56257">
        <ele>78.3925</ele>
        <time>2021-12-14T08:11:01Z</time>
      </trkpt>
      <trkpt lat="47.24769" lon="-1.56256">
        <ele>78.51233</ele>
        <time>2021-12-14T08:11:02Z</time>
      </trkpt>
      <trkpt lat="47.24767" lon="-1.56255">
        <ele>78.63544</ele>
        <time>2021-12-14T08:11:03Z</time>
      </trkpt>
      <trkpt lat="47.24766" lon="-1.56255">
        <ele>78.75523</ele>
        <time>2021-12-14T08:11:04Z</time>
      </trkpt>
      <trkpt lat="47.24765" lon="-1.56254">
        <ele>78.87401</ele>
        <time>2021-12-14T08:11:05Z</time>
      </trkpt>
      <trkpt lat="47.24764" lon="-1.56253">
        <ele>78.99214</ele>
        <time>2021-12-14T08:11:06Z</time>
      </trkpt>
      <trkpt lat="47.24763" lon="-1.56252">
        <ele>79.09897</ele>
        <time>2021-12-14T08:11:07Z</time>
      </trkpt>
      <trkpt lat="47.24762" lon="-1.56251">
        <ele>79.20113</ele>
        <time>2021-12-14T08:11:08Z</time>
      </trkpt>
      <trkpt lat="47.2476" lon="-1.5625">
        <ele>79.30218</ele>
        <time>2021-12-14T08:11:09Z</time>
      </trkpt>
      <trkpt lat="47.24759" lon="-1.56249">
        <ele>79.4027</ele>
        <time>2021-12-14T08:11:10Z</time>
      </trkpt>
      <trkpt lat="47.24758" lon="-1.56248">
        <ele>79.49906</ele>
        <time>2021-12-14T08:11:11Z</time>
      </trkpt>
      <trkpt lat="47.24757" lon="-1.56248">
        <ele>79.58505</ele>
        <time>2021-12-14T08:11:12Z</time>
      </trkpt>
      <trkpt lat="47.24756" lon="-1.56247">
        <ele>79.66298</ele>
        <time>2021-12-14T08:11:13Z</time>
      </trkpt>
      <trkpt lat="47.24755" lon="-1.56246">
        <ele>79.732864</ele>
        <time>2021-12-14T08:11:14Z</time>
      </trkpt>
      <trkpt lat="47.24753" lon="-1.56246">
        <ele>79.794685</ele>
        <time>2021-12-14T08:11:15Z</time>
      </trkpt>
      <trkpt lat="47.24752" lon="-1.56245">
        <ele>79.86346</ele>
        <time>2021-12-14T08:11:16Z</time>
      </trkpt>
      <trkpt lat="47.24751" lon="-1.56244">
        <ele>79.94884</ele>
        <time>2021-12-14T08:11:17Z</time>
      </trkpt>
      <trkpt lat="47.24749" lon="-1.56243">
        <ele>80.054985</ele>
        <time>2021-12-14T08:11:18Z</time>
      </trkpt>
      <trkpt lat="47.24748" lon="-1.56243">
        <ele>80.17283</ele>
        <time>2021-12-14T08:11:19Z</time>
      </trkpt>
      <trkpt lat="47.24746" lon="-1.56242">
        <ele>80.29418</ele>
        <time>2021-12-14T08:11:20Z</time>
      </trkpt>
      <trkpt lat="47.24745" lon="-1.56241">
        <ele>80.41184</ele>
        <time>2021-12-14T08:11:21Z</time>
      </trkpt>
      <trkpt lat="47.24744" lon="-1.5624">
        <ele>80.52661</ele>
        <time>2021-12-14T08:11:22Z</time>
      </trkpt>
      <trkpt lat="47.24742" lon="-1.56239">
        <ele>80.64161</ele>
        <time>2021-12-14T08:11:23Z</time>
      </trkpt>
      <trkpt lat="47.2474" lon="-1.56238">
        <ele>80.74136</ele>
        <time>2021-12-14T08:11:24Z</time>
      </trkpt>
      <trkpt lat="47.2474" lon="-1.56237">
        <ele>80.83222</ele>
        <time>2021-12-14T08:11:25Z</time>
      </trkpt>
      <trkpt lat="47.24738" lon="-1.56236">
        <ele>80.91036</ele>
        <time>2021-12-14T08:11:26Z</time>
      </trkpt>
      <trkpt lat="47.24736" lon="-1.56234">
        <ele>80.975235</ele>
        <time>2021-12-14T08:11:27Z</time>
      </trkpt>
      <trkpt lat="47.24735" lon="-1.56234">
        <ele>81.014404</ele>
        <time>2021-12-14T08:11:28Z</time>
      </trkpt>
      <trkpt lat="47.24734" lon="-1.56233">
        <ele>81.044395</ele>
        <time>2021-12-14T08:11:29Z</time>
      </trkpt>
      <trkpt lat="47.24733" lon="-1.56232">
        <ele>81.06548</ele>
        <time>2021-12-14T08:11:30Z</time>
      </trkpt>
      <trkpt lat="47.24731" lon="-1.56231">
        <ele>81.08355</ele>
        <time>2021-12-14T08:11:31Z</time>
      </trkpt>
      <trkpt lat="47.24731" lon="-1.5623">
        <ele>81.08989</ele>
        <time>2021-12-14T08:11:32Z</time>
      </trkpt>
      <trkpt lat="47.24729" lon="-1.56229">
        <ele>81.10644</ele>
        <time>2021-12-14T08:11:33Z</time>
      </trkpt>
      <trkpt lat="47.24728" lon="-1.56228">
        <ele>81.13587</ele>
        <time>2021-12-14T08:11:34Z</time>
      </trkpt>
      <trkpt lat="47.24727" lon="-1.56227">
        <ele>81.16572</ele>
        <time>2021-12-14T08:11:35Z</time>
      </trkpt>
      <trkpt lat="47.24726" lon="-1.56226">
        <ele>81.1754</ele>
        <time>2021-12-14T08:11:36Z</time>
      </trkpt>
      <trkpt lat="47.24725" lon="-1.56225">
        <ele>81.178986</ele>
        <time>2021-12-14T08:11:37Z</time>
      </trkpt>
      <trkpt lat="47.24723" lon="-1.56225">
        <ele>81.1687</ele>
        <time>2021-12-14T08:11:38Z</time>
      </trkpt>
      <trkpt lat="47.24719" lon="-1.56223">
        <ele>81.17487</ele>
        <time>2021-12-14T08:11:42Z</time>
      </trkpt>
      <trkpt lat="47.24714" lon="-1.56219">
        <ele>81.212776</ele>
        <time>2021-12-14T08:11:46Z</time>
      </trkpt>
      <trkpt lat="47.24713" lon="-1.56218">
        <ele>81.21126</ele>
        <time>2021-12-14T08:11:47Z</time>
      </trkpt>
      <trkpt lat="47.24708" lon="-1.56214">
        <ele>81.17135</ele>
        <time>2021-12-14T08:11:51Z</time>
      </trkpt>
      <trkpt lat="47.24704" lon="-1.56211">
        <ele>81.151184</ele>
        <time>2021-12-14T08:11:55Z</time>
      </trkpt>
      <trkpt lat="47.24699" lon="-1.56208">
        <ele>81.12432</ele>
        <time>2021-12-14T08:11:59Z</time>
      </trkpt>
      <trkpt lat="47.24694" lon="-1.56206">
        <ele>81.11211</ele>
        <time>2021-12-14T08:12:03Z</time>
      </trkpt>
      <trkpt lat="47.2469" lon="-1.56203">
        <ele>81.156364</ele>
        <time>2021-12-14T08:12:06Z</time>
      </trkpt>
      <trkpt lat="47.24685" lon="-1.562">
        <ele>81.193886</ele>
        <time>2021-12-14T08:12:10Z</time>
      </trkpt>
      <trkpt lat="47.2468" lon="-1.56196">
        <ele>81.21836</ele>
        <time>2021-12-14T08:12:14Z</time>
      </trkpt>
      <trkpt lat="47.24678" lon="-1.56195">
        <ele>81.23537</ele>
        <time>2021-12-14T08:12:15Z</time>
      </trkpt>
      <trkpt lat="47.24677" lon="-1.56195">
        <ele>81.25754</ele>
        <time>2021-12-14T08:12:16Z</time>
      </trkpt>
      <trkpt lat="47.24676" lon="-1.56194">
        <ele>81.28841</ele>
        <time>2021-12-14T08:12:17Z</time>
      </trkpt>
      <trkpt lat="47.24675" lon="-1.56194">
        <ele>81.30553</ele>
        <time>2021-12-14T08:12:18Z</time>
      </trkpt>
      <trkpt lat="47.24674" lon="-1.56193">
        <ele>81.33224</ele>
        <time>2021-12-14T08:12:19Z</time>
      </trkpt>
      <trkpt lat="47.24673" lon="-1.56193">
        <ele>81.361885</ele>
        <time>2021-12-14T08:12:20Z</time>
      </trkpt>
      <trkpt lat="47.24672" lon="-1.56192">
        <ele>81.38519</ele>
        <time>2021-12-14T08:12:21Z</time>
      </trkpt>
      <trkpt lat="47.2467" lon="-1.56191">
        <ele>81.41149</ele>
        <time>2021-12-14T08:12:22Z</time>
      </trkpt>
      <trkpt lat="47.24669" lon="-1.5619">
        <ele>81.43836</ele>
        <time>2021-12-14T08:12:23Z</time>
      </trkpt>
      <trkpt lat="47.24665" lon="-1.56189">
        <ele>81.48636</ele>
        <time>2021-12-14T08:12:25Z</time>
      </trkpt>
      <trkpt lat="47.24665" lon="-1.56189">
        <ele>81.48636</ele>
        <time>2021-12-14T08:12:25Z</time>
      </trkpt>
      <trkpt lat="47.24661" lon="-1.56186">
        <ele>81.61259</ele>
        <time>2021-12-14T08:12:27Z</time>
      </trkpt>
      <trkpt lat="47.24661" lon="-1.56186">
        <ele>81.61259</ele>
        <time>2021-12-14T08:12:27Z</time>
      </trkpt>
      <trkpt lat="47.24656" lon="-1.56182">
        <ele>81.80467</ele>
        <time>2021-12-14T08:12:30Z</time>
      </trkpt>
      <trkpt lat="47.24656" lon="-1.56182">
        <ele>81.80467</ele>
        <time>2021-12-14T08:12:30Z</time>
      </trkpt>
      <trkpt lat="47.24651" lon="-1.56179">
        <ele>82.181526</ele>
        <time>2021-12-14T08:12:35Z</time>
      </trkpt>
      <trkpt lat="47.24648" lon="-1.56176">
        <ele>82.36519</ele>
        <time>2021-12-14T08:12:36Z</time>
      </trkpt>
      <trkpt lat="47.24648" lon="-1.56176">
        <ele>82.36519</ele>
        <time>2021-12-14T08:12:36Z</time>
      </trkpt>
      <trkpt lat="47.24645" lon="-1.56171">
        <ele>82.50407</ele>
        <time>2021-12-14T08:12:41Z</time>
      </trkpt>
      <trkpt lat="47.24644" lon="-1.56171">
        <ele>82.49012</ele>
        <time>2021-12-14T08:12:42Z</time>
      </trkpt>
      <trkpt lat="47.2464" lon="-1.56167">
        <ele>82.38329</ele>
        <time>2021-12-14T08:12:45Z</time>
      </trkpt>
      <trkpt lat="47.24635" lon="-1.56162">
        <ele>82.16095</ele>
        <time>2021-12-14T08:12:50Z</time>
      </trkpt>
      <trkpt lat="47.24631" lon="-1.56158">
        <ele>81.958084</ele>
        <time>2021-12-14T08:12:54Z</time>
      </trkpt>
      <trkpt lat="47.24626" lon="-1.56152">
        <ele>81.67058</ele>
        <time>2021-12-14T08:12:58Z</time>
      </trkpt>
      <trkpt lat="47.24622" lon="-1.56148">
        <ele>81.5769</ele>
        <time>2021-12-14T08:13:01Z</time>
      </trkpt>
      <trkpt lat="47.24616" lon="-1.56143">
        <ele>81.500946</ele>
        <time>2021-12-14T08:13:05Z</time>
      </trkpt>
      <trkpt lat="47.24612" lon="-1.56138">
        <ele>81.52467</ele>
        <time>2021-12-14T08:13:09Z</time>
      </trkpt>
      <trkpt lat="47.24608" lon="-1.56131">
        <ele>81.615005</ele>
        <time>2021-12-14T08:13:12Z</time>
      </trkpt>
      <trkpt lat="47.24605" lon="-1.56125">
        <ele>81.68262</ele>
        <time>2021-12-14T08:13:16Z</time>
      </trkpt>
      <trkpt lat="47.24601" lon="-1.56119">
        <ele>81.78808</ele>
        <time>2021-12-14T08:13:19Z</time>
      </trkpt>
      <trkpt lat="47.24597" lon="-1.56115">
        <ele>81.926285</ele>
        <time>2021-12-14T08:13:24Z</time>
      </trkpt>
      <trkpt lat="47.24592" lon="-1.5611">
        <ele>81.87791</ele>
        <time>2021-12-14T08:13:29Z</time>
      </trkpt>
      <trkpt lat="47.24588" lon="-1.56108">
        <ele>81.68963</ele>
        <time>2021-12-14T08:13:34Z</time>
      </trkpt>
      <trkpt lat="47.24583" lon="-1.56105">
        <ele>81.45169</ele>
        <time>2021-12-14T08:13:39Z</time>
      </trkpt>
      <trkpt lat="47.24577" lon="-1.56104">
        <ele>81.24134</ele>
        <time>2021-12-14T08:13:43Z</time>
      </trkpt>
      <trkpt lat="47.24573" lon="-1.56104">
        <ele>80.74942</ele>
        <time>2021-12-14T08:13:49Z</time>
      </trkpt>
      <trkpt lat="47.24568" lon="-1.56105">
        <ele>80.267624</ele>
        <time>2021-12-14T08:13:53Z</time>
      </trkpt>
      <trkpt lat="47.24563" lon="-1.56106">
        <ele>79.72615</ele>
        <time>2021-12-14T08:13:58Z</time>
      </trkpt>
      <trkpt lat="47.24558" lon="-1.56109">
        <ele>79.32274</ele>
        <time>2021-12-14T08:14:02Z</time>
      </trkpt>
      <trkpt lat="47.24553" lon="-1.56111">
        <ele>78.81849</ele>
        <time>2021-12-14T08:14:07Z</time>
      </trkpt>
      <trkpt lat="47.24548" lon="-1.56113">
        <ele>78.60305</ele>
        <time>2021-12-14T08:14:11Z</time>
      </trkpt>
      <trkpt lat="47.24543" lon="-1.56114">
        <ele>78.409294</ele>
        <time>2021-12-14T08:14:15Z</time>
      </trkpt>
      <trkpt lat="47.24539" lon="-1.56116">
        <ele>78.20893</ele>
        <time>2021-12-14T08:14:18Z</time>
      </trkpt>
      <trkpt lat="47.24534" lon="-1.56117">
        <ele>78.00524</ele>
        <time>2021-12-14T08:14:23Z</time>
      </trkpt>
      <trkpt lat="47.24529" lon="-1.56117">
        <ele>77.95994</ele>
        <time>2021-12-14T08:14:26Z</time>
      </trkpt>
      <trkpt lat="47.24525" lon="-1.56118">
        <ele>77.96109</ele>
        <time>2021-12-14T08:14:29Z</time>
      </trkpt>
      <trkpt lat="47.2452" lon="-1.56118">
        <ele>78.017685</ele>
        <time>2021-12-14T08:14:33Z</time>
      </trkpt>
      <trkpt lat="47.24515" lon="-1.56118">
        <ele>78.13739</ele>
        <time>2021-12-14T08:14:36Z</time>
      </trkpt>
      <trkpt lat="47.24509" lon="-1.5612">
        <ele>78.29533</ele>
        <time>2021-12-14T08:14:40Z</time>
      </trkpt>
      <trkpt lat="47.24504" lon="-1.56119">
        <ele>78.4226</ele>
        <time>2021-12-14T08:14:44Z</time>
      </trkpt>
      <trkpt lat="47.24498" lon="-1.56119">
        <ele>78.558846</ele>
        <time>2021-12-14T08:14:47Z</time>
      </trkpt>
      <trkpt lat="47.24493" lon="-1.5612">
        <ele>78.761734</ele>
        <time>2021-12-14T08:14:50Z</time>
      </trkpt>
      <trkpt lat="47.24488" lon="-1.56122">
        <ele>79.427505</ele>
        <time>2021-12-14T08:14:56Z</time>
      </trkpt>
      <trkpt lat="47.24484" lon="-1.56125">
        <ele>79.88774</ele>
        <time>2021-12-14T08:15:01Z</time>
      </trkpt>
      <trkpt lat="47.24479" lon="-1.56126">
        <ele>79.9852</ele>
        <time>2021-12-14T08:15:06Z</time>
      </trkpt>
      <trkpt lat="47.24475" lon="-1.56129">
        <ele>79.34882</ele>
        <time>2021-12-14T08:15:14Z</time>
      </trkpt>
      <trkpt lat="47.24475" lon="-1.56135">
        <ele>79.18332</ele>
        <time>2021-12-14T08:15:17Z</time>
      </trkpt>
      <trkpt lat="47.24476" lon="-1.56145">
        <ele>79.00629</ele>
        <time>2021-12-14T08:15:20Z</time>
      </trkpt>
      <trkpt lat="47.24476" lon="-1.56154">
        <ele>78.948364</ele>
        <time>2021-12-14T08:15:23Z</time>
      </trkpt>
      <trkpt lat="47.24476" lon="-1.56161">
        <ele>78.822266</ele>
        <time>2021-12-14T08:15:27Z</time>
      </trkpt>
      <trkpt lat="47.24478" lon="-1.56167">
        <ele>78.585106</ele>
        <time>2021-12-14T08:15:32Z</time>
      </trkpt>
      <trkpt lat="47.24482" lon="-1.56173">
        <ele>77.93349</ele>
        <time>2021-12-14T08:15:37Z</time>
      </trkpt>
      <trkpt lat="47.24484" lon="-1.56179">
        <ele>77.47239</ele>
        <time>2021-12-14T08:15:40Z</time>
      </trkpt>
      <trkpt lat="47.24485" lon="-1.56186">
        <ele>76.779106</ele>
        <time>2021-12-14T08:15:44Z</time>
      </trkpt>
      <trkpt lat="47.24487" lon="-1.56194">
        <ele>76.17681</ele>
        <time>2021-12-14T08:15:48Z</time>
      </trkpt>
      <trkpt lat="47.24489" lon="-1.562">
        <ele>75.854256</ele>
        <time>2021-12-14T08:15:51Z</time>
      </trkpt>
      <trkpt lat="47.2449" lon="-1.56208">
        <ele>75.4679</ele>
        <time>2021-12-14T08:15:55Z</time>
      </trkpt>
      <trkpt lat="47.24491" lon="-1.56217">
        <ele>74.93566</ele>
        <time>2021-12-14T08:16:00Z</time>
      </trkpt>
      <trkpt lat="47.24492" lon="-1.56224">
        <ele>74.65369</ele>
        <time>2021-12-14T08:16:03Z</time>
      </trkpt>
      <trkpt lat="47.24493" lon="-1.56232">
        <ele>74.14888</ele>
        <time>2021-12-14T08:16:08Z</time>
      </trkpt>
      <trkpt lat="47.24492" lon="-1.5624">
        <ele>73.70914</ele>
        <time>2021-12-14T08:16:12Z</time>
      </trkpt>
      <trkpt lat="47.24492" lon="-1.56247">
        <ele>73.30695</ele>
        <time>2021-12-14T08:16:16Z</time>
      </trkpt>
      <trkpt lat="47.24493" lon="-1.56255">
        <ele>73.060776</ele>
        <time>2021-12-14T08:16:21Z</time>
      </trkpt>
      <trkpt lat="47.24492" lon="-1.56263">
        <ele>72.93261</ele>
        <time>2021-12-14T08:16:25Z</time>
      </trkpt>
      <trkpt lat="47.24492" lon="-1.56271">
        <ele>72.939545</ele>
        <time>2021-12-14T08:16:30Z</time>
      </trkpt>
      <trkpt lat="47.24491" lon="-1.5628">
        <ele>72.97706</ele>
        <time>2021-12-14T08:16:34Z</time>
      </trkpt>
      <trkpt lat="47.24491" lon="-1.56287">
        <ele>72.97994</ele>
        <time>2021-12-14T08:16:37Z</time>
      </trkpt>
      <trkpt lat="47.24489" lon="-1.56294">
        <ele>73.03188</ele>
        <time>2021-12-14T08:16:42Z</time>
      </trkpt>
      <trkpt lat="47.24489" lon="-1.56301">
        <ele>73.034035</ele>
        <time>2021-12-14T08:16:46Z</time>
      </trkpt>
      <trkpt lat="47.24488" lon="-1.56309">
        <ele>73.23689</ele>
        <time>2021-12-14T08:16:50Z</time>
      </trkpt>
      <trkpt lat="47.24486" lon="-1.56315">
        <ele>73.521545</ele>
        <time>2021-12-14T08:16:55Z</time>
      </trkpt>
      <trkpt lat="47.24485" lon="-1.56323">
        <ele>73.62967</ele>
        <time>2021-12-14T08:16:59Z</time>
      </trkpt>
      <trkpt lat="47.24484" lon="-1.5633">
        <ele>73.65382</ele>
        <time>2021-12-14T08:17:02Z</time>
      </trkpt>
      <trkpt lat="47.24482" lon="-1.56336">
        <ele>73.54928</ele>
        <time>2021-12-14T08:17:06Z</time>
      </trkpt>
      <trkpt lat="47.24482" lon="-1.56344">
        <ele>73.479744</ele>
        <time>2021-12-14T08:17:10Z</time>
      </trkpt>
      <trkpt lat="47.24479" lon="-1.56349">
        <ele>73.32652</ele>
        <time>2021-12-14T08:17:16Z</time>
      </trkpt>
      <trkpt lat="47.24476" lon="-1.56355">
        <ele>72.9969</ele>
        <time>2021-12-14T08:17:22Z</time>
      </trkpt>
      <trkpt lat="47.24474" lon="-1.5636">
        <ele>72.554054</ele>
        <time>2021-12-14T08:17:29Z</time>
      </trkpt>
      <trkpt lat="47.24471" lon="-1.56365">
        <ele>72.26193</ele>
        <time>2021-12-14T08:17:34Z</time>
      </trkpt>
      <trkpt lat="47.2447" lon="-1.56372">
        <ele>71.99838</ele>
        <time>2021-12-14T08:17:41Z</time>
      </trkpt>
      <trkpt lat="47.2447" lon="-1.56378">
        <ele>71.88434</ele>
        <time>2021-12-14T08:17:45Z</time>
      </trkpt>
      <trkpt lat="47.24469" lon="-1.56386">
        <ele>71.68119</ele>
        <time>2021-12-14T08:17:49Z</time>
      </trkpt>
      <trkpt lat="47.24468" lon="-1.56393">
        <ele>71.31414</ele>
        <time>2021-12-14T08:17:54Z</time>
      </trkpt>
      <trkpt lat="47.24466" lon="-1.564">
        <ele>71.17441</ele>
        <time>2021-12-14T08:17:58Z</time>
      </trkpt>
      <trkpt lat="47.24464" lon="-1.56406">
        <ele>71.04442</ele>
        <time>2021-12-14T08:18:05Z</time>
      </trkpt>
      <trkpt lat="47.24463" lon="-1.56414">
        <ele>70.822044</ele>
        <time>2021-12-14T08:18:10Z</time>
      </trkpt>
      <trkpt lat="47.24463" lon="-1.56421">
        <ele>70.3349</ele>
        <time>2021-12-14T08:18:15Z</time>
      </trkpt>
      <trkpt lat="47.24461" lon="-1.56429">
        <ele>69.91248</ele>
        <time>2021-12-14T08:18:19Z</time>
      </trkpt>
      <trkpt lat="47.2446" lon="-1.56436">
        <ele>69.72903</ele>
        <time>2021-12-14T08:18:21Z</time>
      </trkpt>
      <trkpt lat="47.2446" lon="-1.56444">
        <ele>69.071175</ele>
        <time>2021-12-14T08:18:26Z</time>
      </trkpt>
      <trkpt lat="47.24458" lon="-1.56452">
        <ele>68.5451</ele>
        <time>2021-12-14T08:18:32Z</time>
      </trkpt>
      <trkpt lat="47.2446" lon="-1.56458">
        <ele>68.01224</ele>
        <time>2021-12-14T08:18:36Z</time>
      </trkpt>
      <trkpt lat="47.24459" lon="-1.56467">
        <ele>67.50757</ele>
        <time>2021-12-14T08:18:40Z</time>
      </trkpt>
      <trkpt lat="47.24461" lon="-1.56475">
        <ele>66.98519</ele>
        <time>2021-12-14T08:18:44Z</time>
      </trkpt>
      <trkpt lat="47.24464" lon="-1.56483">
        <ele>66.252914</ele>
        <time>2021-12-14T08:18:49Z</time>
      </trkpt>
      <trkpt lat="47.24466" lon="-1.5649">
        <ele>65.70831</ele>
        <time>2021-12-14T08:18:53Z</time>
      </trkpt>
      <trkpt lat="47.24469" lon="-1.56496">
        <ele>65.112755</ele>
        <time>2021-12-14T08:18:59Z</time>
      </trkpt>
      <trkpt lat="47.24466" lon="-1.5649">
        <ele>64.001236</ele>
        <time>2021-12-14T08:19:09Z</time>
      </trkpt>
      <trkpt lat="47.24464" lon="-1.56485">
        <ele>63.279808</ele>
        <time>2021-12-14T08:19:13Z</time>
      </trkpt>
      <trkpt lat="47.2446" lon="-1.56481">
        <ele>62.619686</ele>
        <time>2021-12-14T08:19:17Z</time>
      </trkpt>
      <trkpt lat="47.24456" lon="-1.56476">
        <ele>61.944485</ele>
        <time>2021-12-14T08:19:20Z</time>
      </trkpt>
      <trkpt lat="47.24452" lon="-1.56473">
        <ele>61.422523</ele>
        <time>2021-12-14T08:19:22Z</time>
      </trkpt>
      <trkpt lat="47.24447" lon="-1.56469">
        <ele>60.665718</ele>
        <time>2021-12-14T08:19:25Z</time>
      </trkpt>
      <trkpt lat="47.24442" lon="-1.56468">
        <ele>59.996956</ele>
        <time>2021-12-14T08:19:28Z</time>
      </trkpt>
      <trkpt lat="47.24437" lon="-1.56469">
        <ele>59.264996</ele>
        <time>2021-12-14T08:19:32Z</time>
      </trkpt>
      <trkpt lat="47.24431" lon="-1.5647">
        <ele>58.546883</ele>
        <time>2021-12-14T08:19:36Z</time>
      </trkpt>
      <trkpt lat="47.24426" lon="-1.56471">
        <ele>57.94069</ele>
        <time>2021-12-14T08:19:40Z</time>
      </trkpt>
      <trkpt lat="47.24421" lon="-1.56473">
        <ele>57.517483</ele>
        <time>2021-12-14T08:19:43Z</time>
      </trkpt>
      <trkpt lat="47.24416" lon="-1.56477">
        <ele>57.037777</ele>
        <time>2021-12-14T08:19:47Z</time>
      </trkpt>
      <trkpt lat="47.24413" lon="-1.56482">
        <ele>56.79841</ele>
        <time>2021-12-14T08:19:50Z</time>
      </trkpt>
      <trkpt lat="47.2441" lon="-1.56487">
        <ele>56.662838</ele>
        <time>2021-12-14T08:19:53Z</time>
      </trkpt>
      <trkpt lat="47.24406" lon="-1.56492">
        <ele>56.494263</ele>
        <time>2021-12-14T08:19:59Z</time>
      </trkpt>
      <trkpt lat="47.24403" lon="-1.56498">
        <ele>56.131973</ele>
        <time>2021-12-14T08:20:05Z</time>
      </trkpt>
      <trkpt lat="47.244" lon="-1.56504">
        <ele>55.964863</ele>
        <time>2021-12-14T08:20:08Z</time>
      </trkpt>
      <trkpt lat="47.24399" lon="-1.56512">
        <ele>55.75116</ele>
        <time>2021-12-14T08:20:11Z</time>
      </trkpt>
      <trkpt lat="47.24397" lon="-1.56521">
        <ele>55.41856</ele>
        <time>2021-12-14T08:20:15Z</time>
      </trkpt>
      <trkpt lat="47.24395" lon="-1.56529">
        <ele>55.19089</ele>
        <time>2021-12-14T08:20:18Z</time>
      </trkpt>
      <trkpt lat="47.24394" lon="-1.56538">
        <ele>55.030495</ele>
        <time>2021-12-14T08:20:21Z</time>
      </trkpt>
      <trkpt lat="47.24393" lon="-1.56545">
        <ele>55.007824</ele>
        <time>2021-12-14T08:20:23Z</time>
      </trkpt>
      <trkpt lat="47.24391" lon="-1.56553">
        <ele>54.971333</ele>
        <time>2021-12-14T08:20:26Z</time>
      </trkpt>
      <trkpt lat="47.24389" lon="-1.56562">
        <ele>54.990314</ele>
        <time>2021-12-14T08:20:29Z</time>
      </trkpt>
      <trkpt lat="47.24387" lon="-1.56571">
        <ele>55.071648</ele>
        <time>2021-12-14T08:20:33Z</time>
      </trkpt>
      <trkpt lat="47.24386" lon="-1.56577">
        <ele>55.081337</ele>
        <time>2021-12-14T08:20:36Z</time>
      </trkpt>
      <trkpt lat="47.24386" lon="-1.56585">
        <ele>55.099934</ele>
        <time>2021-12-14T08:20:39Z</time>
      </trkpt>
      <trkpt lat="47.24385" lon="-1.56592">
        <ele>55.18653</ele>
        <time>2021-12-14T08:20:42Z</time>
      </trkpt>
      <trkpt lat="47.24386" lon="-1.56601">
        <ele>55.340153</ele>
        <time>2021-12-14T08:20:46Z</time>
      </trkpt>
      <trkpt lat="47.24386" lon="-1.56608">
        <ele>55.55202</ele>
        <time>2021-12-14T08:20:50Z</time>
      </trkpt>
      <trkpt lat="47.24386" lon="-1.56615">
        <ele>55.725533</ele>
        <time>2021-12-14T08:20:53Z</time>
      </trkpt>
      <trkpt lat="47.24387" lon="-1.56622">
        <ele>55.925037</ele>
        <time>2021-12-14T08:20:56Z</time>
      </trkpt>
      <trkpt lat="47.24387" lon="-1.56629">
        <ele>56.19448</ele>
        <time>2021-12-14T08:21:00Z</time>
      </trkpt>
      <trkpt lat="47.24387" lon="-1.56637">
        <ele>56.519577</ele>
        <time>2021-12-14T08:21:04Z</time>
      </trkpt>
      <trkpt lat="47.24387" lon="-1.56644">
        <ele>56.834816</ele>
        <time>2021-12-14T08:21:08Z</time>
      </trkpt>
      <trkpt lat="47.24389" lon="-1.56652">
        <ele>57.147808</ele>
        <time>2021-12-14T08:21:12Z</time>
      </trkpt>
      <trkpt lat="47.24389" lon="-1.5666">
        <ele>57.448654</ele>
        <time>2021-12-14T08:21:15Z</time>
      </trkpt>
      <trkpt lat="47.2439" lon="-1.56668">
        <ele>57.781006</ele>
        <time>2021-12-14T08:21:18Z</time>
      </trkpt>
      <trkpt lat="47.2439" lon="-1.56675">
        <ele>58.11844</ele>
        <time>2021-12-14T08:21:22Z</time>
      </trkpt>
      <trkpt lat="47.24391" lon="-1.56682">
        <ele>58.324425</ele>
        <time>2021-12-14T08:21:26Z</time>
      </trkpt>
      <trkpt lat="47.24391" lon="-1.56689">
        <ele>58.511482</ele>
        <time>2021-12-14T08:21:31Z</time>
      </trkpt>
      <trkpt lat="47.24391" lon="-1.56696">
        <ele>58.79747</ele>
        <time>2021-12-14T08:21:35Z</time>
      </trkpt>
      <trkpt lat="47.24393" lon="-1.56703">
        <ele>59.058464</ele>
        <time>2021-12-14T08:21:38Z</time>
      </trkpt>
      <trkpt lat="47.24394" lon="-1.56711">
        <ele>59.350506</ele>
        <time>2021-12-14T08:21:41Z</time>
      </trkpt>
      <trkpt lat="47.24395" lon="-1.56718">
        <ele>59.595253</ele>
        <time>2021-12-14T08:21:44Z</time>
      </trkpt>
      <trkpt lat="47.24395" lon="-1.56725">
        <ele>59.949123</ele>
        <time>2021-12-14T08:21:48Z</time>
      </trkpt>
      <trkpt lat="47.24395" lon="-1.56732">
        <ele>60.283146</ele>
        <time>2021-12-14T08:21:52Z</time>
      </trkpt>
      <trkpt lat="47.24397" lon="-1.56739">
        <ele>60.84597</ele>
        <time>2021-12-14T08:21:57Z</time>
      </trkpt>
      <trkpt lat="47.24397" lon="-1.56747">
        <ele>61.55814</ele>
        <time>2021-12-14T08:22:02Z</time>
      </trkpt>
      <trkpt lat="47.24396" lon="-1.56754">
        <ele>62.161926</ele>
        <time>2021-12-14T08:22:07Z</time>
      </trkpt>
      <trkpt lat="47.24395" lon="-1.56763">
        <ele>62.775547</ele>
        <time>2021-12-14T08:22:13Z</time>
      </trkpt>
      <trkpt lat="47.24394" lon="-1.56771">
        <ele>62.803658</ele>
        <time>2021-12-14T08:22:17Z</time>
      </trkpt>
      <trkpt lat="47.2439" lon="-1.56778">
        <ele>62.657497</ele>
        <time>2021-12-14T08:22:20Z</time>
      </trkpt>
      <trkpt lat="47.24388" lon="-1.56785">
        <ele>62.481804</ele>
        <time>2021-12-14T08:22:23Z</time>
      </trkpt>
      <trkpt lat="47.24384" lon="-1.56791">
        <ele>62.333702</ele>
        <time>2021-12-14T08:22:27Z</time>
      </trkpt>
      <trkpt lat="47.24384" lon="-1.56798">
        <ele>62.08702</ele>
        <time>2021-12-14T08:22:31Z</time>
      </trkpt>
      <trkpt lat="47.24384" lon="-1.56806">
        <ele>61.87207</ele>
        <time>2021-12-14T08:22:35Z</time>
      </trkpt>
      <trkpt lat="47.24385" lon="-1.56812">
        <ele>61.447155</ele>
        <time>2021-12-14T08:22:43Z</time>
      </trkpt>
      <trkpt lat="47.24385" lon="-1.56812">
        <ele>61.447155</ele>
        <time>2021-12-14T08:22:43Z</time>
      </trkpt>
      <trkpt lat="47.24387" lon="-1.5682">
        <ele>60.889633</ele>
        <time>2021-12-14T08:22:50Z</time>
      </trkpt>
      <trkpt lat="47.2439" lon="-1.56827">
        <ele>60.710064</ele>
        <time>2021-12-14T08:22:53Z</time>
      </trkpt>
      <trkpt lat="47.24392" lon="-1.56833">
        <ele>60.55464</ele>
        <time>2021-12-14T08:22:58Z</time>
      </trkpt>
      <trkpt lat="47.24394" lon="-1.5684">
        <ele>60.452232</ele>
        <time>2021-12-14T08:23:04Z</time>
      </trkpt>
      <trkpt lat="47.24397" lon="-1.56846">
        <ele>60.285152</ele>
        <time>2021-12-14T08:23:09Z</time>
      </trkpt>
      <trkpt lat="47.244" lon="-1.56852">
        <ele>60.142426</ele>
        <time>2021-12-14T08:23:14Z</time>
      </trkpt>
      <trkpt lat="47.24403" lon="-1.56857">
        <ele>60.041023</ele>
        <time>2021-12-14T08:23:18Z</time>
      </trkpt>
      <trkpt lat="47.24406" lon="-1.56862">
        <ele>60.018944</ele>
        <time>2021-12-14T08:23:22Z</time>
      </trkpt>
      <trkpt lat="47.24407" lon="-1.56868">
        <ele>60.08038</ele>
        <time>2021-12-14T08:23:27Z</time>
      </trkpt>
      <trkpt lat="47.24409" lon="-1.56876">
        <ele>60.127598</ele>
        <time>2021-12-14T08:23:32Z</time>
      </trkpt>
      <trkpt lat="47.2441" lon="-1.56884">
        <ele>60.219086</ele>
        <time>2021-12-14T08:23:37Z</time>
      </trkpt>
      <trkpt lat="47.24412" lon="-1.56891">
        <ele>60.319523</ele>
        <time>2021-12-14T08:23:42Z</time>
      </trkpt>
      <trkpt lat="47.24413" lon="-1.56898">
        <ele>60.63714</ele>
        <time>2021-12-14T08:23:48Z</time>
      </trkpt>
      <trkpt lat="47.24415" lon="-1.56907">
        <ele>60.75207</ele>
        <time>2021-12-14T08:23:53Z</time>
      </trkpt>
      <trkpt lat="47.24417" lon="-1.56914">
        <ele>60.78198</ele>
        <time>2021-12-14T08:23:57Z</time>
      </trkpt>
      <trkpt lat="47.24421" lon="-1.56919">
        <ele>60.77587</ele>
        <time>2021-12-14T08:24:01Z</time>
      </trkpt>
      <trkpt lat="47.24423" lon="-1.56925">
        <ele>60.473427</ele>
        <time>2021-12-14T08:24:07Z</time>
      </trkpt>
      <trkpt lat="47.24425" lon="-1.56931">
        <ele>59.840855</ele>
        <time>2021-12-14T08:24:11Z</time>
      </trkpt>
      <trkpt lat="47.24428" lon="-1.56938">
        <ele>59.113205</ele>
        <time>2021-12-14T08:24:15Z</time>
      </trkpt>
      <trkpt lat="47.24432" lon="-1.56945">
        <ele>58.451977</ele>
        <time>2021-12-14T08:24:19Z</time>
      </trkpt>
      <trkpt lat="47.24434" lon="-1.56951">
        <ele>58.00061</ele>
        <time>2021-12-14T08:24:22Z</time>
      </trkpt>
      <trkpt lat="47.24437" lon="-1.56956">
        <ele>57.49751</ele>
        <time>2021-12-14T08:24:26Z</time>
      </trkpt>
      <trkpt lat="47.2444" lon="-1.56961">
        <ele>57.127293</ele>
        <time>2021-12-14T08:24:30Z</time>
      </trkpt>
      <trkpt lat="47.24444" lon="-1.56965">
        <ele>56.530575</ele>
        <time>2021-12-14T08:24:35Z</time>
      </trkpt>
      <trkpt lat="47.24448" lon="-1.5697">
        <ele>55.809525</ele>
        <time>2021-12-14T08:24:41Z</time>
      </trkpt>
      <trkpt lat="47.24453" lon="-1.56974">
        <ele>55.095898</ele>
        <time>2021-12-14T08:24:46Z</time>
      </trkpt>
      <trkpt lat="47.24458" lon="-1.56977">
        <ele>54.299717</ele>
        <time>2021-12-14T08:24:51Z</time>
      </trkpt>
      <trkpt lat="47.24462" lon="-1.56983">
        <ele>53.664486</ele>
        <time>2021-12-14T08:24:55Z</time>
      </trkpt>
      <trkpt lat="47.24465" lon="-1.56988">
        <ele>52.874046</ele>
        <time>2021-12-14T08:25:00Z</time>
      </trkpt>
      <trkpt lat="47.24469" lon="-1.56994">
        <ele>52.247337</ele>
        <time>2021-12-14T08:25:03Z</time>
      </trkpt>
      <trkpt lat="47.24474" lon="-1.57">
        <ele>51.66358</ele>
        <time>2021-12-14T08:25:06Z</time>
      </trkpt>
      <trkpt lat="47.2448" lon="-1.57003">
        <ele>51.11766</ele>
        <time>2021-12-14T08:25:10Z</time>
      </trkpt>
      <trkpt lat="47.24484" lon="-1.57005">
        <ele>50.750225</ele>
        <time>2021-12-14T08:25:13Z</time>
      </trkpt>
      <trkpt lat="47.2449" lon="-1.57005">
        <ele>50.52083</ele>
        <time>2021-12-14T08:25:16Z</time>
      </trkpt>
      <trkpt lat="47.24496" lon="-1.57005">
        <ele>50.395344</ele>
        <time>2021-12-14T08:25:19Z</time>
      </trkpt>
      <trkpt lat="47.24501" lon="-1.57005">
        <ele>50.344025</ele>
        <time>2021-12-14T08:25:23Z</time>
      </trkpt>
      <trkpt lat="47.24506" lon="-1.57006">
        <ele>50.325615</ele>
        <time>2021-12-14T08:25:26Z</time>
      </trkpt>
      <trkpt lat="47.24511" lon="-1.57007">
        <ele>50.309895</ele>
        <time>2021-12-14T08:25:30Z</time>
      </trkpt>
      <trkpt lat="47.24515" lon="-1.57011">
        <ele>50.368126</ele>
        <time>2021-12-14T08:25:33Z</time>
      </trkpt>
      <trkpt lat="47.24519" lon="-1.57016">
        <ele>50.52715</ele>
        <time>2021-12-14T08:25:37Z</time>
      </trkpt>
      <trkpt lat="47.24524" lon="-1.57018">
        <ele>50.634525</ele>
        <time>2021-12-14T08:25:40Z</time>
      </trkpt>
      <trkpt lat="47.24529" lon="-1.5702">
        <ele>50.704506</ele>
        <time>2021-12-14T08:25:44Z</time>
      </trkpt>
      <trkpt lat="47.24532" lon="-1.57024">
        <ele>50.769417</ele>
        <time>2021-12-14T08:25:47Z</time>
      </trkpt>
      <trkpt lat="47.24537" lon="-1.5703">
        <ele>50.83843</ele>
        <time>2021-12-14T08:25:51Z</time>
      </trkpt>
      <trkpt lat="47.24539" lon="-1.57036">
        <ele>50.85021</ele>
        <time>2021-12-14T08:25:55Z</time>
      </trkpt>
      <trkpt lat="47.2454" lon="-1.57043">
        <ele>51.098095</ele>
        <time>2021-12-14T08:26:03Z</time>
      </trkpt>
      <trkpt lat="47.2454" lon="-1.57046">
        <ele>51.205242</ele>
        <time>2021-12-14T08:26:06Z</time>
      </trkpt>
      <trkpt lat="47.2454" lon="-1.57046">
        <ele>51.205242</ele>
        <time>2021-12-14T08:26:06Z</time>
      </trkpt>
      <trkpt lat="47.24537" lon="-1.57052">
        <ele>51.622234</ele>
        <time>2021-12-14T08:26:13Z</time>
      </trkpt>
      <trkpt lat="47.24534" lon="-1.57061">
        <ele>51.890663</ele>
        <time>2021-12-14T08:26:18Z</time>
      </trkpt>
      <trkpt lat="47.24534" lon="-1.57068">
        <ele>52.104637</ele>
        <time>2021-12-14T08:26:23Z</time>
      </trkpt>
      <trkpt lat="47.24536" lon="-1.57074">
        <ele>52.47181</ele>
        <time>2021-12-14T08:26:28Z</time>
      </trkpt>
      <trkpt lat="47.2454" lon="-1.57078">
        <ele>52.593334</ele>
        <time>2021-12-14T08:26:34Z</time>
      </trkpt>
      <trkpt lat="47.24544" lon="-1.57084">
        <ele>52.699932</ele>
        <time>2021-12-14T08:26:40Z</time>
      </trkpt>
      <trkpt lat="47.24546" lon="-1.57091">
        <ele>52.699783</ele>
        <time>2021-12-14T08:26:44Z</time>
      </trkpt>
      <trkpt lat="47.24547" lon="-1.57099">
        <ele>52.715538</ele>
        <time>2021-12-14T08:26:49Z</time>
      </trkpt>
      <trkpt lat="47.24548" lon="-1.57106">
        <ele>52.704567</ele>
        <time>2021-12-14T08:26:54Z</time>
      </trkpt>
      <trkpt lat="47.24553" lon="-1.57109">
        <ele>52.75587</ele>
        <time>2021-12-14T08:26:58Z</time>
      </trkpt>
      <trkpt lat="47.24555" lon="-1.57115">
        <ele>52.904354</ele>
        <time>2021-12-14T08:27:01Z</time>
      </trkpt>
      <trkpt lat="47.24557" lon="-1.57122">
        <ele>53.124092</ele>
        <time>2021-12-14T08:27:05Z</time>
      </trkpt>
      <trkpt lat="47.24558" lon="-1.57131">
        <ele>53.422794</ele>
        <time>2021-12-14T08:27:08Z</time>
      </trkpt>
      <trkpt lat="47.24559" lon="-1.57139">
        <ele>53.785873</ele>
        <time>2021-12-14T08:27:11Z</time>
      </trkpt>
      <trkpt lat="47.2456" lon="-1.57146">
        <ele>54.23235</ele>
        <time>2021-12-14T08:27:14Z</time>
      </trkpt>
      <trkpt lat="47.2456" lon="-1.57154">
        <ele>54.809776</ele>
        <time>2021-12-14T08:27:18Z</time>
      </trkpt>
      <trkpt lat="47.24559" lon="-1.57161">
        <ele>55.263428</ele>
        <time>2021-12-14T08:27:23Z</time>
      </trkpt>
      <trkpt lat="47.2456" lon="-1.57169">
        <ele>55.5002</ele>
        <time>2021-12-14T08:27:26Z</time>
      </trkpt>
      <trkpt lat="47.24559" lon="-1.57177">
        <ele>55.87494</ele>
        <time>2021-12-14T08:27:31Z</time>
      </trkpt>
      <trkpt lat="47.24559" lon="-1.57186">
        <ele>56.011726</ele>
        <time>2021-12-14T08:27:35Z</time>
      </trkpt>
      <trkpt lat="47.24559" lon="-1.57193">
        <ele>55.994816</ele>
        <time>2021-12-14T08:27:39Z</time>
      </trkpt>
      <trkpt lat="47.24558" lon="-1.57201">
        <ele>55.905975</ele>
        <time>2021-12-14T08:27:43Z</time>
      </trkpt>
      <trkpt lat="47.24557" lon="-1.57209">
        <ele>55.703217</ele>
        <time>2021-12-14T08:27:46Z</time>
      </trkpt>
      <trkpt lat="47.24556" lon="-1.57216">
        <ele>55.365257</ele>
        <time>2021-12-14T08:27:49Z</time>
      </trkpt>
      <trkpt lat="47.24553" lon="-1.57222">
        <ele>55.04316</ele>
        <time>2021-12-14T08:27:52Z</time>
      </trkpt>
      <trkpt lat="47.24551" lon="-1.57229">
        <ele>54.721687</ele>
        <time>2021-12-14T08:27:55Z</time>
      </trkpt>
      <trkpt lat="47.24549" lon="-1.57236">
        <ele>54.210136</ele>
        <time>2021-12-14T08:27:59Z</time>
      </trkpt>
      <trkpt lat="47.24546" lon="-1.57242">
        <ele>53.648144</ele>
        <time>2021-12-14T08:28:03Z</time>
      </trkpt>
      <trkpt lat="47.24543" lon="-1.57251">
        <ele>52.988</ele>
        <time>2021-12-14T08:28:07Z</time>
      </trkpt>
      <trkpt lat="47.24541" lon="-1.57259">
        <ele>52.39252</ele>
        <time>2021-12-14T08:28:11Z</time>
      </trkpt>
      <trkpt lat="47.24539" lon="-1.57266">
        <ele>52.08879</ele>
        <time>2021-12-14T08:28:15Z</time>
      </trkpt>
      <trkpt lat="47.24538" lon="-1.57273">
        <ele>51.623566</ele>
        <time>2021-12-14T08:28:20Z</time>
      </trkpt>
      <trkpt lat="47.24538" lon="-1.57281">
        <ele>51.1776</ele>
        <time>2021-12-14T08:28:25Z</time>
      </trkpt>
      <trkpt lat="47.24538" lon="-1.57288">
        <ele>50.805218</ele>
        <time>2021-12-14T08:28:29Z</time>
      </trkpt>
      <trkpt lat="47.24538" lon="-1.57296">
        <ele>50.33492</ele>
        <time>2021-12-14T08:28:33Z</time>
      </trkpt>
      <trkpt lat="47.24539" lon="-1.57302">
        <ele>49.958473</ele>
        <time>2021-12-14T08:28:36Z</time>
      </trkpt>
      <trkpt lat="47.24539" lon="-1.57309">
        <ele>49.347122</ele>
        <time>2021-12-14T08:28:40Z</time>
      </trkpt>
      <trkpt lat="47.24539" lon="-1.57317">
        <ele>48.99553</ele>
        <time>2021-12-14T08:28:43Z</time>
      </trkpt>
      <trkpt lat="47.24538" lon="-1.57325">
        <ele>48.813698</ele>
        <time>2021-12-14T08:28:45Z</time>
      </trkpt>
      <trkpt lat="47.24538" lon="-1.57332">
        <ele>48.80918</ele>
        <time>2021-12-14T08:28:49Z</time>
      </trkpt>
      <trkpt lat="47.2454" lon="-1.57339">
        <ele>49.124813</ele>
        <time>2021-12-14T08:28:53Z</time>
      </trkpt>
      <trkpt lat="47.24543" lon="-1.57346">
        <ele>49.46691</ele>
        <time>2021-12-14T08:28:57Z</time>
      </trkpt>
      <trkpt lat="47.24545" lon="-1.57352">
        <ele>49.757355</ele>
        <time>2021-12-14T08:29:00Z</time>
      </trkpt>
      <trkpt lat="47.24548" lon="-1.57358">
        <ele>50.10125</ele>
        <time>2021-12-14T08:29:03Z</time>
      </trkpt>
      <trkpt lat="47.24549" lon="-1.57365">
        <ele>50.479267</ele>
        <time>2021-12-14T08:29:06Z</time>
      </trkpt>
      <trkpt lat="47.2455" lon="-1.57373">
        <ele>50.90913</ele>
        <time>2021-12-14T08:29:10Z</time>
      </trkpt>
      <trkpt lat="47.24551" lon="-1.5738">
        <ele>51.424473</ele>
        <time>2021-12-14T08:29:14Z</time>
      </trkpt>
      <trkpt lat="47.24554" lon="-1.57387">
        <ele>52.02808</ele>
        <time>2021-12-14T08:29:18Z</time>
      </trkpt>
      <trkpt lat="47.24554" lon="-1.57395">
        <ele>52.490017</ele>
        <time>2021-12-14T08:29:22Z</time>
      </trkpt>
      <trkpt lat="47.24555" lon="-1.57402">
        <ele>52.872288</ele>
        <time>2021-12-14T08:29:26Z</time>
      </trkpt>
      <trkpt lat="47.24556" lon="-1.5741">
        <ele>53.292427</ele>
        <time>2021-12-14T08:29:30Z</time>
      </trkpt>
      <trkpt lat="47.24558" lon="-1.57416">
        <ele>53.765316</ele>
        <time>2021-12-14T08:29:34Z</time>
      </trkpt>
      <trkpt lat="47.24559" lon="-1.57424">
        <ele>54.0749</ele>
        <time>2021-12-14T08:29:37Z</time>
      </trkpt>
      <trkpt lat="47.24559" lon="-1.57433">
        <ele>54.21979</ele>
        <time>2021-12-14T08:29:41Z</time>
      </trkpt>
      <trkpt lat="47.24561" lon="-1.57441">
        <ele>54.353275</ele>
        <time>2021-12-14T08:29:45Z</time>
      </trkpt>
      <trkpt lat="47.24564" lon="-1.57448">
        <ele>54.464764</ele>
        <time>2021-12-14T08:29:49Z</time>
      </trkpt>
      <trkpt lat="47.24566" lon="-1.57455">
        <ele>54.585114</ele>
        <time>2021-12-14T08:29:52Z</time>
      </trkpt>
      <trkpt lat="47.24567" lon="-1.57463">
        <ele>54.838573</ele>
        <time>2021-12-14T08:29:56Z</time>
      </trkpt>
      <trkpt lat="47.24569" lon="-1.57469">
        <ele>55.024246</ele>
        <time>2021-12-14T08:30:00Z</time>
      </trkpt>
      <trkpt lat="47.24572" lon="-1.57476">
        <ele>55.137596</ele>
        <time>2021-12-14T08:30:05Z</time>
      </trkpt>
      <trkpt lat="47.24577" lon="-1.57481">
        <ele>55.18262</ele>
        <time>2021-12-14T08:30:09Z</time>
      </trkpt>
      <trkpt lat="47.2458" lon="-1.57486">
        <ele>55.205986</ele>
        <time>2021-12-14T08:30:13Z</time>
      </trkpt>
      <trkpt lat="47.24583" lon="-1.57492">
        <ele>54.984173</ele>
        <time>2021-12-14T08:30:18Z</time>
      </trkpt>
      <trkpt lat="47.24587" lon="-1.57498">
        <ele>54.900192</ele>
        <time>2021-12-14T08:30:21Z</time>
      </trkpt>
      <trkpt lat="47.24591" lon="-1.57502">
        <ele>54.564606</ele>
        <time>2021-12-14T08:30:30Z</time>
      </trkpt>
      <trkpt lat="47.24596" lon="-1.57506">
        <ele>54.208794</ele>
        <time>2021-12-14T08:30:33Z</time>
      </trkpt>
      <trkpt lat="47.24601" lon="-1.57508">
        <ele>53.573513</ele>
        <time>2021-12-14T08:30:38Z</time>
      </trkpt>
      <trkpt lat="47.24605" lon="-1.57511">
        <ele>53.05871</ele>
        <time>2021-12-14T08:30:42Z</time>
      </trkpt>
      <trkpt lat="47.24609" lon="-1.57514">
        <ele>52.742916</ele>
        <time>2021-12-14T08:30:45Z</time>
      </trkpt>
      <trkpt lat="47.24615" lon="-1.57517">
        <ele>52.469795</ele>
        <time>2021-12-14T08:30:48Z</time>
      </trkpt>
      <trkpt lat="47.24619" lon="-1.57519">
        <ele>52.238247</ele>
        <time>2021-12-14T08:30:51Z</time>
      </trkpt>
      <trkpt lat="47.24624" lon="-1.57524">
        <ele>51.90099</ele>
        <time>2021-12-14T08:30:54Z</time>
      </trkpt>
      <trkpt lat="47.24628" lon="-1.57528">
        <ele>51.03852</ele>
        <time>2021-12-14T08:30:59Z</time>
      </trkpt>
      <trkpt lat="47.24633" lon="-1.57532">
        <ele>50.316364</ele>
        <time>2021-12-14T08:31:03Z</time>
      </trkpt>
      <trkpt lat="47.24637" lon="-1.57537">
        <ele>49.60511</ele>
        <time>2021-12-14T08:31:07Z</time>
      </trkpt>
      <trkpt lat="47.24641" lon="-1.5754">
        <ele>49.045174</ele>
        <time>2021-12-14T08:31:12Z</time>
      </trkpt>
      <trkpt lat="47.24647" lon="-1.57545">
        <ele>48.578896</ele>
        <time>2021-12-14T08:31:16Z</time>
      </trkpt>
      <trkpt lat="47.24651" lon="-1.5755">
        <ele>48.282246</ele>
        <time>2021-12-14T08:31:20Z</time>
      </trkpt>
      <trkpt lat="47.24655" lon="-1.57555">
        <ele>48.08404</ele>
        <time>2021-12-14T08:31:25Z</time>
      </trkpt>
      <trkpt lat="47.24658" lon="-1.57561">
        <ele>47.946445</ele>
        <time>2021-12-14T08:31:28Z</time>
      </trkpt>
      <trkpt lat="47.24661" lon="-1.57566">
        <ele>47.850998</ele>
        <time>2021-12-14T08:31:31Z</time>
      </trkpt>
      <trkpt lat="47.24664" lon="-1.57575">
        <ele>47.782135</ele>
        <time>2021-12-14T08:31:35Z</time>
      </trkpt>
      <trkpt lat="47.24666" lon="-1.57582">
        <ele>47.775932</ele>
        <time>2021-12-14T08:31:39Z</time>
      </trkpt>
      <trkpt lat="47.24666" lon="-1.57589">
        <ele>47.667614</ele>
        <time>2021-12-14T08:31:43Z</time>
      </trkpt>
      <trkpt lat="47.24668" lon="-1.57596">
        <ele>47.565758</ele>
        <time>2021-12-14T08:31:47Z</time>
      </trkpt>
      <trkpt lat="47.24672" lon="-1.57601">
        <ele>47.52235</ele>
        <time>2021-12-14T08:31:51Z</time>
      </trkpt>
      <trkpt lat="47.24675" lon="-1.57607">
        <ele>47.454163</ele>
        <time>2021-12-14T08:31:55Z</time>
      </trkpt>
      <trkpt lat="47.24676" lon="-1.57614">
        <ele>47.37346</ele>
        <time>2021-12-14T08:31:58Z</time>
      </trkpt>
      <trkpt lat="47.24679" lon="-1.57619">
        <ele>47.391174</ele>
        <time>2021-12-14T08:32:01Z</time>
      </trkpt>
      <trkpt lat="47.24682" lon="-1.57626">
        <ele>47.276207</ele>
        <time>2021-12-14T08:32:05Z</time>
      </trkpt>
      <trkpt lat="47.24687" lon="-1.5763">
        <ele>47.28095</ele>
        <time>2021-12-14T08:32:09Z</time>
      </trkpt>
      <trkpt lat="47.2469" lon="-1.57635">
        <ele>47.358463</ele>
        <time>2021-12-14T08:32:13Z</time>
      </trkpt>
      <trkpt lat="47.24694" lon="-1.57643">
        <ele>47.705666</ele>
        <time>2021-12-14T08:32:18Z</time>
      </trkpt>
      <trkpt lat="47.24696" lon="-1.57648">
        <ele>47.99717</ele>
        <time>2021-12-14T08:32:22Z</time>
      </trkpt>
      <trkpt lat="47.24699" lon="-1.57654">
        <ele>48.136265</ele>
        <time>2021-12-14T08:32:25Z</time>
      </trkpt>
      <trkpt lat="47.24702" lon="-1.5766">
        <ele>48.283875</ele>
        <time>2021-12-14T08:32:29Z</time>
      </trkpt>
      <trkpt lat="47.24705" lon="-1.57666">
        <ele>48.35847</ele>
        <time>2021-12-14T08:32:32Z</time>
      </trkpt>
      <trkpt lat="47.24708" lon="-1.57672">
        <ele>48.46668</ele>
        <time>2021-12-14T08:32:36Z</time>
      </trkpt>
      <trkpt lat="47.24711" lon="-1.57677">
        <ele>48.6012</ele>
        <time>2021-12-14T08:32:39Z</time>
      </trkpt>
      <trkpt lat="47.24714" lon="-1.57684">
        <ele>48.767254</ele>
        <time>2021-12-14T08:32:43Z</time>
      </trkpt>
      <trkpt lat="47.24718" lon="-1.57691">
        <ele>48.870533</ele>
        <time>2021-12-14T08:32:47Z</time>
      </trkpt>
      <trkpt lat="47.24721" lon="-1.57699">
        <ele>49.029068</ele>
        <time>2021-12-14T08:32:51Z</time>
      </trkpt>
      <trkpt lat="47.24722" lon="-1.57705">
        <ele>49.269352</ele>
        <time>2021-12-14T08:32:54Z</time>
      </trkpt>
      <trkpt lat="47.24727" lon="-1.57709">
        <ele>49.701603</ele>
        <time>2021-12-14T08:32:58Z</time>
      </trkpt>
      <trkpt lat="47.24731" lon="-1.57715">
        <ele>50.231445</ele>
        <time>2021-12-14T08:33:03Z</time>
      </trkpt>
      <trkpt lat="47.24735" lon="-1.57719">
        <ele>50.531387</ele>
        <time>2021-12-14T08:33:07Z</time>
      </trkpt>
      <trkpt lat="47.24738" lon="-1.57725">
        <ele>50.807076</ele>
        <time>2021-12-14T08:33:11Z</time>
      </trkpt>
      <trkpt lat="47.2474" lon="-1.57733">
        <ele>51.141243</ele>
        <time>2021-12-14T08:33:15Z</time>
      </trkpt>
      <trkpt lat="47.24735" lon="-1.57735">
        <ele>51.907867</ele>
        <time>2021-12-14T08:33:23Z</time>
      </trkpt>
      <trkpt lat="47.2473" lon="-1.57734">
        <ele>52.261246</ele>
        <time>2021-12-14T08:33:27Z</time>
      </trkpt>
      <trkpt lat="47.24725" lon="-1.57731">
        <ele>52.57892</ele>
        <time>2021-12-14T08:33:32Z</time>
      </trkpt>
      <trkpt lat="47.24721" lon="-1.57727">
        <ele>52.77745</ele>
        <time>2021-12-14T08:33:35Z</time>
      </trkpt>
      <trkpt lat="47.24716" lon="-1.57723">
        <ele>53.08985</ele>
        <time>2021-12-14T08:33:39Z</time>
      </trkpt>
      <trkpt lat="47.24711" lon="-1.57724">
        <ele>53.37752</ele>
        <time>2021-12-14T08:33:42Z</time>
      </trkpt>
      <trkpt lat="47.24706" lon="-1.57723">
        <ele>53.723495</ele>
        <time>2021-12-14T08:33:46Z</time>
      </trkpt>
      <trkpt lat="47.24701" lon="-1.57723">
        <ele>54.005165</ele>
        <time>2021-12-14T08:33:49Z</time>
      </trkpt>
      <trkpt lat="47.24696" lon="-1.57721">
        <ele>54.363354</ele>
        <time>2021-12-14T08:33:53Z</time>
      </trkpt>
      <trkpt lat="47.24691" lon="-1.57719">
        <ele>54.8202</ele>
        <time>2021-12-14T08:33:58Z</time>
      </trkpt>
      <trkpt lat="47.24691" lon="-1.57726">
        <ele>55.1572</ele>
        <time>2021-12-14T08:34:06Z</time>
      </trkpt>
      <trkpt lat="47.2469" lon="-1.57732">
        <ele>55.26721</ele>
        <time>2021-12-14T08:34:10Z</time>
      </trkpt>
      <trkpt lat="47.24688" lon="-1.5774">
        <ele>55.227962</ele>
        <time>2021-12-14T08:34:15Z</time>
      </trkpt>
      <trkpt lat="47.24687" lon="-1.57748">
        <ele>55.06749</ele>
        <time>2021-12-14T08:34:20Z</time>
      </trkpt>
      <trkpt lat="47.24685" lon="-1.57755">
        <ele>54.825996</ele>
        <time>2021-12-14T08:34:26Z</time>
      </trkpt>
      <trkpt lat="47.24686" lon="-1.57762">
        <ele>54.668396</ele>
        <time>2021-12-14T08:34:30Z</time>
      </trkpt>
      <trkpt lat="47.24684" lon="-1.57768">
        <ele>54.4131</ele>
        <time>2021-12-14T08:34:34Z</time>
      </trkpt>
      <trkpt lat="47.24682" lon="-1.57774">
        <ele>54.378666</ele>
        <time>2021-12-14T08:34:43Z</time>
      </trkpt>
      <trkpt lat="47.24678" lon="-1.57779">
        <ele>54.401646</ele>
        <time>2021-12-14T08:34:45Z</time>
      </trkpt>
      <trkpt lat="47.24674" lon="-1.57785">
        <ele>54.40374</ele>
        <time>2021-12-14T08:34:48Z</time>
      </trkpt>
      <trkpt lat="47.2467" lon="-1.57789">
        <ele>54.45321</ele>
        <time>2021-12-14T08:34:52Z</time>
      </trkpt>
      <trkpt lat="47.24669" lon="-1.57791">
        <ele>54.544792</ele>
        <time>2021-12-14T08:34:54Z</time>
      </trkpt>
      <trkpt lat="47.24669" lon="-1.57791">
        <ele>54.544792</ele>
        <time>2021-12-14T08:34:54Z</time>
      </trkpt>
      <trkpt lat="47.24664" lon="-1.57795">
        <ele>54.793663</ele>
        <time>2021-12-14T08:35:01Z</time>
      </trkpt>
      <trkpt lat="47.24659" lon="-1.57797">
        <ele>54.714043</ele>
        <time>2021-12-14T08:35:05Z</time>
      </trkpt>
      <trkpt lat="47.24654" lon="-1.57797">
        <ele>54.58714</ele>
        <time>2021-12-14T08:35:10Z</time>
      </trkpt>
      <trkpt lat="47.24649" lon="-1.578">
        <ele>54.44874</ele>
        <time>2021-12-14T08:35:14Z</time>
      </trkpt>
      <trkpt lat="47.24642" lon="-1.57804">
        <ele>54.08317</ele>
        <time>2021-12-14T08:35:18Z</time>
      </trkpt>
      <trkpt lat="47.24637" lon="-1.57806">
        <ele>53.72982</ele>
        <time>2021-12-14T08:35:23Z</time>
      </trkpt>
      <trkpt lat="47.24633" lon="-1.5781">
        <ele>53.547382</ele>
        <time>2021-12-14T08:35:26Z</time>
      </trkpt>
      <trkpt lat="47.2463" lon="-1.57815">
        <ele>53.499355</ele>
        <time>2021-12-14T08:35:31Z</time>
      </trkpt>
      <trkpt lat="47.24628" lon="-1.57822">
        <ele>53.564976</ele>
        <time>2021-12-14T08:35:36Z</time>
      </trkpt>
      <trkpt lat="47.24625" lon="-1.57829">
        <ele>53.548004</ele>
        <time>2021-12-14T08:35:41Z</time>
      </trkpt>
      <trkpt lat="47.24622" lon="-1.57835">
        <ele>53.62777</ele>
        <time>2021-12-14T08:35:46Z</time>
      </trkpt>
      <trkpt lat="47.24619" lon="-1.5784">
        <ele>53.67281</ele>
        <time>2021-12-14T08:35:49Z</time>
      </trkpt>
      <trkpt lat="47.24614" lon="-1.57844">
        <ele>53.716797</ele>
        <time>2021-12-14T08:35:52Z</time>
      </trkpt>
      <trkpt lat="47.24609" lon="-1.57848">
        <ele>53.681225</ele>
        <time>2021-12-14T08:35:56Z</time>
      </trkpt>
      <trkpt lat="47.24604" lon="-1.5785">
        <ele>53.611156</ele>
        <time>2021-12-14T08:36:00Z</time>
      </trkpt>
      <trkpt lat="47.246" lon="-1.57854">
        <ele>53.654083</ele>
        <time>2021-12-14T08:36:04Z</time>
      </trkpt>
      <trkpt lat="47.24596" lon="-1.57859">
        <ele>53.739017</ele>
        <time>2021-12-14T08:36:06Z</time>
      </trkpt>
      <trkpt lat="47.24591" lon="-1.57863">
        <ele>53.955647</ele>
        <time>2021-12-14T08:36:11Z</time>
      </trkpt>
      <trkpt lat="47.24585" lon="-1.57867">
        <ele>54.29716</ele>
        <time>2021-12-14T08:36:16Z</time>
      </trkpt>
      <trkpt lat="47.24581" lon="-1.5787">
        <ele>54.67826</ele>
        <time>2021-12-14T08:36:19Z</time>
      </trkpt>
      <trkpt lat="47.24576" lon="-1.57875">
        <ele>55.063625</ele>
        <time>2021-12-14T08:36:23Z</time>
      </trkpt>
      <trkpt lat="47.24572" lon="-1.57879">
        <ele>55.29872</ele>
        <time>2021-12-14T08:36:27Z</time>
      </trkpt>
      <trkpt lat="47.24567" lon="-1.57884">
        <ele>55.471916</ele>
        <time>2021-12-14T08:36:31Z</time>
      </trkpt>
      <trkpt lat="47.24563" lon="-1.57888">
        <ele>55.592068</ele>
        <time>2021-12-14T08:36:35Z</time>
      </trkpt>
      <trkpt lat="47.24558" lon="-1.57892">
        <ele>55.466377</ele>
        <time>2021-12-14T08:36:39Z</time>
      </trkpt>
      <trkpt lat="47.24554" lon="-1.57898">
        <ele>55.23429</ele>
        <time>2021-12-14T08:36:44Z</time>
      </trkpt>
      <trkpt lat="47.2455" lon="-1.57902">
        <ele>55.217567</ele>
        <time>2021-12-14T08:36:48Z</time>
      </trkpt>
      <trkpt lat="47.24546" lon="-1.57908">
        <ele>55.271053</ele>
        <time>2021-12-14T08:36:53Z</time>
      </trkpt>
      <trkpt lat="47.24541" lon="-1.57916">
        <ele>55.305656</ele>
        <time>2021-12-14T08:36:58Z</time>
      </trkpt>
      <trkpt lat="47.24537" lon="-1.5792">
        <ele>55.377155</ele>
        <time>2021-12-14T08:37:01Z</time>
      </trkpt>
      <trkpt lat="47.24533" lon="-1.57925">
        <ele>55.40412</ele>
        <time>2021-12-14T08:37:06Z</time>
      </trkpt>
      <trkpt lat="47.2453" lon="-1.5793">
        <ele>55.496838</ele>
        <time>2021-12-14T08:37:10Z</time>
      </trkpt>
      <trkpt lat="47.24529" lon="-1.57937">
        <ele>55.54332</ele>
        <time>2021-12-14T08:37:14Z</time>
      </trkpt>
      <trkpt lat="47.24526" lon="-1.57944">
        <ele>55.650852</ele>
        <time>2021-12-14T08:37:18Z</time>
      </trkpt>
      <trkpt lat="47.24523" lon="-1.5795">
        <ele>55.792698</ele>
        <time>2021-12-14T08:37:25Z</time>
      </trkpt>
      <trkpt lat="47.24522" lon="-1.57956">
        <ele>55.680126</ele>
        <time>2021-12-14T08:37:29Z</time>
      </trkpt>
      <trkpt lat="47.24519" lon="-1.57964">
        <ele>55.546024</ele>
        <time>2021-12-14T08:37:34Z</time>
      </trkpt>
      <trkpt lat="47.24516" lon="-1.57969">
        <ele>55.455685</ele>
        <time>2021-12-14T08:37:37Z</time>
      </trkpt>
      <trkpt lat="47.24516" lon="-1.57977">
        <ele>55.35855</ele>
        <time>2021-12-14T08:37:42Z</time>
      </trkpt>
      <trkpt lat="47.24515" lon="-1.57983">
        <ele>55.314358</ele>
        <time>2021-12-14T08:37:46Z</time>
      </trkpt>
      <trkpt lat="47.24514" lon="-1.5799">
        <ele>55.300686</ele>
        <time>2021-12-14T08:37:51Z</time>
      </trkpt>
      <trkpt lat="47.24511" lon="-1.57996">
        <ele>55.223526</ele>
        <time>2021-12-14T08:37:54Z</time>
      </trkpt>
      <trkpt lat="47.24508" lon="-1.58003">
        <ele>55.226257</ele>
        <time>2021-12-14T08:37:57Z</time>
      </trkpt>
      <trkpt lat="47.24506" lon="-1.5801">
        <ele>55.177017</ele>
        <time>2021-12-14T08:38:01Z</time>
      </trkpt>
      <trkpt lat="47.24504" lon="-1.58017">
        <ele>55.323364</ele>
        <time>2021-12-14T08:38:05Z</time>
      </trkpt>
      <trkpt lat="47.24502" lon="-1.58023">
        <ele>55.552757</ele>
        <time>2021-12-14T08:38:08Z</time>
      </trkpt>
      <trkpt lat="47.245" lon="-1.5803">
        <ele>55.77462</ele>
        <time>2021-12-14T08:38:11Z</time>
      </trkpt>
      <trkpt lat="47.24496" lon="-1.58035">
        <ele>56.11928</ele>
        <time>2021-12-14T08:38:16Z</time>
      </trkpt>
      <trkpt lat="47.24492" lon="-1.58041">
        <ele>56.44639</ele>
        <time>2021-12-14T08:38:20Z</time>
      </trkpt>
      <trkpt lat="47.24488" lon="-1.58045">
        <ele>56.924637</ele>
        <time>2021-12-14T08:38:24Z</time>
      </trkpt>
      <trkpt lat="47.24484" lon="-1.5805">
        <ele>57.42672</ele>
        <time>2021-12-14T08:38:29Z</time>
      </trkpt>
      <trkpt lat="47.24479" lon="-1.58053">
        <ele>57.640163</ele>
        <time>2021-12-14T08:38:32Z</time>
      </trkpt>
      <trkpt lat="47.24475" lon="-1.58056">
        <ele>57.841896</ele>
        <time>2021-12-14T08:38:35Z</time>
      </trkpt>
      <trkpt lat="47.24469" lon="-1.58059">
        <ele>58.05641</ele>
        <time>2021-12-14T08:38:39Z</time>
      </trkpt>
      <trkpt lat="47.24464" lon="-1.5806">
        <ele>58.125687</ele>
        <time>2021-12-14T08:38:43Z</time>
      </trkpt>
      <trkpt lat="47.24461" lon="-1.58064">
        <ele>58.1588</ele>
        <time>2021-12-14T08:38:48Z</time>
      </trkpt>
      <trkpt lat="47.24456" lon="-1.58064">
        <ele>58.27319</ele>
        <time>2021-12-14T08:38:54Z</time>
      </trkpt>
      <trkpt lat="47.24455" lon="-1.58064">
        <ele>58.266495</ele>
        <time>2021-12-14T08:38:57Z</time>
      </trkpt>
      <trkpt lat="47.24455" lon="-1.58064">
        <ele>58.266495</ele>
        <time>2021-12-14T08:38:57Z</time>
      </trkpt>
      <trkpt lat="47.2445" lon="-1.58067">
        <ele>58.490643</ele>
        <time>2021-12-14T08:39:04Z</time>
      </trkpt>
      <trkpt lat="47.24447" lon="-1.58072">
        <ele>58.872883</ele>
        <time>2021-12-14T08:39:10Z</time>
      </trkpt>
      <trkpt lat="47.24445" lon="-1.58078">
        <ele>59.551723</ele>
        <time>2021-12-14T08:39:17Z</time>
      </trkpt>
      <trkpt lat="47.24441" lon="-1.58083">
        <ele>60.27313</ele>
        <time>2021-12-14T08:39:22Z</time>
      </trkpt>
      <trkpt lat="47.24438" lon="-1.58089">
        <ele>61.05242</ele>
        <time>2021-12-14T08:39:29Z</time>
      </trkpt>
      <trkpt lat="47.24436" lon="-1.58094">
        <ele>61.221714</ele>
        <time>2021-12-14T08:39:34Z</time>
      </trkpt>
      <trkpt lat="47.24433" lon="-1.58101">
        <ele>61.213116</ele>
        <time>2021-12-14T08:39:39Z</time>
      </trkpt>
      <trkpt lat="47.2443" lon="-1.58107">
        <ele>61.20879</ele>
        <time>2021-12-14T08:39:43Z</time>
      </trkpt>
      <trkpt lat="47.24429" lon="-1.58115">
        <ele>61.136612</ele>
        <time>2021-12-14T08:39:47Z</time>
      </trkpt>
      <trkpt lat="47.24426" lon="-1.58121">
        <ele>61.225483</ele>
        <time>2021-12-14T08:39:51Z</time>
      </trkpt>
      <trkpt lat="47.24425" lon="-1.58128">
        <ele>61.339417</ele>
        <time>2021-12-14T08:39:56Z</time>
      </trkpt>
      <trkpt lat="47.24422" lon="-1.58136">
        <ele>61.419365</ele>
        <time>2021-12-14T08:40:03Z</time>
      </trkpt>
      <trkpt lat="47.24418" lon="-1.58143">
        <ele>61.806248</ele>
        <time>2021-12-14T08:40:08Z</time>
      </trkpt>
      <trkpt lat="47.24414" lon="-1.58148">
        <ele>62.20611</ele>
        <time>2021-12-14T08:40:14Z</time>
      </trkpt>
      <trkpt lat="47.2441" lon="-1.58154">
        <ele>62.51273</ele>
        <time>2021-12-14T08:40:18Z</time>
      </trkpt>
      <trkpt lat="47.24407" lon="-1.58159">
        <ele>62.62964</ele>
        <time>2021-12-14T08:40:21Z</time>
      </trkpt>
      <trkpt lat="47.24402" lon="-1.58164">
        <ele>62.961887</ele>
        <time>2021-12-14T08:40:27Z</time>
      </trkpt>
      <trkpt lat="47.24397" lon="-1.5817">
        <ele>63.348267</ele>
        <time>2021-12-14T08:40:31Z</time>
      </trkpt>
      <trkpt lat="47.24392" lon="-1.58171">
        <ele>63.88647</ele>
        <time>2021-12-14T08:40:38Z</time>
      </trkpt>
      <trkpt lat="47.24386" lon="-1.58174">
        <ele>64.45994</ele>
        <time>2021-12-14T08:40:42Z</time>
      </trkpt>
      <trkpt lat="47.24382" lon="-1.58179">
        <ele>64.84442</ele>
        <time>2021-12-14T08:40:45Z</time>
      </trkpt>
      <trkpt lat="47.24379" lon="-1.58184">
        <ele>65.23</ele>
        <time>2021-12-14T08:40:49Z</time>
      </trkpt>
      <trkpt lat="47.24375" lon="-1.58188">
        <ele>65.84614</ele>
        <time>2021-12-14T08:40:54Z</time>
      </trkpt>
      <trkpt lat="47.24372" lon="-1.58196">
        <ele>66.29373</ele>
        <time>2021-12-14T08:40:58Z</time>
      </trkpt>
      <trkpt lat="47.2437" lon="-1.58202">
        <ele>66.50877</ele>
        <time>2021-12-14T08:41:01Z</time>
      </trkpt>
      <trkpt lat="47.24368" lon="-1.58207">
        <ele>67.15941</ele>
        <time>2021-12-14T08:41:08Z</time>
      </trkpt>
      <trkpt lat="47.24368" lon="-1.58207">
        <ele>67.15941</ele>
        <time>2021-12-14T08:41:08Z</time>
      </trkpt>
      <trkpt lat="47.24365" lon="-1.58215">
        <ele>67.708046</ele>
        <time>2021-12-14T08:41:14Z</time>
      </trkpt>
      <trkpt lat="47.24363" lon="-1.58223">
        <ele>68.1081</ele>
        <time>2021-12-14T08:41:18Z</time>
      </trkpt>
      <trkpt lat="47.24363" lon="-1.58224">
        <ele>69.011826</ele>
        <time>2021-12-14T08:41:23Z</time>
      </trkpt>
      <trkpt lat="47.24363" lon="-1.58224">
        <ele>69.011826</ele>
        <time>2021-12-14T08:41:23Z</time>
      </trkpt>
      <trkpt lat="47.24367" lon="-1.58212">
        <ele>70.11035</ele>
        <time>2021-12-14T08:41:45Z</time>
      </trkpt>
      <trkpt lat="47.24369" lon="-1.58206">
        <ele>70.75178</ele>
        <time>2021-12-14T08:41:51Z</time>
      </trkpt>
      <trkpt lat="47.24372" lon="-1.58197">
        <ele>71.22031</ele>
        <time>2021-12-14T08:41:55Z</time>
      </trkpt>
      <trkpt lat="47.24374" lon="-1.5819">
        <ele>71.61203</ele>
        <time>2021-12-14T08:41:58Z</time>
      </trkpt>
      <trkpt lat="47.24375" lon="-1.58184">
        <ele>72.08621</ele>
        <time>2021-12-14T08:42:02Z</time>
      </trkpt>
      <trkpt lat="47.24377" lon="-1.58177">
        <ele>72.559616</ele>
        <time>2021-12-14T08:42:06Z</time>
      </trkpt>
      <trkpt lat="47.2438" lon="-1.5817">
        <ele>72.89767</ele>
        <time>2021-12-14T08:42:09Z</time>
      </trkpt>
      <trkpt lat="47.24382" lon="-1.58163">
        <ele>73.3008</ele>
        <time>2021-12-14T08:42:13Z</time>
      </trkpt>
      <trkpt lat="47.24386" lon="-1.58157">
        <ele>73.739174</ele>
        <time>2021-12-14T08:42:18Z</time>
      </trkpt>
      <trkpt lat="47.24389" lon="-1.5815">
        <ele>73.960594</ele>
        <time>2021-12-14T08:42:22Z</time>
      </trkpt>
      <trkpt lat="47.24392" lon="-1.58144">
        <ele>74.05215</ele>
        <time>2021-12-14T08:42:26Z</time>
      </trkpt>
      <trkpt lat="47.24394" lon="-1.58138">
        <ele>74.011604</ele>
        <time>2021-12-14T08:42:30Z</time>
      </trkpt>
      <trkpt lat="47.24397" lon="-1.58131">
        <ele>73.85442</ele>
        <time>2021-12-14T08:42:35Z</time>
      </trkpt>
      <trkpt lat="47.24399" lon="-1.58123">
        <ele>73.7051</ele>
        <time>2021-12-14T08:42:39Z</time>
      </trkpt>
      <trkpt lat="47.24401" lon="-1.58115">
        <ele>73.53304</ele>
        <time>2021-12-14T08:42:44Z</time>
      </trkpt>
      <trkpt lat="47.24404" lon="-1.5811">
        <ele>73.42236</ele>
        <time>2021-12-14T08:42:47Z</time>
      </trkpt>
      <trkpt lat="47.24406" lon="-1.58103">
        <ele>73.28152</ele>
        <time>2021-12-14T08:42:51Z</time>
      </trkpt>
      <trkpt lat="47.24408" lon="-1.58097">
        <ele>73.146324</ele>
        <time>2021-12-14T08:42:55Z</time>
      </trkpt>
      <trkpt lat="47.2441" lon="-1.58089">
        <ele>73.04833</ele>
        <time>2021-12-14T08:42:58Z</time>
      </trkpt>
      <trkpt lat="47.24411" lon="-1.58081">
        <ele>73.0489</ele>
        <time>2021-12-14T08:43:02Z</time>
      </trkpt>
      <trkpt lat="47.24411" lon="-1.58074">
        <ele>73.20086</ele>
        <time>2021-12-14T08:43:06Z</time>
      </trkpt>
      <trkpt lat="47.24412" lon="-1.58067">
        <ele>73.38888</ele>
        <time>2021-12-14T08:43:09Z</time>
      </trkpt>
      <trkpt lat="47.24411" lon="-1.58059">
        <ele>73.665695</ele>
        <time>2021-12-14T08:43:13Z</time>
      </trkpt>
      <trkpt lat="47.24411" lon="-1.58051">
        <ele>73.894516</ele>
        <time>2021-12-14T08:43:16Z</time>
      </trkpt>
      <trkpt lat="47.2441" lon="-1.58044">
        <ele>74.13246</ele>
        <time>2021-12-14T08:43:19Z</time>
      </trkpt>
      <trkpt lat="47.2441" lon="-1.58036">
        <ele>74.41187</ele>
        <time>2021-12-14T08:43:23Z</time>
      </trkpt>
      <trkpt lat="47.24409" lon="-1.58028">
        <ele>74.79039</ele>
        <time>2021-12-14T08:43:29Z</time>
      </trkpt>
      <trkpt lat="47.24406" lon="-1.5802">
        <ele>75.05151</ele>
        <time>2021-12-14T08:43:33Z</time>
      </trkpt>
      <trkpt lat="47.24404" lon="-1.58015">
        <ele>75.34682</ele>
        <time>2021-12-14T08:43:38Z</time>
      </trkpt>
      <trkpt lat="47.244" lon="-1.5801">
        <ele>75.5851</ele>
        <time>2021-12-14T08:43:43Z</time>
      </trkpt>
      <trkpt lat="47.24396" lon="-1.58005">
        <ele>75.81531</ele>
        <time>2021-12-14T08:43:47Z</time>
      </trkpt>
      <trkpt lat="47.24394" lon="-1.57999">
        <ele>76.16176</ele>
        <time>2021-12-14T08:43:51Z</time>
      </trkpt>
      <trkpt lat="47.2439" lon="-1.57995">
        <ele>76.70695</ele>
        <time>2021-12-14T08:43:59Z</time>
      </trkpt>
      <trkpt lat="47.24389" lon="-1.57995">
        <ele>76.708855</ele>
        <time>2021-12-14T08:44:00Z</time>
      </trkpt>
      <trkpt lat="47.24389" lon="-1.57995">
        <ele>76.708855</ele>
        <time>2021-12-14T08:44:00Z</time>
      </trkpt>
      <trkpt lat="47.24382" lon="-1.57987">
        <ele>76.809364</ele>
        <time>2021-12-14T08:44:09Z</time>
      </trkpt>
      <trkpt lat="47.24378" lon="-1.57984">
        <ele>76.61879</ele>
        <time>2021-12-14T08:44:15Z</time>
      </trkpt>
      <trkpt lat="47.24374" lon="-1.57979">
        <ele>76.565506</ele>
        <time>2021-12-14T08:44:17Z</time>
      </trkpt>
      <trkpt lat="47.24369" lon="-1.57975">
        <ele>76.46393</ele>
        <time>2021-12-14T08:44:21Z</time>
      </trkpt>
      <trkpt lat="47.24365" lon="-1.57971">
        <ele>76.40168</ele>
        <time>2021-12-14T08:44:25Z</time>
      </trkpt>
      <trkpt lat="47.24361" lon="-1.57966">
        <ele>76.38541</ele>
        <time>2021-12-14T08:44:30Z</time>
      </trkpt>
      <trkpt lat="47.24357" lon="-1.57963">
        <ele>76.46392</ele>
        <time>2021-12-14T08:44:34Z</time>
      </trkpt>
      <trkpt lat="47.24352" lon="-1.57958">
        <ele>76.6004</ele>
        <time>2021-12-14T08:44:38Z</time>
      </trkpt>
      <trkpt lat="47.24347" lon="-1.57953">
        <ele>76.70164</ele>
        <time>2021-12-14T08:44:42Z</time>
      </trkpt>
      <trkpt lat="47.24344" lon="-1.57949">
        <ele>76.843895</ele>
        <time>2021-12-14T08:44:46Z</time>
      </trkpt>
      <trkpt lat="47.24339" lon="-1.57944">
        <ele>77.01581</ele>
        <time>2021-12-14T08:44:50Z</time>
      </trkpt>
      <trkpt lat="47.24335" lon="-1.57941">
        <ele>77.280174</ele>
        <time>2021-12-14T08:44:54Z</time>
      </trkpt>
      <trkpt lat="47.24332" lon="-1.57934">
        <ele>77.55293</ele>
        <time>2021-12-14T08:45:00Z</time>
      </trkpt>
      <trkpt lat="47.2433" lon="-1.57928">
        <ele>77.64588</ele>
        <time>2021-12-14T08:45:03Z</time>
      </trkpt>
      <trkpt lat="47.24327" lon="-1.5792">
        <ele>77.81227</ele>
        <time>2021-12-14T08:45:08Z</time>
      </trkpt>
      <trkpt lat="47.24326" lon="-1.57913">
        <ele>77.910095</ele>
        <time>2021-12-14T08:45:12Z</time>
      </trkpt>
      <trkpt lat="47.24325" lon="-1.57906">
        <ele>78.03167</ele>
        <time>2021-12-14T08:45:16Z</time>
      </trkpt>
      <trkpt lat="47.24326" lon="-1.57899">
        <ele>78.187126</ele>
        <time>2021-12-14T08:45:21Z</time>
      </trkpt>
      <trkpt lat="47.24327" lon="-1.57892">
        <ele>78.28164</ele>
        <time>2021-12-14T08:45:27Z</time>
      </trkpt>
      <trkpt lat="47.24328" lon="-1.57885">
        <ele>78.27617</ele>
        <time>2021-12-14T08:45:30Z</time>
      </trkpt>
      <trkpt lat="47.24328" lon="-1.57877">
        <ele>78.13223</ele>
        <time>2021-12-14T08:45:35Z</time>
      </trkpt>
      <trkpt lat="47.24327" lon="-1.5787">
        <ele>78.01828</ele>
        <time>2021-12-14T08:45:40Z</time>
      </trkpt>
      <trkpt lat="47.24322" lon="-1.57867">
        <ele>77.90704</ele>
        <time>2021-12-14T08:45:44Z</time>
      </trkpt>
      <trkpt lat="47.24317" lon="-1.57868">
        <ele>77.740135</ele>
        <time>2021-12-14T08:45:48Z</time>
      </trkpt>
      <trkpt lat="47.24312" lon="-1.57871">
        <ele>77.42022</ele>
        <time>2021-12-14T08:45:53Z</time>
      </trkpt>
      <trkpt lat="47.24308" lon="-1.57873">
        <ele>77.26092</ele>
        <time>2021-12-14T08:45:57Z</time>
      </trkpt>
      <trkpt lat="47.24303" lon="-1.57875">
        <ele>77.08506</ele>
        <time>2021-12-14T08:46:02Z</time>
      </trkpt>
      <trkpt lat="47.24298" lon="-1.57877">
        <ele>77.0246</ele>
        <time>2021-12-14T08:46:05Z</time>
      </trkpt>
      <trkpt lat="47.24292" lon="-1.5788">
        <ele>76.990906</ele>
        <time>2021-12-14T08:46:09Z</time>
      </trkpt>
      <trkpt lat="47.24288" lon="-1.57882">
        <ele>77.10978</ele>
        <time>2021-12-14T08:46:13Z</time>
      </trkpt>
      <trkpt lat="47.24283" lon="-1.57882">
        <ele>77.17504</ele>
        <time>2021-12-14T08:46:16Z</time>
      </trkpt>
      <trkpt lat="47.24278" lon="-1.57883">
        <ele>77.06841</ele>
        <time>2021-12-14T08:46:20Z</time>
      </trkpt>
      <trkpt lat="47.24273" lon="-1.57883">
        <ele>76.92884</ele>
        <time>2021-12-14T08:46:24Z</time>
      </trkpt>
      <trkpt lat="47.24268" lon="-1.57882">
        <ele>76.87921</ele>
        <time>2021-12-14T08:46:27Z</time>
      </trkpt>
      <trkpt lat="47.24263" lon="-1.57881">
        <ele>76.89256</ele>
        <time>2021-12-14T08:46:30Z</time>
      </trkpt>
      <trkpt lat="47.24258" lon="-1.5788">
        <ele>77.07002</ele>
        <time>2021-12-14T08:46:34Z</time>
      </trkpt>
      <trkpt lat="47.24253" lon="-1.57878">
        <ele>77.33818</ele>
        <time>2021-12-14T08:46:37Z</time>
      </trkpt>
      <trkpt lat="47.24249" lon="-1.57875">
        <ele>77.85084</ele>
        <time>2021-12-14T08:46:42Z</time>
      </trkpt>
      <trkpt lat="47.24244" lon="-1.57871">
        <ele>78.201744</ele>
        <time>2021-12-14T08:46:51Z</time>
      </trkpt>
      <trkpt lat="47.24239" lon="-1.57867">
        <ele>78.34065</ele>
        <time>2021-12-14T08:46:56Z</time>
      </trkpt>
      <trkpt lat="47.24234" lon="-1.57864">
        <ele>78.41178</ele>
        <time>2021-12-14T08:47:00Z</time>
      </trkpt>
      <trkpt lat="47.24229" lon="-1.57859">
        <ele>78.6184</ele>
        <time>2021-12-14T08:47:05Z</time>
      </trkpt>
      <trkpt lat="47.24225" lon="-1.57856">
        <ele>78.875755</ele>
        <time>2021-12-14T08:47:09Z</time>
      </trkpt>
      <trkpt lat="47.2422" lon="-1.57853">
        <ele>79.2007</ele>
        <time>2021-12-14T08:47:13Z</time>
      </trkpt>
      <trkpt lat="47.24219" lon="-1.57852">
        <ele>79.335205</ele>
        <time>2021-12-14T08:47:17Z</time>
      </trkpt>
      <trkpt lat="47.24219" lon="-1.57852">
        <ele>79.335205</ele>
        <time>2021-12-14T08:47:17Z</time>
      </trkpt>
      <trkpt lat="47.2421" lon="-1.57845">
        <ele>86.10916</ele>
        <time>2021-12-14T08:56:16Z</time>
      </trkpt>
      <trkpt lat="47.24209" lon="-1.57844">
        <ele>86.109726</ele>
        <time>2021-12-14T08:56:17Z</time>
      </trkpt>
      <trkpt lat="47.24207" lon="-1.57837">
        <ele>86.08693</ele>
        <time>2021-12-14T08:56:21Z</time>
      </trkpt>
      <trkpt lat="47.24206" lon="-1.5783">
        <ele>85.99827</ele>
        <time>2021-12-14T08:56:25Z</time>
      </trkpt>
      <trkpt lat="47.24205" lon="-1.57823">
        <ele>85.75382</ele>
        <time>2021-12-14T08:56:30Z</time>
      </trkpt>
      <trkpt lat="47.24205" lon="-1.57815">
        <ele>85.5737</ele>
        <time>2021-12-14T08:56:34Z</time>
      </trkpt>
      <trkpt lat="47.24206" lon="-1.57808">
        <ele>85.44859</ele>
        <time>2021-12-14T08:56:38Z</time>
      </trkpt>
      <trkpt lat="47.24208" lon="-1.578">
        <ele>85.39877</ele>
        <time>2021-12-14T08:56:42Z</time>
      </trkpt>
      <trkpt lat="47.2421" lon="-1.57794">
        <ele>85.34178</ele>
        <time>2021-12-14T08:56:46Z</time>
      </trkpt>
      <trkpt lat="47.24215" lon="-1.57794">
        <ele>85.355034</ele>
        <time>2021-12-14T08:56:49Z</time>
      </trkpt>
      <trkpt lat="47.2422" lon="-1.57792">
        <ele>85.44942</ele>
        <time>2021-12-14T08:56:53Z</time>
      </trkpt>
      <trkpt lat="47.24225" lon="-1.57791">
        <ele>85.55883</ele>
        <time>2021-12-14T08:56:57Z</time>
      </trkpt>
      <trkpt lat="47.24232" lon="-1.5779">
        <ele>85.62344</ele>
        <time>2021-12-14T08:57:00Z</time>
      </trkpt>
      <trkpt lat="47.24237" lon="-1.5779">
        <ele>85.77278</ele>
        <time>2021-12-14T08:57:04Z</time>
      </trkpt>
      <trkpt lat="47.24243" lon="-1.57787">
        <ele>85.97153</ele>
        <time>2021-12-14T08:57:08Z</time>
      </trkpt>
      <trkpt lat="47.24249" lon="-1.57786">
        <ele>86.05599</ele>
        <time>2021-12-14T08:57:12Z</time>
      </trkpt>
      <trkpt lat="47.24255" lon="-1.57785">
        <ele>86.08397</ele>
        <time>2021-12-14T08:57:15Z</time>
      </trkpt>
      <trkpt lat="47.2426" lon="-1.57785">
        <ele>86.11059</ele>
        <time>2021-12-14T08:57:18Z</time>
      </trkpt>
      <trkpt lat="47.24264" lon="-1.57785">
        <ele>86.03408</ele>
        <time>2021-12-14T08:57:21Z</time>
      </trkpt>
      <trkpt lat="47.2427" lon="-1.57785">
        <ele>85.757866</ele>
        <time>2021-12-14T08:57:25Z</time>
      </trkpt>
      <trkpt lat="47.24275" lon="-1.57786">
        <ele>85.393906</ele>
        <time>2021-12-14T08:57:28Z</time>
      </trkpt>
      <trkpt lat="47.2428" lon="-1.57787">
        <ele>85.08002</ele>
        <time>2021-12-14T08:57:31Z</time>
      </trkpt>
      <trkpt lat="47.24285" lon="-1.57788">
        <ele>84.57817</ele>
        <time>2021-12-14T08:57:37Z</time>
      </trkpt>
      <trkpt lat="47.2429" lon="-1.57788">
        <ele>84.23972</ele>
        <time>2021-12-14T08:57:41Z</time>
      </trkpt>
      <trkpt lat="47.24296" lon="-1.57787">
        <ele>83.96126</ele>
        <time>2021-12-14T08:57:46Z</time>
      </trkpt>
      <trkpt lat="47.243" lon="-1.57784">
        <ele>83.75108</ele>
        <time>2021-12-14T08:57:49Z</time>
      </trkpt>
      <trkpt lat="47.24305" lon="-1.57781">
        <ele>83.47111</ele>
        <time>2021-12-14T08:57:53Z</time>
      </trkpt>
      <trkpt lat="47.24309" lon="-1.57778">
        <ele>83.19936</ele>
        <time>2021-12-14T08:57:57Z</time>
      </trkpt>
      <trkpt lat="47.24313" lon="-1.57777">
        <ele>82.97427</ele>
        <time>2021-12-14T08:58:01Z</time>
      </trkpt>
      <trkpt lat="47.24319" lon="-1.57776">
        <ele>82.62586</ele>
        <time>2021-12-14T08:58:06Z</time>
      </trkpt>
      <trkpt lat="47.24324" lon="-1.57775">
        <ele>82.3045</ele>
        <time>2021-12-14T08:58:10Z</time>
      </trkpt>
      <trkpt lat="47.24328" lon="-1.57778">
        <ele>81.91749</ele>
        <time>2021-12-14T08:58:16Z</time>
      </trkpt>
      <trkpt lat="47.24329" lon="-1.57778">
        <ele>81.86785</ele>
        <time>2021-12-14T08:58:18Z</time>
      </trkpt>
      <trkpt lat="47.24329" lon="-1.57778">
        <ele>81.86785</ele>
        <time>2021-12-14T08:58:18Z</time>
      </trkpt>
      <trkpt lat="47.24336" lon="-1.57776">
        <ele>83.807976</ele>
        <time>2021-12-14T08:59:00Z</time>
      </trkpt>
      <trkpt lat="47.24342" lon="-1.57774">
        <ele>84.31914</ele>
        <time>2021-12-14T08:59:04Z</time>
      </trkpt>
      <trkpt lat="47.24347" lon="-1.57772">
        <ele>84.87274</ele>
        <time>2021-12-14T08:59:09Z</time>
      </trkpt>
      <trkpt lat="47.24352" lon="-1.57772">
        <ele>85.14273</ele>
        <time>2021-12-14T08:59:13Z</time>
      </trkpt>
      <trkpt lat="47.24357" lon="-1.57773">
        <ele>85.30136</ele>
        <time>2021-12-14T08:59:17Z</time>
      </trkpt>
      <trkpt lat="47.24362" lon="-1.57773">
        <ele>85.477776</ele>
        <time>2021-12-14T08:59:20Z</time>
      </trkpt>
      <trkpt lat="47.24368" lon="-1.57772">
        <ele>85.91673</ele>
        <time>2021-12-14T08:59:25Z</time>
      </trkpt>
      <trkpt lat="47.24373" lon="-1.57769">
        <ele>86.31772</ele>
        <time>2021-12-14T08:59:30Z</time>
      </trkpt>
      <trkpt lat="47.24374" lon="-1.57768">
        <ele>86.38923</ele>
        <time>2021-12-14T08:59:31Z</time>
      </trkpt>
      <trkpt lat="47.24375" lon="-1.57767">
        <ele>86.4373</ele>
        <time>2021-12-14T08:59:32Z</time>
      </trkpt>
      <trkpt lat="47.24375" lon="-1.57767">
        <ele>86.48948</ele>
        <time>2021-12-14T08:59:33Z</time>
      </trkpt>
      <trkpt lat="47.24376" lon="-1.57766">
        <ele>86.54063</ele>
        <time>2021-12-14T08:59:34Z</time>
      </trkpt>
      <trkpt lat="47.24378" lon="-1.57765">
        <ele>86.57559</ele>
        <time>2021-12-14T08:59:35Z</time>
      </trkpt>
      <trkpt lat="47.24379" lon="-1.57764">
        <ele>86.58454</ele>
        <time>2021-12-14T08:59:36Z</time>
      </trkpt>
      <trkpt lat="47.24381" lon="-1.57763">
        <ele>86.56675</ele>
        <time>2021-12-14T08:59:37Z</time>
      </trkpt>
      <trkpt lat="47.24387" lon="-1.57761">
        <ele>86.42026</ele>
        <time>2021-12-14T08:59:42Z</time>
      </trkpt>
      <trkpt lat="47.24391" lon="-1.57758">
        <ele>86.25672</ele>
        <time>2021-12-14T08:59:46Z</time>
      </trkpt>
      <trkpt lat="47.24396" lon="-1.57755">
        <ele>85.909966</ele>
        <time>2021-12-14T08:59:50Z</time>
      </trkpt>
      <trkpt lat="47.24402" lon="-1.57754">
        <ele>85.52462</ele>
        <time>2021-12-14T08:59:54Z</time>
      </trkpt>
      <trkpt lat="47.24407" lon="-1.57753">
        <ele>85.02964</ele>
        <time>2021-12-14T08:59:58Z</time>
      </trkpt>
      <trkpt lat="47.24411" lon="-1.5775">
        <ele>84.10546</ele>
        <time>2021-12-14T09:00:06Z</time>
      </trkpt>
      <trkpt lat="47.24417" lon="-1.57748">
        <ele>83.20292</ele>
        <time>2021-12-14T09:00:11Z</time>
      </trkpt>
      <trkpt lat="47.24423" lon="-1.57746">
        <ele>82.490364</ele>
        <time>2021-12-14T09:00:14Z</time>
      </trkpt>
      <trkpt lat="47.24427" lon="-1.57743">
        <ele>81.44946</ele>
        <time>2021-12-14T09:00:18Z</time>
      </trkpt>
      <trkpt lat="47.24432" lon="-1.57742">
        <ele>80.08575</ele>
        <time>2021-12-14T09:00:24Z</time>
      </trkpt>
      <trkpt lat="47.24437" lon="-1.57738">
        <ele>79.56515</ele>
        <time>2021-12-14T09:00:27Z</time>
      </trkpt>
      <trkpt lat="47.24442" lon="-1.57735">
        <ele>78.91244</ele>
        <time>2021-12-14T09:00:31Z</time>
      </trkpt>
      <trkpt lat="47.24448" lon="-1.57733">
        <ele>78.5035</ele>
        <time>2021-12-14T09:00:34Z</time>
      </trkpt>
      <trkpt lat="47.24453" lon="-1.5773">
        <ele>78.08353</ele>
        <time>2021-12-14T09:00:37Z</time>
      </trkpt>
      <trkpt lat="47.24458" lon="-1.57729">
        <ele>77.62414</ele>
        <time>2021-12-14T09:00:41Z</time>
      </trkpt>
      <trkpt lat="47.24463" lon="-1.57729">
        <ele>77.350784</ele>
        <time>2021-12-14T09:00:44Z</time>
      </trkpt>
      <trkpt lat="47.24468" lon="-1.57731">
        <ele>76.9969</ele>
        <time>2021-12-14T09:00:48Z</time>
      </trkpt>
      <trkpt lat="47.24474" lon="-1.57734">
        <ele>76.440704</ele>
        <time>2021-12-14T09:00:52Z</time>
      </trkpt>
      <trkpt lat="47.24477" lon="-1.5774">
        <ele>76.05933</ele>
        <time>2021-12-14T09:00:54Z</time>
      </trkpt>
      <trkpt lat="47.24481" lon="-1.57745">
        <ele>75.63351</ele>
        <time>2021-12-14T09:00:57Z</time>
      </trkpt>
      <trkpt lat="47.24482" lon="-1.57752">
        <ele>75.140144</ele>
        <time>2021-12-14T09:01:02Z</time>
      </trkpt>
      <trkpt lat="47.24482" lon="-1.57761">
        <ele>74.81194</ele>
        <time>2021-12-14T09:01:06Z</time>
      </trkpt>
      <trkpt lat="47.24482" lon="-1.57767">
        <ele>74.55028</ele>
        <time>2021-12-14T09:01:09Z</time>
      </trkpt>
      <trkpt lat="47.24484" lon="-1.57775">
        <ele>74.19124</ele>
        <time>2021-12-14T09:01:14Z</time>
      </trkpt>
      <trkpt lat="47.24483" lon="-1.57784">
        <ele>74.00015</ele>
        <time>2021-12-14T09:01:20Z</time>
      </trkpt>
      <trkpt lat="47.24482" lon="-1.57795">
        <ele>73.572975</ele>
        <time>2021-12-14T09:01:26Z</time>
      </trkpt>
      <trkpt lat="47.24482" lon="-1.57803">
        <ele>73.5341</ele>
        <time>2021-12-14T09:01:29Z</time>
      </trkpt>
      <trkpt lat="47.24483" lon="-1.57809">
        <ele>73.09961</ele>
        <time>2021-12-14T09:01:34Z</time>
      </trkpt>
      <trkpt lat="47.24485" lon="-1.57816">
        <ele>72.38515</ele>
        <time>2021-12-14T09:01:40Z</time>
      </trkpt>
      <trkpt lat="47.24485" lon="-1.57823">
        <ele>71.83365</ele>
        <time>2021-12-14T09:01:44Z</time>
      </trkpt>
      <trkpt lat="47.24486" lon="-1.57831">
        <ele>71.38642</ele>
        <time>2021-12-14T09:01:48Z</time>
      </trkpt>
      <trkpt lat="47.24485" lon="-1.57839">
        <ele>71.08726</ele>
        <time>2021-12-14T09:01:52Z</time>
      </trkpt>
      <trkpt lat="47.24484" lon="-1.57848">
        <ele>70.83632</ele>
        <time>2021-12-14T09:01:55Z</time>
      </trkpt>
      <trkpt lat="47.24482" lon="-1.57856">
        <ele>70.556015</ele>
        <time>2021-12-14T09:01:58Z</time>
      </trkpt>
      <trkpt lat="47.24481" lon="-1.57864">
        <ele>70.37833</ele>
        <time>2021-12-14T09:02:03Z</time>
      </trkpt>
      <trkpt lat="47.24479" lon="-1.57873">
        <ele>70.34128</ele>
        <time>2021-12-14T09:02:07Z</time>
      </trkpt>
      <trkpt lat="47.24478" lon="-1.5788">
        <ele>70.50669</ele>
        <time>2021-12-14T09:02:11Z</time>
      </trkpt>
      <trkpt lat="47.24476" lon="-1.57887">
        <ele>70.57354</ele>
        <time>2021-12-14T09:02:13Z</time>
      </trkpt>
      <trkpt lat="47.24474" lon="-1.57895">
        <ele>70.59253</ele>
        <time>2021-12-14T09:02:16Z</time>
      </trkpt>
      <trkpt lat="47.24472" lon="-1.57902">
        <ele>70.6808</ele>
        <time>2021-12-14T09:02:20Z</time>
      </trkpt>
      <trkpt lat="47.24469" lon="-1.57911">
        <ele>70.71333</ele>
        <time>2021-12-14T09:02:24Z</time>
      </trkpt>
      <trkpt lat="47.24469" lon="-1.57919">
        <ele>70.80577</ele>
        <time>2021-12-14T09:02:30Z</time>
      </trkpt>
      <trkpt lat="47.2447" lon="-1.57926">
        <ele>70.80458</ele>
        <time>2021-12-14T09:02:33Z</time>
      </trkpt>
      <trkpt lat="47.24476" lon="-1.57925">
        <ele>70.4245</ele>
        <time>2021-12-14T09:02:41Z</time>
      </trkpt>
      <trkpt lat="47.24479" lon="-1.57919">
        <ele>70.11956</ele>
        <time>2021-12-14T09:02:44Z</time>
      </trkpt>
      <trkpt lat="47.24485" lon="-1.57919">
        <ele>69.73297</ele>
        <time>2021-12-14T09:02:48Z</time>
      </trkpt>
      <trkpt lat="47.2449" lon="-1.57917">
        <ele>69.091965</ele>
        <time>2021-12-14T09:02:54Z</time>
      </trkpt>
      <trkpt lat="47.24495" lon="-1.57913">
        <ele>68.04613</ele>
        <time>2021-12-14T09:03:01Z</time>
      </trkpt>
      <trkpt lat="47.24503" lon="-1.57913">
        <ele>67.138336</ele>
        <time>2021-12-14T09:03:05Z</time>
      </trkpt>
      <trkpt lat="47.24508" lon="-1.57909">
        <ele>65.733345</ele>
        <time>2021-12-14T09:03:11Z</time>
      </trkpt>
      <trkpt lat="47.24513" lon="-1.57907">
        <ele>64.51436</ele>
        <time>2021-12-14T09:03:16Z</time>
      </trkpt>
      <trkpt lat="47.24517" lon="-1.57901">
        <ele>63.385525</ele>
        <time>2021-12-14T09:03:21Z</time>
      </trkpt>
      <trkpt lat="47.24521" lon="-1.57895">
        <ele>62.65804</ele>
        <time>2021-12-14T09:03:25Z</time>
      </trkpt>
      <trkpt lat="47.24527" lon="-1.5789">
        <ele>61.857124</ele>
        <time>2021-12-14T09:03:29Z</time>
      </trkpt>
      <trkpt lat="47.2453" lon="-1.57885">
        <ele>60.79603</ele>
        <time>2021-12-14T09:03:34Z</time>
      </trkpt>
      <trkpt lat="47.24533" lon="-1.5788">
        <ele>60.175613</ele>
        <time>2021-12-14T09:03:37Z</time>
      </trkpt>
      <trkpt lat="47.24537" lon="-1.57875">
        <ele>59.395367</ele>
        <time>2021-12-14T09:03:41Z</time>
      </trkpt>
      <trkpt lat="47.24542" lon="-1.5787">
        <ele>58.752327</ele>
        <time>2021-12-14T09:03:45Z</time>
      </trkpt>
      <trkpt lat="47.24545" lon="-1.57864">
        <ele>58.29001</ele>
        <time>2021-12-14T09:03:49Z</time>
      </trkpt>
      <trkpt lat="47.2455" lon="-1.57857">
        <ele>57.97427</ele>
        <time>2021-12-14T09:03:53Z</time>
      </trkpt>
      <trkpt lat="47.24553" lon="-1.57852">
        <ele>57.87084</ele>
        <time>2021-12-14T09:03:57Z</time>
      </trkpt>
      <trkpt lat="47.24556" lon="-1.57847">
        <ele>57.9928</ele>
        <time>2021-12-14T09:04:01Z</time>
      </trkpt>
      <trkpt lat="47.24559" lon="-1.57842">
        <ele>58.013573</ele>
        <time>2021-12-14T09:04:06Z</time>
      </trkpt>
      <trkpt lat="47.24564" lon="-1.57832">
        <ele>57.971817</ele>
        <time>2021-12-14T09:04:11Z</time>
      </trkpt>
      <trkpt lat="47.24567" lon="-1.57826">
        <ele>57.753475</ele>
        <time>2021-12-14T09:04:15Z</time>
      </trkpt>
      <trkpt lat="47.24571" lon="-1.5782">
        <ele>57.668533</ele>
        <time>2021-12-14T09:04:18Z</time>
      </trkpt>
      <trkpt lat="47.24575" lon="-1.57814">
        <ele>57.52153</ele>
        <time>2021-12-14T09:04:21Z</time>
      </trkpt>
      <trkpt lat="47.24579" lon="-1.57806">
        <ele>57.137043</ele>
        <time>2021-12-14T09:04:26Z</time>
      </trkpt>
      <trkpt lat="47.24583" lon="-1.57799">
        <ele>56.737423</ele>
        <time>2021-12-14T09:04:30Z</time>
      </trkpt>
      <trkpt lat="47.24585" lon="-1.57794">
        <ele>56.42162</ele>
        <time>2021-12-14T09:04:33Z</time>
      </trkpt>
      <trkpt lat="47.24588" lon="-1.57787">
        <ele>56.02981</ele>
        <time>2021-12-14T09:04:37Z</time>
      </trkpt>
      <trkpt lat="47.24591" lon="-1.57779">
        <ele>55.63933</ele>
        <time>2021-12-14T09:04:42Z</time>
      </trkpt>
      <trkpt lat="47.24594" lon="-1.57772">
        <ele>55.42537</ele>
        <time>2021-12-14T09:04:46Z</time>
      </trkpt>
      <trkpt lat="47.24596" lon="-1.57764">
        <ele>55.320705</ele>
        <time>2021-12-14T09:04:50Z</time>
      </trkpt>
      <trkpt lat="47.24597" lon="-1.57757">
        <ele>55.239887</ele>
        <time>2021-12-14T09:04:54Z</time>
      </trkpt>
      <trkpt lat="47.24597" lon="-1.5775">
        <ele>55.165676</ele>
        <time>2021-12-14T09:04:57Z</time>
      </trkpt>
      <trkpt lat="47.24597" lon="-1.57741">
        <ele>55.031628</ele>
        <time>2021-12-14T09:05:02Z</time>
      </trkpt>
      <trkpt lat="47.24597" lon="-1.57734">
        <ele>54.915733</ele>
        <time>2021-12-14T09:05:06Z</time>
      </trkpt>
      <trkpt lat="47.24599" lon="-1.57727">
        <ele>54.727703</ele>
        <time>2021-12-14T09:05:11Z</time>
      </trkpt>
      <trkpt lat="47.24601" lon="-1.57719">
        <ele>54.58425</ele>
        <time>2021-12-14T09:05:15Z</time>
      </trkpt>
      <trkpt lat="47.24604" lon="-1.57712">
        <ele>54.45483</ele>
        <time>2021-12-14T09:05:20Z</time>
      </trkpt>
      <trkpt lat="47.24608" lon="-1.57706">
        <ele>54.393623</ele>
        <time>2021-12-14T09:05:24Z</time>
      </trkpt>
      <trkpt lat="47.24613" lon="-1.57704">
        <ele>54.380962</ele>
        <time>2021-12-14T09:05:28Z</time>
      </trkpt>
      <trkpt lat="47.24619" lon="-1.57707">
        <ele>54.350445</ele>
        <time>2021-12-14T09:05:32Z</time>
      </trkpt>
      <trkpt lat="47.24623" lon="-1.57711">
        <ele>54.445248</ele>
        <time>2021-12-14T09:05:36Z</time>
      </trkpt>
      <trkpt lat="47.24627" lon="-1.57714">
        <ele>54.686836</ele>
        <time>2021-12-14T09:05:40Z</time>
      </trkpt>
      <trkpt lat="47.24633" lon="-1.57717">
        <ele>55.082848</ele>
        <time>2021-12-14T09:05:44Z</time>
      </trkpt>
      <trkpt lat="47.24636" lon="-1.57722">
        <ele>55.444424</ele>
        <time>2021-12-14T09:05:48Z</time>
      </trkpt>
      <trkpt lat="47.24641" lon="-1.57726">
        <ele>55.75173</ele>
        <time>2021-12-14T09:05:52Z</time>
      </trkpt>
      <trkpt lat="47.24646" lon="-1.57729">
        <ele>56.190346</ele>
        <time>2021-12-14T09:05:56Z</time>
      </trkpt>
      <trkpt lat="47.2465" lon="-1.57732">
        <ele>56.586395</ele>
        <time>2021-12-14T09:06:00Z</time>
      </trkpt>
      <trkpt lat="47.24655" lon="-1.57735">
        <ele>56.838364</ele>
        <time>2021-12-14T09:06:04Z</time>
      </trkpt>
      <trkpt lat="47.2466" lon="-1.57739">
        <ele>56.996338</ele>
        <time>2021-12-14T09:06:08Z</time>
      </trkpt>
      <trkpt lat="47.24666" lon="-1.57742">
        <ele>57.144737</ele>
        <time>2021-12-14T09:06:12Z</time>
      </trkpt>
      <trkpt lat="47.2467" lon="-1.57745">
        <ele>57.281597</ele>
        <time>2021-12-14T09:06:15Z</time>
      </trkpt>
      <trkpt lat="47.24675" lon="-1.57746">
        <ele>57.548725</ele>
        <time>2021-12-14T09:06:20Z</time>
      </trkpt>
      <trkpt lat="47.2468" lon="-1.57748">
        <ele>57.99435</ele>
        <time>2021-12-14T09:06:25Z</time>
      </trkpt>
      <trkpt lat="47.24685" lon="-1.57745">
        <ele>58.615845</ele>
        <time>2021-12-14T09:06:35Z</time>
      </trkpt>
      <trkpt lat="47.24686" lon="-1.57738">
        <ele>58.843422</ele>
        <time>2021-12-14T09:06:39Z</time>
      </trkpt>
      <trkpt lat="47.24687" lon="-1.57734">
        <ele>59.02387</ele>
        <time>2021-12-14T09:06:43Z</time>
      </trkpt>
      <trkpt lat="47.24687" lon="-1.57734">
        <ele>59.02387</ele>
        <time>2021-12-14T09:06:43Z</time>
      </trkpt>
      <trkpt lat="47.24689" lon="-1.57724">
        <ele>59.610714</ele>
        <time>2021-12-14T09:06:58Z</time>
      </trkpt>
      <trkpt lat="47.24691" lon="-1.57722">
        <ele>59.99601</ele>
        <time>2021-12-14T09:07:04Z</time>
      </trkpt>
      <trkpt lat="47.24691" lon="-1.57722">
        <ele>59.99601</ele>
        <time>2021-12-14T09:07:04Z</time>
      </trkpt>
      <trkpt lat="47.247" lon="-1.5772">
        <ele>59.78672</ele>
        <time>2021-12-14T09:07:10Z</time>
      </trkpt>
      <trkpt lat="47.24705" lon="-1.57723">
        <ele>59.34453</ele>
        <time>2021-12-14T09:07:14Z</time>
      </trkpt>
      <trkpt lat="47.2471" lon="-1.57725">
        <ele>58.88702</ele>
        <time>2021-12-14T09:07:18Z</time>
      </trkpt>
      <trkpt lat="47.24715" lon="-1.57728">
        <ele>58.526875</ele>
        <time>2021-12-14T09:07:22Z</time>
      </trkpt>
      <trkpt lat="47.2472" lon="-1.57729">
        <ele>58.26404</ele>
        <time>2021-12-14T09:07:26Z</time>
      </trkpt>
      <trkpt lat="47.24725" lon="-1.57732">
        <ele>58.09707</ele>
        <time>2021-12-14T09:07:30Z</time>
      </trkpt>
      <trkpt lat="47.2473" lon="-1.57734">
        <ele>58.047276</ele>
        <time>2021-12-14T09:07:36Z</time>
      </trkpt>
      <trkpt lat="47.24731" lon="-1.57735">
        <ele>58.205902</ele>
        <time>2021-12-14T09:07:39Z</time>
      </trkpt>
      <trkpt lat="47.24731" lon="-1.57735">
        <ele>58.205902</ele>
        <time>2021-12-14T09:07:39Z</time>
      </trkpt>
      <trkpt lat="47.24737" lon="-1.57728">
        <ele>58.59512</ele>
        <time>2021-12-14T09:07:56Z</time>
      </trkpt>
      <trkpt lat="47.24735" lon="-1.57721">
        <ele>58.600727</ele>
        <time>2021-12-14T09:08:02Z</time>
      </trkpt>
      <trkpt lat="47.24731" lon="-1.57715">
        <ele>58.537254</ele>
        <time>2021-12-14T09:08:06Z</time>
      </trkpt>
      <trkpt lat="47.24727" lon="-1.57711">
        <ele>58.29135</ele>
        <time>2021-12-14T09:08:11Z</time>
      </trkpt>
      <trkpt lat="47.24722" lon="-1.57707">
        <ele>57.92073</ele>
        <time>2021-12-14T09:08:16Z</time>
      </trkpt>
      <trkpt lat="47.24718" lon="-1.577">
        <ele>57.67511</ele>
        <time>2021-12-14T09:08:20Z</time>
      </trkpt>
      <trkpt lat="47.24715" lon="-1.57695">
        <ele>57.420364</ele>
        <time>2021-12-14T09:08:23Z</time>
      </trkpt>
      <trkpt lat="47.24711" lon="-1.57689">
        <ele>57.135666</ele>
        <time>2021-12-14T09:08:26Z</time>
      </trkpt>
      <trkpt lat="47.24709" lon="-1.57684">
        <ele>56.920128</ele>
        <time>2021-12-14T09:08:28Z</time>
      </trkpt>
      <trkpt lat="47.24706" lon="-1.57678">
        <ele>56.67728</ele>
        <time>2021-12-14T09:08:30Z</time>
      </trkpt>
      <trkpt lat="47.24703" lon="-1.57671">
        <ele>56.267994</ele>
        <time>2021-12-14T09:08:34Z</time>
      </trkpt>
      <trkpt lat="47.24701" lon="-1.57665">
        <ele>55.962948</ele>
        <time>2021-12-14T09:08:37Z</time>
      </trkpt>
      <trkpt lat="47.24698" lon="-1.57659">
        <ele>55.547718</ele>
        <time>2021-12-14T09:08:41Z</time>
      </trkpt>
      <trkpt lat="47.24694" lon="-1.57654">
        <ele>55.28885</ele>
        <time>2021-12-14T09:08:45Z</time>
      </trkpt>
      <trkpt lat="47.24691" lon="-1.57648">
        <ele>55.224136</ele>
        <time>2021-12-14T09:08:48Z</time>
      </trkpt>
      <trkpt lat="47.24688" lon="-1.57642">
        <ele>55.184353</ele>
        <time>2021-12-14T09:08:51Z</time>
      </trkpt>
      <trkpt lat="47.24685" lon="-1.57636">
        <ele>55.23303</ele>
        <time>2021-12-14T09:08:54Z</time>
      </trkpt>
      <trkpt lat="47.24681" lon="-1.5763">
        <ele>55.411728</ele>
        <time>2021-12-14T09:08:58Z</time>
      </trkpt>
      <trkpt lat="47.24676" lon="-1.57631">
        <ele>55.687435</ele>
        <time>2021-12-14T09:09:05Z</time>
      </trkpt>
      <trkpt lat="47.24672" lon="-1.57633">
        <ele>55.57502</ele>
        <time>2021-12-14T09:09:11Z</time>
      </trkpt>
      <trkpt lat="47.24666" lon="-1.57633">
        <ele>55.455727</ele>
        <time>2021-12-14T09:09:14Z</time>
      </trkpt>
      <trkpt lat="47.24661" lon="-1.57629">
        <ele>55.345135</ele>
        <time>2021-12-14T09:09:17Z</time>
      </trkpt>
      <trkpt lat="47.24657" lon="-1.57625">
        <ele>55.138374</ele>
        <time>2021-12-14T09:09:21Z</time>
      </trkpt>
      <trkpt lat="47.24653" lon="-1.5762">
        <ele>55.051407</ele>
        <time>2021-12-14T09:09:26Z</time>
      </trkpt>
      <trkpt lat="47.24648" lon="-1.57615">
        <ele>55.13373</ele>
        <time>2021-12-14T09:09:29Z</time>
      </trkpt>
      <trkpt lat="47.24645" lon="-1.57611">
        <ele>55.298904</ele>
        <time>2021-12-14T09:09:32Z</time>
      </trkpt>
      <trkpt lat="47.2464" lon="-1.57607">
        <ele>55.423134</ele>
        <time>2021-12-14T09:09:35Z</time>
      </trkpt>
      <trkpt lat="47.24636" lon="-1.57605">
        <ele>55.62403</ele>
        <time>2021-12-14T09:09:39Z</time>
      </trkpt>
      <trkpt lat="47.24632" lon="-1.57602">
        <ele>55.916958</ele>
        <time>2021-12-14T09:09:44Z</time>
      </trkpt>
      <trkpt lat="47.24628" lon="-1.57597">
        <ele>56.19258</ele>
        <time>2021-12-14T09:09:48Z</time>
      </trkpt>
      <trkpt lat="47.24624" lon="-1.57592">
        <ele>56.63335</ele>
        <time>2021-12-14T09:09:56Z</time>
      </trkpt>
      <trkpt lat="47.24619" lon="-1.57588">
        <ele>56.8047</ele>
        <time>2021-12-14T09:09:58Z</time>
      </trkpt>
      <trkpt lat="47.24614" lon="-1.57583">
        <ele>57.096245</ele>
        <time>2021-12-14T09:10:01Z</time>
      </trkpt>
      <trkpt lat="47.2461" lon="-1.5758">
        <ele>57.374306</ele>
        <time>2021-12-14T09:10:04Z</time>
      </trkpt>
      <trkpt lat="47.24606" lon="-1.57575">
        <ele>57.718353</ele>
        <time>2021-12-14T09:10:08Z</time>
      </trkpt>
      <trkpt lat="47.24602" lon="-1.57571">
        <ele>58.072075</ele>
        <time>2021-12-14T09:10:11Z</time>
      </trkpt>
      <trkpt lat="47.24598" lon="-1.57566">
        <ele>58.787716</ele>
        <time>2021-12-14T09:10:17Z</time>
      </trkpt>
      <trkpt lat="47.24594" lon="-1.5756">
        <ele>59.207653</ele>
        <time>2021-12-14T09:10:23Z</time>
      </trkpt>
      <trkpt lat="47.2459" lon="-1.57555">
        <ele>59.394135</ele>
        <time>2021-12-14T09:10:29Z</time>
      </trkpt>
      <trkpt lat="47.24585" lon="-1.57551">
        <ele>59.797806</ele>
        <time>2021-12-14T09:10:33Z</time>
      </trkpt>
      <trkpt lat="47.24582" lon="-1.57545">
        <ele>59.898624</ele>
        <time>2021-12-14T09:10:35Z</time>
      </trkpt>
      <trkpt lat="47.24578" lon="-1.57541">
        <ele>59.887028</ele>
        <time>2021-12-14T09:10:38Z</time>
      </trkpt>
      <trkpt lat="47.24573" lon="-1.57537">
        <ele>59.788082</ele>
        <time>2021-12-14T09:10:40Z</time>
      </trkpt>
      <trkpt lat="47.24569" lon="-1.57534">
        <ele>59.66037</ele>
        <time>2021-12-14T09:10:42Z</time>
      </trkpt>
      <trkpt lat="47.24564" lon="-1.5753">
        <ele>59.46046</ele>
        <time>2021-12-14T09:10:45Z</time>
      </trkpt>
      <trkpt lat="47.2456" lon="-1.57525">
        <ele>59.3817</ele>
        <time>2021-12-14T09:10:49Z</time>
      </trkpt>
      <trkpt lat="47.24555" lon="-1.57522">
        <ele>59.548683</ele>
        <time>2021-12-14T09:10:53Z</time>
      </trkpt>
      <trkpt lat="47.24551" lon="-1.57519">
        <ele>59.731853</ele>
        <time>2021-12-14T09:10:56Z</time>
      </trkpt>
      <trkpt lat="47.24546" lon="-1.57515">
        <ele>59.895912</ele>
        <time>2021-12-14T09:10:59Z</time>
      </trkpt>
      <trkpt lat="47.2454" lon="-1.57512">
        <ele>59.992416</ele>
        <time>2021-12-14T09:11:03Z</time>
      </trkpt>
      <trkpt lat="47.24536" lon="-1.57506">
        <ele>59.99113</ele>
        <time>2021-12-14T09:11:10Z</time>
      </trkpt>
      <trkpt lat="47.24534" lon="-1.57498">
        <ele>59.8096</ele>
        <time>2021-12-14T09:11:14Z</time>
      </trkpt>
      <trkpt lat="47.24531" lon="-1.57493">
        <ele>59.621376</ele>
        <time>2021-12-14T09:11:17Z</time>
      </trkpt>
      <trkpt lat="47.24528" lon="-1.57486">
        <ele>59.344475</ele>
        <time>2021-12-14T09:11:21Z</time>
      </trkpt>
      <trkpt lat="47.24526" lon="-1.5748">
        <ele>59.15063</ele>
        <time>2021-12-14T09:11:25Z</time>
      </trkpt>
      <trkpt lat="47.24524" lon="-1.57473">
        <ele>58.77911</ele>
        <time>2021-12-14T09:11:30Z</time>
      </trkpt>
      <trkpt lat="47.24522" lon="-1.57466">
        <ele>58.517094</ele>
        <time>2021-12-14T09:11:36Z</time>
      </trkpt>
      <trkpt lat="47.24519" lon="-1.57459">
        <ele>58.453815</ele>
        <time>2021-12-14T09:11:38Z</time>
      </trkpt>
      <trkpt lat="47.24516" lon="-1.57451">
        <ele>58.238365</ele>
        <time>2021-12-14T09:11:41Z</time>
      </trkpt>
      <trkpt lat="47.24514" lon="-1.57445">
        <ele>58.03448</ele>
        <time>2021-12-14T09:11:43Z</time>
      </trkpt>
      <trkpt lat="47.24513" lon="-1.57437">
        <ele>57.74691</ele>
        <time>2021-12-14T09:11:46Z</time>
      </trkpt>
      <trkpt lat="47.24511" lon="-1.5743">
        <ele>57.48585</ele>
        <time>2021-12-14T09:11:49Z</time>
      </trkpt>
      <trkpt lat="47.24511" lon="-1.57423">
        <ele>57.322723</ele>
        <time>2021-12-14T09:11:52Z</time>
      </trkpt>
      <trkpt lat="47.24511" lon="-1.57415">
        <ele>57.242943</ele>
        <time>2021-12-14T09:11:56Z</time>
      </trkpt>
      <trkpt lat="47.24511" lon="-1.57408">
        <ele>57.1084</ele>
        <time>2021-12-14T09:12:00Z</time>
      </trkpt>
      <trkpt lat="47.24511" lon="-1.57401">
        <ele>56.97839</ele>
        <time>2021-12-14T09:12:03Z</time>
      </trkpt>
      <trkpt lat="47.24511" lon="-1.57392">
        <ele>56.77801</ele>
        <time>2021-12-14T09:12:08Z</time>
      </trkpt>
      <trkpt lat="47.24511" lon="-1.57384">
        <ele>56.620033</ele>
        <time>2021-12-14T09:12:12Z</time>
      </trkpt>
      <trkpt lat="47.24512" lon="-1.57377">
        <ele>56.53067</ele>
        <time>2021-12-14T09:12:17Z</time>
      </trkpt>
      <trkpt lat="47.24513" lon="-1.57369">
        <ele>56.39493</ele>
        <time>2021-12-14T09:12:22Z</time>
      </trkpt>
      <trkpt lat="47.24514" lon="-1.57362">
        <ele>56.348717</ele>
        <time>2021-12-14T09:12:25Z</time>
      </trkpt>
      <trkpt lat="47.24514" lon="-1.57355">
        <ele>56.404137</ele>
        <time>2021-12-14T09:12:29Z</time>
      </trkpt>
      <trkpt lat="47.24513" lon="-1.57347">
        <ele>56.64838</ele>
        <time>2021-12-14T09:12:33Z</time>
      </trkpt>
      <trkpt lat="47.24512" lon="-1.57339">
        <ele>57.012512</ele>
        <time>2021-12-14T09:12:37Z</time>
      </trkpt>
      <trkpt lat="47.24509" lon="-1.57334">
        <ele>57.30184</ele>
        <time>2021-12-14T09:12:40Z</time>
      </trkpt>
      <trkpt lat="47.24506" lon="-1.5733">
        <ele>57.58333</ele>
        <time>2021-12-14T09:12:43Z</time>
      </trkpt>
      <trkpt lat="47.24501" lon="-1.57323">
        <ele>57.945755</ele>
        <time>2021-12-14T09:12:47Z</time>
      </trkpt>
      <trkpt lat="47.24498" lon="-1.57317">
        <ele>58.247135</ele>
        <time>2021-12-14T09:12:51Z</time>
      </trkpt>
      <trkpt lat="47.24495" lon="-1.57312">
        <ele>58.53612</ele>
        <time>2021-12-14T09:12:55Z</time>
      </trkpt>
      <trkpt lat="47.24491" lon="-1.57306">
        <ele>58.73318</ele>
        <time>2021-12-14T09:13:00Z</time>
      </trkpt>
      <trkpt lat="47.24488" lon="-1.57301">
        <ele>58.819218</ele>
        <time>2021-12-14T09:13:04Z</time>
      </trkpt>
      <trkpt lat="47.24485" lon="-1.57296">
        <ele>59.007732</ele>
        <time>2021-12-14T09:13:07Z</time>
      </trkpt>
      <trkpt lat="47.24482" lon="-1.5729">
        <ele>59.153175</ele>
        <time>2021-12-14T09:13:11Z</time>
      </trkpt>
      <trkpt lat="47.2448" lon="-1.57282">
        <ele>59.125896</ele>
        <time>2021-12-14T09:13:16Z</time>
      </trkpt>
      <trkpt lat="47.24479" lon="-1.57276">
        <ele>59.026165</ele>
        <time>2021-12-14T09:13:19Z</time>
      </trkpt>
      <trkpt lat="47.24476" lon="-1.5727">
        <ele>58.846737</ele>
        <time>2021-12-14T09:13:23Z</time>
      </trkpt>
      <trkpt lat="47.24473" lon="-1.57263">
        <ele>58.63839</ele>
        <time>2021-12-14T09:13:26Z</time>
      </trkpt>
      <trkpt lat="47.2447" lon="-1.57257">
        <ele>58.409927</ele>
        <time>2021-12-14T09:13:29Z</time>
      </trkpt>
      <trkpt lat="47.24469" lon="-1.57249">
        <ele>58.031548</ele>
        <time>2021-12-14T09:13:33Z</time>
      </trkpt>
      <trkpt lat="47.2447" lon="-1.57241">
        <ele>57.585228</ele>
        <time>2021-12-14T09:13:38Z</time>
      </trkpt>
      <trkpt lat="47.24472" lon="-1.57234">
        <ele>57.398285</ele>
        <time>2021-12-14T09:13:42Z</time>
      </trkpt>
      <trkpt lat="47.24471" lon="-1.57227">
        <ele>57.28913</ele>
        <time>2021-12-14T09:13:44Z</time>
      </trkpt>
      <trkpt lat="47.24472" lon="-1.57219">
        <ele>57.11906</ele>
        <time>2021-12-14T09:13:48Z</time>
      </trkpt>
      <trkpt lat="47.24472" lon="-1.57213">
        <ele>56.935127</ele>
        <time>2021-12-14T09:13:51Z</time>
      </trkpt>
      <trkpt lat="47.24473" lon="-1.57206">
        <ele>56.79332</ele>
        <time>2021-12-14T09:13:54Z</time>
      </trkpt>
      <trkpt lat="47.24472" lon="-1.57198">
        <ele>56.749947</ele>
        <time>2021-12-14T09:13:57Z</time>
      </trkpt>
      <trkpt lat="47.24472" lon="-1.57191">
        <ele>56.786564</ele>
        <time>2021-12-14T09:14:01Z</time>
      </trkpt>
      <trkpt lat="47.24473" lon="-1.57184">
        <ele>56.82297</ele>
        <time>2021-12-14T09:14:04Z</time>
      </trkpt>
      <trkpt lat="47.24476" lon="-1.57176">
        <ele>56.824406</ele>
        <time>2021-12-14T09:14:08Z</time>
      </trkpt>
      <trkpt lat="47.24479" lon="-1.57168">
        <ele>56.81612</ele>
        <time>2021-12-14T09:14:11Z</time>
      </trkpt>
      <trkpt lat="47.24482" lon="-1.5716">
        <ele>56.772976</ele>
        <time>2021-12-14T09:14:15Z</time>
      </trkpt>
      <trkpt lat="47.24483" lon="-1.57153">
        <ele>56.814186</ele>
        <time>2021-12-14T09:14:19Z</time>
      </trkpt>
      <trkpt lat="47.24484" lon="-1.57145">
        <ele>57.078926</ele>
        <time>2021-12-14T09:14:24Z</time>
      </trkpt>
      <trkpt lat="47.24486" lon="-1.57137">
        <ele>57.608456</ele>
        <time>2021-12-14T09:14:28Z</time>
      </trkpt>
      <trkpt lat="47.24488" lon="-1.5713">
        <ele>58.012367</ele>
        <time>2021-12-14T09:14:32Z</time>
      </trkpt>
      <trkpt lat="47.24488" lon="-1.57123">
        <ele>58.337467</ele>
        <time>2021-12-14T09:14:36Z</time>
      </trkpt>
      <trkpt lat="47.2449" lon="-1.57115">
        <ele>58.712376</ele>
        <time>2021-12-14T09:14:40Z</time>
      </trkpt>
      <trkpt lat="47.24491" lon="-1.57108">
        <ele>59.040672</ele>
        <time>2021-12-14T09:14:43Z</time>
      </trkpt>
      <trkpt lat="47.24491" lon="-1.57101">
        <ele>59.466442</ele>
        <time>2021-12-14T09:14:46Z</time>
      </trkpt>
      <trkpt lat="47.24488" lon="-1.57095">
        <ele>59.933796</ele>
        <time>2021-12-14T09:14:49Z</time>
      </trkpt>
      <trkpt lat="47.24487" lon="-1.57088">
        <ele>60.707558</ele>
        <time>2021-12-14T09:14:54Z</time>
      </trkpt>
      <trkpt lat="47.24485" lon="-1.57081">
        <ele>61.41009</ele>
        <time>2021-12-14T09:14:59Z</time>
      </trkpt>
      <trkpt lat="47.24482" lon="-1.57075">
        <ele>62.07767</ele>
        <time>2021-12-14T09:15:04Z</time>
      </trkpt>
      <trkpt lat="47.24478" lon="-1.57069">
        <ele>62.738728</ele>
        <time>2021-12-14T09:15:08Z</time>
      </trkpt>
      <trkpt lat="47.24476" lon="-1.57062">
        <ele>63.09737</ele>
        <time>2021-12-14T09:15:12Z</time>
      </trkpt>
      <trkpt lat="47.24473" lon="-1.57057">
        <ele>63.48634</ele>
        <time>2021-12-14T09:15:20Z</time>
      </trkpt>
      <trkpt lat="47.2447" lon="-1.57051">
        <ele>63.492836</ele>
        <time>2021-12-14T09:15:22Z</time>
      </trkpt>
      <trkpt lat="47.24466" lon="-1.57046">
        <ele>63.637444</ele>
        <time>2021-12-14T09:15:26Z</time>
      </trkpt>
      <trkpt lat="47.24463" lon="-1.5704">
        <ele>63.73806</ele>
        <time>2021-12-14T09:15:28Z</time>
      </trkpt>
      <trkpt lat="47.24459" lon="-1.57034">
        <ele>63.87659</ele>
        <time>2021-12-14T09:15:31Z</time>
      </trkpt>
      <trkpt lat="47.24456" lon="-1.57028">
        <ele>63.930332</ele>
        <time>2021-12-14T09:15:34Z</time>
      </trkpt>
      <trkpt lat="47.24452" lon="-1.57022">
        <ele>63.960705</ele>
        <time>2021-12-14T09:15:37Z</time>
      </trkpt>
      <trkpt lat="47.24449" lon="-1.57018">
        <ele>64.037766</ele>
        <time>2021-12-14T09:15:42Z</time>
      </trkpt>
      <trkpt lat="47.24445" lon="-1.57012">
        <ele>64.09864</ele>
        <time>2021-12-14T09:15:46Z</time>
      </trkpt>
      <trkpt lat="47.24442" lon="-1.57006">
        <ele>64.076</ele>
        <time>2021-12-14T09:15:50Z</time>
      </trkpt>
      <trkpt lat="47.2444" lon="-1.57">
        <ele>64.01468</ele>
        <time>2021-12-14T09:15:53Z</time>
      </trkpt>
      <trkpt lat="47.24436" lon="-1.56995">
        <ele>63.893208</ele>
        <time>2021-12-14T09:15:57Z</time>
      </trkpt>
      <trkpt lat="47.24432" lon="-1.56989">
        <ele>63.87052</ele>
        <time>2021-12-14T09:16:00Z</time>
      </trkpt>
      <trkpt lat="47.24429" lon="-1.56983">
        <ele>63.891655</ele>
        <time>2021-12-14T09:16:04Z</time>
      </trkpt>
      <trkpt lat="47.24425" lon="-1.56979">
        <ele>64.19671</ele>
        <time>2021-12-14T09:16:09Z</time>
      </trkpt>
      <trkpt lat="47.24422" lon="-1.56973">
        <ele>64.48153</ele>
        <time>2021-12-14T09:16:12Z</time>
      </trkpt>
      <trkpt lat="47.24419" lon="-1.56967">
        <ele>64.7191</ele>
        <time>2021-12-14T09:16:16Z</time>
      </trkpt>
      <trkpt lat="47.24415" lon="-1.5696">
        <ele>64.88449</ele>
        <time>2021-12-14T09:16:19Z</time>
      </trkpt>
      <trkpt lat="47.2441" lon="-1.56954">
        <ele>65.0638</ele>
        <time>2021-12-14T09:16:23Z</time>
      </trkpt>
      <trkpt lat="47.24406" lon="-1.56948">
        <ele>65.25146</ele>
        <time>2021-12-14T09:16:27Z</time>
      </trkpt>
      <trkpt lat="47.24403" lon="-1.56941">
        <ele>65.34719</ele>
        <time>2021-12-14T09:16:30Z</time>
      </trkpt>
      <trkpt lat="47.244" lon="-1.56934">
        <ele>65.392555</ele>
        <time>2021-12-14T09:16:34Z</time>
      </trkpt>
      <trkpt lat="47.24396" lon="-1.56928">
        <ele>65.45932</ele>
        <time>2021-12-14T09:16:39Z</time>
      </trkpt>
      <trkpt lat="47.24392" lon="-1.56921">
        <ele>65.40063</ele>
        <time>2021-12-14T09:16:44Z</time>
      </trkpt>
      <trkpt lat="47.2439" lon="-1.56915">
        <ele>65.17733</ele>
        <time>2021-12-14T09:16:48Z</time>
      </trkpt>
      <trkpt lat="47.24387" lon="-1.56908">
        <ele>64.844666</ele>
        <time>2021-12-14T09:16:51Z</time>
      </trkpt>
      <trkpt lat="47.24384" lon="-1.56903">
        <ele>64.47861</ele>
        <time>2021-12-14T09:16:55Z</time>
      </trkpt>
      <trkpt lat="47.24381" lon="-1.56897">
        <ele>64.2013</ele>
        <time>2021-12-14T09:16:59Z</time>
      </trkpt>
      <trkpt lat="47.24378" lon="-1.5689">
        <ele>64.059265</ele>
        <time>2021-12-14T09:17:05Z</time>
      </trkpt>
      <trkpt lat="47.24376" lon="-1.56883">
        <ele>64.01443</ele>
        <time>2021-12-14T09:17:08Z</time>
      </trkpt>
      <trkpt lat="47.24374" lon="-1.56876">
        <ele>64.003624</ele>
        <time>2021-12-14T09:17:15Z</time>
      </trkpt>
      <trkpt lat="47.24371" lon="-1.56868">
        <ele>64.00564</ele>
        <time>2021-12-14T09:17:19Z</time>
      </trkpt>
      <trkpt lat="47.24369" lon="-1.56861">
        <ele>64.00933</ele>
        <time>2021-12-14T09:17:22Z</time>
      </trkpt>
      <trkpt lat="47.24367" lon="-1.56854">
        <ele>63.96446</ele>
        <time>2021-12-14T09:17:26Z</time>
      </trkpt>
      <trkpt lat="47.24365" lon="-1.56846">
        <ele>63.839077</ele>
        <time>2021-12-14T09:17:32Z</time>
      </trkpt>
      <trkpt lat="47.24363" lon="-1.5684">
        <ele>63.583096</ele>
        <time>2021-12-14T09:17:35Z</time>
      </trkpt>
      <trkpt lat="47.24362" lon="-1.56833">
        <ele>63.026173</ele>
        <time>2021-12-14T09:17:41Z</time>
      </trkpt>
      <trkpt lat="47.24359" lon="-1.56823">
        <ele>62.449097</ele>
        <time>2021-12-14T09:17:46Z</time>
      </trkpt>
      <trkpt lat="47.24357" lon="-1.56813">
        <ele>62.13255</ele>
        <time>2021-12-14T09:17:49Z</time>
      </trkpt>
      <trkpt lat="47.24356" lon="-1.56806">
        <ele>61.818153</ele>
        <time>2021-12-14T09:17:52Z</time>
      </trkpt>
      <trkpt lat="47.24356" lon="-1.56797">
        <ele>61.699894</ele>
        <time>2021-12-14T09:17:57Z</time>
      </trkpt>
      <trkpt lat="47.24355" lon="-1.56789">
        <ele>61.74855</ele>
        <time>2021-12-14T09:18:00Z</time>
      </trkpt>
      <trkpt lat="47.24353" lon="-1.56783">
        <ele>61.8063</ele>
        <time>2021-12-14T09:18:03Z</time>
      </trkpt>
      <trkpt lat="47.24352" lon="-1.56775">
        <ele>61.933624</ele>
        <time>2021-12-14T09:18:07Z</time>
      </trkpt>
      <trkpt lat="47.2435" lon="-1.56766">
        <ele>62.11725</ele>
        <time>2021-12-14T09:18:11Z</time>
      </trkpt>
      <trkpt lat="47.24348" lon="-1.56759">
        <ele>62.32487</ele>
        <time>2021-12-14T09:18:16Z</time>
      </trkpt>
      <trkpt lat="47.2435" lon="-1.56753">
        <ele>62.548286</ele>
        <time>2021-12-14T09:18:20Z</time>
      </trkpt>
      <trkpt lat="47.24349" lon="-1.56745">
        <ele>62.850994</ele>
        <time>2021-12-14T09:18:24Z</time>
      </trkpt>
      <trkpt lat="47.24347" lon="-1.56735">
        <ele>63.08346</ele>
        <time>2021-12-14T09:18:27Z</time>
      </trkpt>
      <trkpt lat="47.24346" lon="-1.56728">
        <ele>63.30275</ele>
        <time>2021-12-14T09:18:30Z</time>
      </trkpt>
      <trkpt lat="47.24346" lon="-1.56721">
        <ele>63.498962</ele>
        <time>2021-12-14T09:18:33Z</time>
      </trkpt>
      <trkpt lat="47.24344" lon="-1.56714">
        <ele>63.6724</ele>
        <time>2021-12-14T09:18:37Z</time>
      </trkpt>
      <trkpt lat="47.24342" lon="-1.56708">
        <ele>63.796482</ele>
        <time>2021-12-14T09:18:41Z</time>
      </trkpt>
      <trkpt lat="47.24343" lon="-1.56699">
        <ele>63.909786</ele>
        <time>2021-12-14T09:18:46Z</time>
      </trkpt>
      <trkpt lat="47.24341" lon="-1.56691">
        <ele>64.00235</ele>
        <time>2021-12-14T09:18:49Z</time>
      </trkpt>
      <trkpt lat="47.2434" lon="-1.56683">
        <ele>64.13117</ele>
        <time>2021-12-14T09:18:53Z</time>
      </trkpt>
      <trkpt lat="47.24339" lon="-1.56676">
        <ele>64.14137</ele>
        <time>2021-12-14T09:18:57Z</time>
      </trkpt>
      <trkpt lat="47.24339" lon="-1.5667">
        <ele>63.984043</ele>
        <time>2021-12-14T09:19:00Z</time>
      </trkpt>
      <trkpt lat="47.24339" lon="-1.56662">
        <ele>63.925385</ele>
        <time>2021-12-14T09:19:05Z</time>
      </trkpt>
      <trkpt lat="47.24339" lon="-1.56656">
        <ele>63.988274</ele>
        <time>2021-12-14T09:19:08Z</time>
      </trkpt>
      <trkpt lat="47.24339" lon="-1.56649">
        <ele>64.09563</ele>
        <time>2021-12-14T09:19:12Z</time>
      </trkpt>
      <trkpt lat="47.24341" lon="-1.56642">
        <ele>64.08669</ele>
        <time>2021-12-14T09:19:17Z</time>
      </trkpt>
      <trkpt lat="47.24341" lon="-1.56634">
        <ele>63.954494</ele>
        <time>2021-12-14T09:19:23Z</time>
      </trkpt>
      <trkpt lat="47.24338" lon="-1.56627">
        <ele>63.862816</ele>
        <time>2021-12-14T09:19:31Z</time>
      </trkpt>
      <trkpt lat="47.24337" lon="-1.56619">
        <ele>63.782734</ele>
        <time>2021-12-14T09:19:36Z</time>
      </trkpt>
      <trkpt lat="47.24335" lon="-1.56611">
        <ele>63.711563</ele>
        <time>2021-12-14T09:19:37Z</time>
      </trkpt>
      <trkpt lat="47.24333" lon="-1.56603">
        <ele>63.531124</ele>
        <time>2021-12-14T09:19:40Z</time>
      </trkpt>
      <trkpt lat="47.24332" lon="-1.56596">
        <ele>63.40051</ele>
        <time>2021-12-14T09:19:42Z</time>
      </trkpt>
      <trkpt lat="47.24332" lon="-1.56588">
        <ele>63.114933</ele>
        <time>2021-12-14T09:19:47Z</time>
      </trkpt>
      <trkpt lat="47.24331" lon="-1.56578">
        <ele>62.844063</ele>
        <time>2021-12-14T09:19:51Z</time>
      </trkpt>
      <trkpt lat="47.2433" lon="-1.5657">
        <ele>62.476353</ele>
        <time>2021-12-14T09:19:57Z</time>
      </trkpt>
      <trkpt lat="47.24329" lon="-1.5656">
        <ele>62.36422</ele>
        <time>2021-12-14T09:20:02Z</time>
      </trkpt>
      <trkpt lat="47.24328" lon="-1.56553">
        <ele>62.272232</ele>
        <time>2021-12-14T09:20:05Z</time>
      </trkpt>
      <trkpt lat="47.24329" lon="-1.56546">
        <ele>62.1061</ele>
        <time>2021-12-14T09:20:08Z</time>
      </trkpt>
      <trkpt lat="47.24331" lon="-1.5654">
        <ele>61.934036</ele>
        <time>2021-12-14T09:20:11Z</time>
      </trkpt>
      <trkpt lat="47.24334" lon="-1.56533">
        <ele>61.703064</ele>
        <time>2021-12-14T09:20:15Z</time>
      </trkpt>
      <trkpt lat="47.24335" lon="-1.56524">
        <ele>61.43512</ele>
        <time>2021-12-14T09:20:20Z</time>
      </trkpt>
      <trkpt lat="47.24338" lon="-1.56517">
        <ele>61.11884</ele>
        <time>2021-12-14T09:20:25Z</time>
      </trkpt>
      <trkpt lat="47.24342" lon="-1.5651">
        <ele>60.868168</ele>
        <time>2021-12-14T09:20:28Z</time>
      </trkpt>
      <trkpt lat="47.24345" lon="-1.56503">
        <ele>60.652035</ele>
        <time>2021-12-14T09:20:33Z</time>
      </trkpt>
      <trkpt lat="47.24348" lon="-1.56497">
        <ele>60.71496</ele>
        <time>2021-12-14T09:20:36Z</time>
      </trkpt>
      <trkpt lat="47.24349" lon="-1.56489">
        <ele>60.746494</ele>
        <time>2021-12-14T09:20:40Z</time>
      </trkpt>
      <trkpt lat="47.24347" lon="-1.56483">
        <ele>60.730648</ele>
        <time>2021-12-14T09:20:43Z</time>
      </trkpt>
      <trkpt lat="47.24346" lon="-1.56476">
        <ele>60.501686</ele>
        <time>2021-12-14T09:20:51Z</time>
      </trkpt>
      <trkpt lat="47.24345" lon="-1.56469">
        <ele>60.338154</ele>
        <time>2021-12-14T09:20:55Z</time>
      </trkpt>
      <trkpt lat="47.24344" lon="-1.5646">
        <ele>60.054287</ele>
        <time>2021-12-14T09:21:00Z</time>
      </trkpt>
      <trkpt lat="47.24345" lon="-1.56454">
        <ele>59.93122</ele>
        <time>2021-12-14T09:21:04Z</time>
      </trkpt>
      <trkpt lat="47.24344" lon="-1.56445">
        <ele>60.003635</ele>
        <time>2021-12-14T09:21:09Z</time>
      </trkpt>
      <trkpt lat="47.24346" lon="-1.56439">
        <ele>60.07505</ele>
        <time>2021-12-14T09:21:14Z</time>
      </trkpt>
      <trkpt lat="47.24347" lon="-1.5643">
        <ele>59.98627</ele>
        <time>2021-12-14T09:21:18Z</time>
      </trkpt>
      <trkpt lat="47.2435" lon="-1.56423">
        <ele>59.783253</ele>
        <time>2021-12-14T09:21:21Z</time>
      </trkpt>
      <trkpt lat="47.24353" lon="-1.56417">
        <ele>59.58647</ele>
        <time>2021-12-14T09:21:25Z</time>
      </trkpt>
      <trkpt lat="47.24356" lon="-1.56411">
        <ele>59.222954</ele>
        <time>2021-12-14T09:21:28Z</time>
      </trkpt>
      <trkpt lat="47.24359" lon="-1.56406">
        <ele>58.996197</ele>
        <time>2021-12-14T09:21:31Z</time>
      </trkpt>
      <trkpt lat="47.24362" lon="-1.564">
        <ele>58.74714</ele>
        <time>2021-12-14T09:21:35Z</time>
      </trkpt>
      <trkpt lat="47.24364" lon="-1.56393">
        <ele>58.602676</ele>
        <time>2021-12-14T09:21:39Z</time>
      </trkpt>
      <trkpt lat="47.24366" lon="-1.56387">
        <ele>58.51151</ele>
        <time>2021-12-14T09:21:42Z</time>
      </trkpt>
      <trkpt lat="47.24367" lon="-1.56379">
        <ele>58.49876</ele>
        <time>2021-12-14T09:21:47Z</time>
      </trkpt>
      <trkpt lat="47.24366" lon="-1.56372">
        <ele>58.74426</ele>
        <time>2021-12-14T09:21:52Z</time>
      </trkpt>
      <trkpt lat="47.24365" lon="-1.56362">
        <ele>58.972656</ele>
        <time>2021-12-14T09:21:56Z</time>
      </trkpt>
      <trkpt lat="47.24365" lon="-1.56353">
        <ele>59.007618</ele>
        <time>2021-12-14T09:22:00Z</time>
      </trkpt>
      <trkpt lat="47.24364" lon="-1.56344">
        <ele>58.855637</ele>
        <time>2021-12-14T09:22:04Z</time>
      </trkpt>
      <trkpt lat="47.24363" lon="-1.56337">
        <ele>58.716278</ele>
        <time>2021-12-14T09:22:06Z</time>
      </trkpt>
      <trkpt lat="47.24365" lon="-1.5633">
        <ele>58.39635</ele>
        <time>2021-12-14T09:22:10Z</time>
      </trkpt>
      <trkpt lat="47.24366" lon="-1.56322">
        <ele>58.243313</ele>
        <time>2021-12-14T09:22:15Z</time>
      </trkpt>
      <trkpt lat="47.24368" lon="-1.56316">
        <ele>58.27027</ele>
        <time>2021-12-14T09:22:18Z</time>
      </trkpt>
      <trkpt lat="47.24369" lon="-1.56309">
        <ele>58.339256</ele>
        <time>2021-12-14T09:22:23Z</time>
      </trkpt>
      <trkpt lat="47.2437" lon="-1.56303">
        <ele>58.37614</ele>
        <time>2021-12-14T09:22:27Z</time>
      </trkpt>
      <trkpt lat="47.2437" lon="-1.56295">
        <ele>58.2713</ele>
        <time>2021-12-14T09:22:32Z</time>
      </trkpt>
      <trkpt lat="47.24371" lon="-1.56288">
        <ele>58.117638</ele>
        <time>2021-12-14T09:22:35Z</time>
      </trkpt>
      <trkpt lat="47.24373" lon="-1.56281">
        <ele>57.954353</ele>
        <time>2021-12-14T09:22:38Z</time>
      </trkpt>
      <trkpt lat="47.24374" lon="-1.56273">
        <ele>57.792072</ele>
        <time>2021-12-14T09:22:42Z</time>
      </trkpt>
      <trkpt lat="47.24375" lon="-1.56266">
        <ele>57.495102</ele>
        <time>2021-12-14T09:22:46Z</time>
      </trkpt>
      <trkpt lat="47.24377" lon="-1.56259">
        <ele>57.256767</ele>
        <time>2021-12-14T09:22:52Z</time>
      </trkpt>
      <trkpt lat="47.24377" lon="-1.56251">
        <ele>56.964794</ele>
        <time>2021-12-14T09:22:56Z</time>
      </trkpt>
      <trkpt lat="47.24377" lon="-1.56244">
        <ele>56.78782</ele>
        <time>2021-12-14T09:22:58Z</time>
      </trkpt>
      <trkpt lat="47.24377" lon="-1.56236">
        <ele>56.61171</ele>
        <time>2021-12-14T09:23:01Z</time>
      </trkpt>
      <trkpt lat="47.24376" lon="-1.56227">
        <ele>56.41248</ele>
        <time>2021-12-14T09:23:05Z</time>
      </trkpt>
      <trkpt lat="47.24374" lon="-1.56221">
        <ele>56.40592</ele>
        <time>2021-12-14T09:23:10Z</time>
      </trkpt>
      <trkpt lat="47.24372" lon="-1.56215">
        <ele>56.546394</ele>
        <time>2021-12-14T09:23:16Z</time>
      </trkpt>
      <trkpt lat="47.24368" lon="-1.56207">
        <ele>56.820824</ele>
        <time>2021-12-14T09:23:21Z</time>
      </trkpt>
      <trkpt lat="47.24364" lon="-1.56204">
        <ele>56.894165</ele>
        <time>2021-12-14T09:23:24Z</time>
      </trkpt>
      <trkpt lat="47.2436" lon="-1.562">
        <ele>56.80486</ele>
        <time>2021-12-14T09:23:27Z</time>
      </trkpt>
      <trkpt lat="47.24355" lon="-1.56195">
        <ele>56.653793</ele>
        <time>2021-12-14T09:23:30Z</time>
      </trkpt>
      <trkpt lat="47.2435" lon="-1.56193">
        <ele>56.56792</ele>
        <time>2021-12-14T09:23:38Z</time>
      </trkpt>
      <trkpt lat="47.24345" lon="-1.56186">
        <ele>56.602844</ele>
        <time>2021-12-14T09:23:41Z</time>
      </trkpt>
      <trkpt lat="47.2434" lon="-1.56182">
        <ele>56.927464</ele>
        <time>2021-12-14T09:23:48Z</time>
      </trkpt>
      <trkpt lat="47.24338" lon="-1.56176">
        <ele>57.10779</ele>
        <time>2021-12-14T09:23:51Z</time>
      </trkpt>
      <trkpt lat="47.24335" lon="-1.5617">
        <ele>57.13758</ele>
        <time>2021-12-14T09:23:55Z</time>
      </trkpt>
      <trkpt lat="47.24332" lon="-1.56164">
        <ele>57.237427</ele>
        <time>2021-12-14T09:24:00Z</time>
      </trkpt>
      <trkpt lat="47.24328" lon="-1.56157">
        <ele>57.119446</ele>
        <time>2021-12-14T09:24:05Z</time>
      </trkpt>
      <trkpt lat="47.24324" lon="-1.5615">
        <ele>56.84912</ele>
        <time>2021-12-14T09:24:08Z</time>
      </trkpt>
      <trkpt lat="47.24321" lon="-1.56145">
        <ele>56.501026</ele>
        <time>2021-12-14T09:24:11Z</time>
      </trkpt>
      <trkpt lat="47.24315" lon="-1.56139">
        <ele>56.140884</ele>
        <time>2021-12-14T09:24:15Z</time>
      </trkpt>
      <trkpt lat="47.24311" lon="-1.56135">
        <ele>55.940567</ele>
        <time>2021-12-14T09:24:18Z</time>
      </trkpt>
      <trkpt lat="47.24306" lon="-1.56131">
        <ele>55.701782</ele>
        <time>2021-12-14T09:24:24Z</time>
      </trkpt>
      <trkpt lat="47.24302" lon="-1.56126">
        <ele>55.744698</ele>
        <time>2021-12-14T09:24:26Z</time>
      </trkpt>
      <trkpt lat="47.24298" lon="-1.56124">
        <ele>56.06946</ele>
        <time>2021-12-14T09:24:32Z</time>
      </trkpt>
      <trkpt lat="47.24294" lon="-1.56118">
        <ele>56.320274</ele>
        <time>2021-12-14T09:24:36Z</time>
      </trkpt>
      <trkpt lat="47.24289" lon="-1.56114">
        <ele>56.54137</ele>
        <time>2021-12-14T09:24:39Z</time>
      </trkpt>
      <trkpt lat="47.24284" lon="-1.56109">
        <ele>56.829025</ele>
        <time>2021-12-14T09:24:44Z</time>
      </trkpt>
      <trkpt lat="47.24281" lon="-1.56105">
        <ele>57.193966</ele>
        <time>2021-12-14T09:24:48Z</time>
      </trkpt>
      <trkpt lat="47.24278" lon="-1.56098">
        <ele>57.283054</ele>
        <time>2021-12-14T09:24:52Z</time>
      </trkpt>
      <trkpt lat="47.24276" lon="-1.56091">
        <ele>57.255905</ele>
        <time>2021-12-14T09:24:56Z</time>
      </trkpt>
      <trkpt lat="47.24274" lon="-1.56084">
        <ele>57.307552</ele>
        <time>2021-12-14T09:25:02Z</time>
      </trkpt>
      <trkpt lat="47.24272" lon="-1.56077">
        <ele>57.403008</ele>
        <time>2021-12-14T09:25:06Z</time>
      </trkpt>
      <trkpt lat="47.2427" lon="-1.5607">
        <ele>57.42667</ele>
        <time>2021-12-14T09:25:08Z</time>
      </trkpt>
      <trkpt lat="47.24268" lon="-1.56062">
        <ele>57.48589</ele>
        <time>2021-12-14T09:25:11Z</time>
      </trkpt>
      <trkpt lat="47.24267" lon="-1.56052">
        <ele>57.507156</ele>
        <time>2021-12-14T09:25:14Z</time>
      </trkpt>
      <trkpt lat="47.24269" lon="-1.56046">
        <ele>57.532986</ele>
        <time>2021-12-14T09:25:20Z</time>
      </trkpt>
      <trkpt lat="47.24272" lon="-1.5604">
        <ele>57.702374</ele>
        <time>2021-12-14T09:25:26Z</time>
      </trkpt>
      <trkpt lat="47.24271" lon="-1.56033">
        <ele>57.645973</ele>
        <time>2021-12-14T09:25:31Z</time>
      </trkpt>
      <trkpt lat="47.2427" lon="-1.56025">
        <ele>57.571003</ele>
        <time>2021-12-14T09:25:37Z</time>
      </trkpt>
      <trkpt lat="47.24269" lon="-1.56018">
        <ele>57.56601</ele>
        <time>2021-12-14T09:25:41Z</time>
      </trkpt>
      <trkpt lat="47.24267" lon="-1.5601">
        <ele>57.55058</ele>
        <time>2021-12-14T09:25:44Z</time>
      </trkpt>
      <trkpt lat="47.24265" lon="-1.56004">
        <ele>57.506283</ele>
        <time>2021-12-14T09:25:48Z</time>
      </trkpt>
      <trkpt lat="47.24265" lon="-1.55996">
        <ele>57.487015</ele>
        <time>2021-12-14T09:25:52Z</time>
      </trkpt>
      <trkpt lat="47.24262" lon="-1.55989">
        <ele>57.429115</ele>
        <time>2021-12-14T09:25:56Z</time>
      </trkpt>
      <trkpt lat="47.24261" lon="-1.55982">
        <ele>57.317795</ele>
        <time>2021-12-14T09:25:59Z</time>
      </trkpt>
      <trkpt lat="47.2426" lon="-1.55974">
        <ele>57.203083</ele>
        <time>2021-12-14T09:26:04Z</time>
      </trkpt>
      <trkpt lat="47.24259" lon="-1.55967">
        <ele>57.112514</ele>
        <time>2021-12-14T09:26:08Z</time>
      </trkpt>
      <trkpt lat="47.24258" lon="-1.5596">
        <ele>57.07058</ele>
        <time>2021-12-14T09:26:11Z</time>
      </trkpt>
      <trkpt lat="47.24258" lon="-1.55952">
        <ele>56.892124</ele>
        <time>2021-12-14T09:26:14Z</time>
      </trkpt>
      <trkpt lat="47.24257" lon="-1.55944">
        <ele>56.708782</ele>
        <time>2021-12-14T09:26:18Z</time>
      </trkpt>
      <trkpt lat="47.24257" lon="-1.55938">
        <ele>56.677486</ele>
        <time>2021-12-14T09:26:22Z</time>
      </trkpt>
      <trkpt lat="47.24256" lon="-1.55929">
        <ele>56.726227</ele>
        <time>2021-12-14T09:26:27Z</time>
      </trkpt>
      <trkpt lat="47.24255" lon="-1.55921">
        <ele>56.72912</ele>
        <time>2021-12-14T09:26:30Z</time>
      </trkpt>
      <trkpt lat="47.24255" lon="-1.55914">
        <ele>56.683292</ele>
        <time>2021-12-14T09:26:34Z</time>
      </trkpt>
      <trkpt lat="47.24254" lon="-1.55906">
        <ele>56.557003</ele>
        <time>2021-12-14T09:26:37Z</time>
      </trkpt>
      <trkpt lat="47.24254" lon="-1.55898">
        <ele>56.34751</ele>
        <time>2021-12-14T09:26:40Z</time>
      </trkpt>
      <trkpt lat="47.24252" lon="-1.55889">
        <ele>56.059967</ele>
        <time>2021-12-14T09:26:43Z</time>
      </trkpt>
      <trkpt lat="47.2425" lon="-1.55883">
        <ele>55.637802</ele>
        <time>2021-12-14T09:26:46Z</time>
      </trkpt>
      <trkpt lat="47.2425" lon="-1.55874">
        <ele>55.04667</ele>
        <time>2021-12-14T09:26:50Z</time>
      </trkpt>
      <trkpt lat="47.24249" lon="-1.55866">
        <ele>54.26451</ele>
        <time>2021-12-14T09:26:55Z</time>
      </trkpt>
      <trkpt lat="47.2425" lon="-1.55859">
        <ele>53.681637</ele>
        <time>2021-12-14T09:26:59Z</time>
      </trkpt>
      <trkpt lat="47.24247" lon="-1.55852">
        <ele>53.287224</ele>
        <time>2021-12-14T09:27:04Z</time>
      </trkpt>
      <trkpt lat="47.24247" lon="-1.55844">
        <ele>52.814476</ele>
        <time>2021-12-14T09:27:08Z</time>
      </trkpt>
      <trkpt lat="47.24247" lon="-1.55836">
        <ele>52.434204</ele>
        <time>2021-12-14T09:27:12Z</time>
      </trkpt>
      <trkpt lat="47.24246" lon="-1.55829">
        <ele>52.16062</ele>
        <time>2021-12-14T09:27:16Z</time>
      </trkpt>
      <trkpt lat="47.24246" lon="-1.5582">
        <ele>51.976578</ele>
        <time>2021-12-14T09:27:21Z</time>
      </trkpt>
      <trkpt lat="47.24246" lon="-1.55813">
        <ele>51.851784</ele>
        <time>2021-12-14T09:27:25Z</time>
      </trkpt>
      <trkpt lat="47.24245" lon="-1.55804">
        <ele>51.756287</ele>
        <time>2021-12-14T09:27:28Z</time>
      </trkpt>
      <trkpt lat="47.24244" lon="-1.55795">
        <ele>51.65462</ele>
        <time>2021-12-14T09:27:31Z</time>
      </trkpt>
      <trkpt lat="47.24244" lon="-1.55787">
        <ele>51.499092</ele>
        <time>2021-12-14T09:27:35Z</time>
      </trkpt>
      <trkpt lat="47.24244" lon="-1.55778">
        <ele>51.349007</ele>
        <time>2021-12-14T09:27:39Z</time>
      </trkpt>
      <trkpt lat="47.24241" lon="-1.55771">
        <ele>51.135365</ele>
        <time>2021-12-14T09:27:44Z</time>
      </trkpt>
      <trkpt lat="47.24239" lon="-1.55763">
        <ele>51.037155</ele>
        <time>2021-12-14T09:27:48Z</time>
      </trkpt>
      <trkpt lat="47.24238" lon="-1.55755">
        <ele>50.9835</ele>
        <time>2021-12-14T09:27:52Z</time>
      </trkpt>
      <trkpt lat="47.24237" lon="-1.55748">
        <ele>50.903873</ele>
        <time>2021-12-14T09:27:55Z</time>
      </trkpt>
      <trkpt lat="47.24236" lon="-1.55741">
        <ele>50.708847</ele>
        <time>2021-12-14T09:27:58Z</time>
      </trkpt>
      <trkpt lat="47.24234" lon="-1.55735">
        <ele>50.432095</ele>
        <time>2021-12-14T09:28:01Z</time>
      </trkpt>
      <trkpt lat="47.24231" lon="-1.55728">
        <ele>50.005074</ele>
        <time>2021-12-14T09:28:06Z</time>
      </trkpt>
      <trkpt lat="47.24231" lon="-1.55721">
        <ele>49.65213</ele>
        <time>2021-12-14T09:28:10Z</time>
      </trkpt>
      <trkpt lat="47.24231" lon="-1.55713">
        <ele>49.369064</ele>
        <time>2021-12-14T09:28:13Z</time>
      </trkpt>
      <trkpt lat="47.2423" lon="-1.55706">
        <ele>49.05751</ele>
        <time>2021-12-14T09:28:17Z</time>
      </trkpt>
      <trkpt lat="47.24231" lon="-1.55699">
        <ele>48.67669</ele>
        <time>2021-12-14T09:28:24Z</time>
      </trkpt>
      <trkpt lat="47.24229" lon="-1.55691">
        <ele>48.57725</ele>
        <time>2021-12-14T09:28:29Z</time>
      </trkpt>
      <trkpt lat="47.2423" lon="-1.55683">
        <ele>48.586693</ele>
        <time>2021-12-14T09:28:33Z</time>
      </trkpt>
      <trkpt lat="47.24229" lon="-1.55676">
        <ele>48.698563</ele>
        <time>2021-12-14T09:28:36Z</time>
      </trkpt>
      <trkpt lat="47.24229" lon="-1.55669">
        <ele>48.94801</ele>
        <time>2021-12-14T09:28:41Z</time>
      </trkpt>
      <trkpt lat="47.24229" lon="-1.5566">
        <ele>49.339523</ele>
        <time>2021-12-14T09:28:49Z</time>
      </trkpt>
      <trkpt lat="47.2423" lon="-1.55654">
        <ele>49.746944</ele>
        <time>2021-12-14T09:28:52Z</time>
      </trkpt>
      <trkpt lat="47.2423" lon="-1.55646">
        <ele>50.51178</ele>
        <time>2021-12-14T09:28:58Z</time>
      </trkpt>
      <trkpt lat="47.2423" lon="-1.55639">
        <ele>50.9157</ele>
        <time>2021-12-14T09:29:03Z</time>
      </trkpt>
      <trkpt lat="47.24228" lon="-1.55633">
        <ele>51.397762</ele>
        <time>2021-12-14T09:29:09Z</time>
      </trkpt>
      <trkpt lat="47.24223" lon="-1.5563">
        <ele>51.477097</ele>
        <time>2021-12-14T09:29:14Z</time>
      </trkpt>
      <trkpt lat="47.24218" lon="-1.55631">
        <ele>51.518528</ele>
        <time>2021-12-14T09:29:17Z</time>
      </trkpt>
      <trkpt lat="47.24213" lon="-1.5563">
        <ele>51.543205</ele>
        <time>2021-12-14T09:29:21Z</time>
      </trkpt>
      <trkpt lat="47.24209" lon="-1.55631">
        <ele>51.50803</ele>
        <time>2021-12-14T09:29:26Z</time>
      </trkpt>
      <trkpt lat="47.24204" lon="-1.55631">
        <ele>51.589817</ele>
        <time>2021-12-14T09:29:30Z</time>
      </trkpt>
      <trkpt lat="47.24201" lon="-1.55624">
        <ele>51.7278</ele>
        <time>2021-12-14T09:29:35Z</time>
      </trkpt>
      <trkpt lat="47.24201" lon="-1.55616">
        <ele>51.76179</ele>
        <time>2021-12-14T09:29:41Z</time>
      </trkpt>
      <trkpt lat="47.24201" lon="-1.55609">
        <ele>51.592434</ele>
        <time>2021-12-14T09:29:45Z</time>
      </trkpt>
      <trkpt lat="47.24202" lon="-1.55602">
        <ele>51.403454</ele>
        <time>2021-12-14T09:29:49Z</time>
      </trkpt>
      <trkpt lat="47.24202" lon="-1.55594">
        <ele>51.081944</ele>
        <time>2021-12-14T09:29:53Z</time>
      </trkpt>
      <trkpt lat="47.24203" lon="-1.55585">
        <ele>50.603302</ele>
        <time>2021-12-14T09:29:58Z</time>
      </trkpt>
      <trkpt lat="47.24204" lon="-1.55578">
        <ele>50.323494</ele>
        <time>2021-12-14T09:30:01Z</time>
      </trkpt>
      <trkpt lat="47.24204" lon="-1.5557">
        <ele>50.009373</ele>
        <time>2021-12-14T09:30:05Z</time>
      </trkpt>
      <trkpt lat="47.24205" lon="-1.55563">
        <ele>49.61478</ele>
        <time>2021-12-14T09:30:09Z</time>
      </trkpt>
      <trkpt lat="47.24206" lon="-1.55556">
        <ele>49.153515</ele>
        <time>2021-12-14T09:30:13Z</time>
      </trkpt>
      <trkpt lat="47.24207" lon="-1.55547">
        <ele>48.5644</ele>
        <time>2021-12-14T09:30:18Z</time>
      </trkpt>
      <trkpt lat="47.24208" lon="-1.55541">
        <ele>48.157394</ele>
        <time>2021-12-14T09:30:22Z</time>
      </trkpt>
      <trkpt lat="47.24209" lon="-1.55532">
        <ele>47.70717</ele>
        <time>2021-12-14T09:30:26Z</time>
      </trkpt>
      <trkpt lat="47.24209" lon="-1.55526">
        <ele>47.324726</ele>
        <time>2021-12-14T09:30:29Z</time>
      </trkpt>
      <trkpt lat="47.24212" lon="-1.5552">
        <ele>46.495438</ele>
        <time>2021-12-14T09:30:34Z</time>
      </trkpt>
      <trkpt lat="47.24217" lon="-1.55513">
        <ele>46.23056</ele>
        <time>2021-12-14T09:30:37Z</time>
      </trkpt>
      <trkpt lat="47.24223" lon="-1.55508">
        <ele>46.21107</ele>
        <time>2021-12-14T09:30:39Z</time>
      </trkpt>
      <trkpt lat="47.24226" lon="-1.55503">
        <ele>46.296192</ele>
        <time>2021-12-14T09:30:41Z</time>
      </trkpt>
      <trkpt lat="47.24229" lon="-1.55496">
        <ele>46.478115</ele>
        <time>2021-12-14T09:30:44Z</time>
      </trkpt>
      <trkpt lat="47.24231" lon="-1.55489">
        <ele>46.589417</ele>
        <time>2021-12-14T09:30:47Z</time>
      </trkpt>
      <trkpt lat="47.24232" lon="-1.55482">
        <ele>46.716267</ele>
        <time>2021-12-14T09:30:51Z</time>
      </trkpt>
      <trkpt lat="47.24232" lon="-1.5548">
        <ele>46.73203</ele>
        <time>2021-12-14T09:30:55Z</time>
      </trkpt>
      <trkpt lat="47.24232" lon="-1.5548">
        <ele>46.73203</ele>
        <time>2021-12-14T09:30:55Z</time>
      </trkpt>
      <trkpt lat="47.24232" lon="-1.55472">
        <ele>46.993557</ele>
        <time>2021-12-14T09:31:07Z</time>
      </trkpt>
      <trkpt lat="47.24232" lon="-1.55464">
        <ele>47.12933</ele>
        <time>2021-12-14T09:31:11Z</time>
      </trkpt>
      <trkpt lat="47.24233" lon="-1.55455">
        <ele>47.2748</ele>
        <time>2021-12-14T09:31:15Z</time>
      </trkpt>
      <trkpt lat="47.24234" lon="-1.55448">
        <ele>47.38272</ele>
        <time>2021-12-14T09:31:18Z</time>
      </trkpt>
      <trkpt lat="47.24234" lon="-1.55442">
        <ele>47.455494</ele>
        <time>2021-12-14T09:31:21Z</time>
      </trkpt>
      <trkpt lat="47.24236" lon="-1.55434">
        <ele>47.597294</ele>
        <time>2021-12-14T09:31:25Z</time>
      </trkpt>
      <trkpt lat="47.24237" lon="-1.55427">
        <ele>47.834953</ele>
        <time>2021-12-14T09:31:29Z</time>
      </trkpt>
      <trkpt lat="47.24239" lon="-1.5542">
        <ele>48.03317</ele>
        <time>2021-12-14T09:31:32Z</time>
      </trkpt>
      <trkpt lat="47.24241" lon="-1.55412">
        <ele>48.39444</ele>
        <time>2021-12-14T09:31:37Z</time>
      </trkpt>
      <trkpt lat="47.24243" lon="-1.55404">
        <ele>48.74299</ele>
        <time>2021-12-14T09:31:41Z</time>
      </trkpt>
      <trkpt lat="47.24246" lon="-1.55397">
        <ele>49.051258</ele>
        <time>2021-12-14T09:31:44Z</time>
      </trkpt>
      <trkpt lat="47.24248" lon="-1.55389">
        <ele>49.530014</ele>
        <time>2021-12-14T09:31:48Z</time>
      </trkpt>
      <trkpt lat="47.24248" lon="-1.55381">
        <ele>50.139023</ele>
        <time>2021-12-14T09:31:53Z</time>
      </trkpt>
      <trkpt lat="47.2425" lon="-1.55374">
        <ele>50.710205</ele>
        <time>2021-12-14T09:31:58Z</time>
      </trkpt>
      <trkpt lat="47.24253" lon="-1.55367">
        <ele>51.26899</ele>
        <time>2021-12-14T09:32:03Z</time>
      </trkpt>
      <trkpt lat="47.24258" lon="-1.55365">
        <ele>51.59876</ele>
        <time>2021-12-14T09:32:06Z</time>
      </trkpt>
      <trkpt lat="47.24263" lon="-1.55365">
        <ele>51.936417</ele>
        <time>2021-12-14T09:32:09Z</time>
      </trkpt>
      <trkpt lat="47.24268" lon="-1.55367">
        <ele>52.45544</ele>
        <time>2021-12-14T09:32:13Z</time>
      </trkpt>
      <trkpt lat="47.24273" lon="-1.55368">
        <ele>52.85801</ele>
        <time>2021-12-14T09:32:17Z</time>
      </trkpt>
      <trkpt lat="47.24278" lon="-1.55369">
        <ele>53.112926</ele>
        <time>2021-12-14T09:32:20Z</time>
      </trkpt>
      <trkpt lat="47.24283" lon="-1.55369">
        <ele>53.394028</ele>
        <time>2021-12-14T09:32:23Z</time>
      </trkpt>
      <trkpt lat="47.24287" lon="-1.5537">
        <ele>53.69442</ele>
        <time>2021-12-14T09:32:27Z</time>
      </trkpt>
      <trkpt lat="47.24291" lon="-1.55364">
        <ele>54.05523</ele>
        <time>2021-12-14T09:32:31Z</time>
      </trkpt>
      <trkpt lat="47.24292" lon="-1.55356">
        <ele>54.245956</ele>
        <time>2021-12-14T09:32:35Z</time>
      </trkpt>
      <trkpt lat="47.24291" lon="-1.55348">
        <ele>54.323666</ele>
        <time>2021-12-14T09:32:39Z</time>
      </trkpt>
      <trkpt lat="47.24291" lon="-1.5534">
        <ele>54.369884</ele>
        <time>2021-12-14T09:32:44Z</time>
      </trkpt>
      <trkpt lat="47.24289" lon="-1.55333">
        <ele>54.285988</ele>
        <time>2021-12-14T09:32:47Z</time>
      </trkpt>
      <trkpt lat="47.24286" lon="-1.55326">
        <ele>54.21258</ele>
        <time>2021-12-14T09:32:51Z</time>
      </trkpt>
      <trkpt lat="47.24286" lon="-1.55319">
        <ele>54.202618</ele>
        <time>2021-12-14T09:32:54Z</time>
      </trkpt>
      <trkpt lat="47.24284" lon="-1.55311">
        <ele>54.16384</ele>
        <time>2021-12-14T09:32:57Z</time>
      </trkpt>
      <trkpt lat="47.24284" lon="-1.55303">
        <ele>54.023537</ele>
        <time>2021-12-14T09:33:00Z</time>
      </trkpt>
      <trkpt lat="47.24284" lon="-1.55296">
        <ele>53.887123</ele>
        <time>2021-12-14T09:33:04Z</time>
      </trkpt>
      <trkpt lat="47.24286" lon="-1.55289">
        <ele>53.82811</ele>
        <time>2021-12-14T09:33:07Z</time>
      </trkpt>
      <trkpt lat="47.24287" lon="-1.55281">
        <ele>53.68418</ele>
        <time>2021-12-14T09:33:11Z</time>
      </trkpt>
      <trkpt lat="47.24287" lon="-1.55274">
        <ele>53.53975</ele>
        <time>2021-12-14T09:33:14Z</time>
      </trkpt>
      <trkpt lat="47.24288" lon="-1.55265">
        <ele>53.35206</ele>
        <time>2021-12-14T09:33:18Z</time>
      </trkpt>
      <trkpt lat="47.24289" lon="-1.55257">
        <ele>53.251217</ele>
        <time>2021-12-14T09:33:22Z</time>
      </trkpt>
      <trkpt lat="47.24291" lon="-1.5525">
        <ele>53.22359</ele>
        <time>2021-12-14T09:33:26Z</time>
      </trkpt>
      <trkpt lat="47.24291" lon="-1.55242">
        <ele>53.07893</ele>
        <time>2021-12-14T09:33:31Z</time>
      </trkpt>
      <trkpt lat="47.24291" lon="-1.55235">
        <ele>52.90329</ele>
        <time>2021-12-14T09:33:35Z</time>
      </trkpt>
      <trkpt lat="47.24293" lon="-1.55228">
        <ele>52.83215</ele>
        <time>2021-12-14T09:33:39Z</time>
      </trkpt>
      <trkpt lat="47.24293" lon="-1.55222">
        <ele>52.71014</ele>
        <time>2021-12-14T09:33:43Z</time>
      </trkpt>
      <trkpt lat="47.24294" lon="-1.55214">
        <ele>52.52524</ele>
        <time>2021-12-14T09:33:47Z</time>
      </trkpt>
      <trkpt lat="47.24294" lon="-1.55205">
        <ele>52.256817</ele>
        <time>2021-12-14T09:33:51Z</time>
      </trkpt>
      <trkpt lat="47.24295" lon="-1.55197">
        <ele>52.012283</ele>
        <time>2021-12-14T09:33:54Z</time>
      </trkpt>
      <trkpt lat="47.24295" lon="-1.55188">
        <ele>51.735603</ele>
        <time>2021-12-14T09:33:58Z</time>
      </trkpt>
      <trkpt lat="47.24297" lon="-1.55181">
        <ele>51.50052</ele>
        <time>2021-12-14T09:34:02Z</time>
      </trkpt>
      <trkpt lat="47.24298" lon="-1.55174">
        <ele>51.288486</ele>
        <time>2021-12-14T09:34:05Z</time>
      </trkpt>
      <trkpt lat="47.243" lon="-1.55166">
        <ele>50.975662</ele>
        <time>2021-12-14T09:34:09Z</time>
      </trkpt>
      <trkpt lat="47.24301" lon="-1.55158">
        <ele>50.822163</ele>
        <time>2021-12-14T09:34:13Z</time>
      </trkpt>
      <trkpt lat="47.24302" lon="-1.5515">
        <ele>50.782944</ele>
        <time>2021-12-14T09:34:16Z</time>
      </trkpt>
      <trkpt lat="47.24303" lon="-1.55143">
        <ele>50.739185</ele>
        <time>2021-12-14T09:34:20Z</time>
      </trkpt>
      <trkpt lat="47.24302" lon="-1.55137">
        <ele>50.65456</ele>
        <time>2021-12-14T09:34:23Z</time>
      </trkpt>
      <trkpt lat="47.243" lon="-1.55129">
        <ele>50.50097</ele>
        <time>2021-12-14T09:34:27Z</time>
      </trkpt>
      <trkpt lat="47.243" lon="-1.55121">
        <ele>50.36425</ele>
        <time>2021-12-14T09:34:30Z</time>
      </trkpt>
      <trkpt lat="47.243" lon="-1.55114">
        <ele>50.146656</ele>
        <time>2021-12-14T09:34:34Z</time>
      </trkpt>
      <trkpt lat="47.243" lon="-1.55106">
        <ele>50.019096</ele>
        <time>2021-12-14T09:34:38Z</time>
      </trkpt>
      <trkpt lat="47.243" lon="-1.55098">
        <ele>49.979694</ele>
        <time>2021-12-14T09:34:41Z</time>
      </trkpt>
      <trkpt lat="47.24299" lon="-1.5509">
        <ele>49.84939</ele>
        <time>2021-12-14T09:34:46Z</time>
      </trkpt>
      <trkpt lat="47.24299" lon="-1.55082">
        <ele>49.70407</ele>
        <time>2021-12-14T09:34:50Z</time>
      </trkpt>
      <trkpt lat="47.24299" lon="-1.55075">
        <ele>49.541313</ele>
        <time>2021-12-14T09:34:53Z</time>
      </trkpt>
      <trkpt lat="47.24299" lon="-1.55068">
        <ele>49.378677</ele>
        <time>2021-12-14T09:34:57Z</time>
      </trkpt>
      <trkpt lat="47.24299" lon="-1.5506">
        <ele>49.28378</ele>
        <time>2021-12-14T09:35:01Z</time>
      </trkpt>
      <trkpt lat="47.24299" lon="-1.55054">
        <ele>49.086082</ele>
        <time>2021-12-14T09:35:05Z</time>
      </trkpt>
      <trkpt lat="47.24299" lon="-1.55047">
        <ele>48.910503</ele>
        <time>2021-12-14T09:35:09Z</time>
      </trkpt>
      <trkpt lat="47.243" lon="-1.55039">
        <ele>48.82772</ele>
        <time>2021-12-14T09:35:13Z</time>
      </trkpt>
      <trkpt lat="47.24299" lon="-1.55031">
        <ele>48.645252</ele>
        <time>2021-12-14T09:35:17Z</time>
      </trkpt>
      <trkpt lat="47.243" lon="-1.55024">
        <ele>48.311695</ele>
        <time>2021-12-14T09:35:21Z</time>
      </trkpt>
      <trkpt lat="47.24302" lon="-1.55017">
        <ele>48.091473</ele>
        <time>2021-12-14T09:35:25Z</time>
      </trkpt>
      <trkpt lat="47.24303" lon="-1.55008">
        <ele>47.934284</ele>
        <time>2021-12-14T09:35:28Z</time>
      </trkpt>
      <trkpt lat="47.24304" lon="-1.55">
        <ele>47.661278</ele>
        <time>2021-12-14T09:35:31Z</time>
      </trkpt>
      <trkpt lat="47.24305" lon="-1.54993">
        <ele>47.31903</ele>
        <time>2021-12-14T09:35:35Z</time>
      </trkpt>
      <trkpt lat="47.24306" lon="-1.54986">
        <ele>47.12249</ele>
        <time>2021-12-14T09:35:39Z</time>
      </trkpt>
      <trkpt lat="47.24306" lon="-1.54979">
        <ele>46.87276</ele>
        <time>2021-12-14T09:35:43Z</time>
      </trkpt>
      <trkpt lat="47.24305" lon="-1.54972">
        <ele>46.57845</ele>
        <time>2021-12-14T09:35:47Z</time>
      </trkpt>
      <trkpt lat="47.24303" lon="-1.54964">
        <ele>46.3265</ele>
        <time>2021-12-14T09:35:51Z</time>
      </trkpt>
      <trkpt lat="47.24302" lon="-1.54957">
        <ele>46.24499</ele>
        <time>2021-12-14T09:35:55Z</time>
      </trkpt>
      <trkpt lat="47.243" lon="-1.5495">
        <ele>46.193943</ele>
        <time>2021-12-14T09:35:59Z</time>
      </trkpt>
      <trkpt lat="47.24299" lon="-1.54942">
        <ele>46.195915</ele>
        <time>2021-12-14T09:36:03Z</time>
      </trkpt>
      <trkpt lat="47.24296" lon="-1.54936">
        <ele>46.112686</ele>
        <time>2021-12-14T09:36:07Z</time>
      </trkpt>
      <trkpt lat="47.24294" lon="-1.5493">
        <ele>46.02915</ele>
        <time>2021-12-14T09:36:10Z</time>
      </trkpt>
      <trkpt lat="47.2429" lon="-1.54925">
        <ele>45.807392</ele>
        <time>2021-12-14T09:36:17Z</time>
      </trkpt>
      <trkpt lat="47.24286" lon="-1.54919">
        <ele>45.72554</ele>
        <time>2021-12-14T09:36:21Z</time>
      </trkpt>
      <trkpt lat="47.24283" lon="-1.54913">
        <ele>45.672592</ele>
        <time>2021-12-14T09:36:24Z</time>
      </trkpt>
      <trkpt lat="47.24279" lon="-1.54907">
        <ele>45.66137</ele>
        <time>2021-12-14T09:36:27Z</time>
      </trkpt>
      <trkpt lat="47.24276" lon="-1.54899">
        <ele>45.66697</ele>
        <time>2021-12-14T09:36:30Z</time>
      </trkpt>
      <trkpt lat="47.24273" lon="-1.54892">
        <ele>45.691586</ele>
        <time>2021-12-14T09:36:33Z</time>
      </trkpt>
      <trkpt lat="47.24271" lon="-1.54884">
        <ele>45.734257</ele>
        <time>2021-12-14T09:36:37Z</time>
      </trkpt>
      <trkpt lat="47.2427" lon="-1.54876">
        <ele>45.793854</ele>
        <time>2021-12-14T09:36:40Z</time>
      </trkpt>
      <trkpt lat="47.2427" lon="-1.54868">
        <ele>45.985672</ele>
        <time>2021-12-14T09:36:45Z</time>
      </trkpt>
      <trkpt lat="47.24269" lon="-1.54861">
        <ele>46.17795</ele>
        <time>2021-12-14T09:36:49Z</time>
      </trkpt>
      <trkpt lat="47.2427" lon="-1.54854">
        <ele>46.355564</ele>
        <time>2021-12-14T09:36:53Z</time>
      </trkpt>
      <trkpt lat="47.24269" lon="-1.54847">
        <ele>46.566303</ele>
        <time>2021-12-14T09:36:58Z</time>
      </trkpt>
      <trkpt lat="47.2427" lon="-1.5484">
        <ele>46.68245</ele>
        <time>2021-12-14T09:37:01Z</time>
      </trkpt>
      <trkpt lat="47.24271" lon="-1.54832">
        <ele>46.911747</ele>
        <time>2021-12-14T09:37:05Z</time>
      </trkpt>
      <trkpt lat="47.24271" lon="-1.54824">
        <ele>47.10876</ele>
        <time>2021-12-14T09:37:09Z</time>
      </trkpt>
      <trkpt lat="47.24272" lon="-1.54816">
        <ele>47.227417</ele>
        <time>2021-12-14T09:37:13Z</time>
      </trkpt>
      <trkpt lat="47.24275" lon="-1.54809">
        <ele>47.396885</ele>
        <time>2021-12-14T09:37:17Z</time>
      </trkpt>
      <trkpt lat="47.2428" lon="-1.54807">
        <ele>47.56169</ele>
        <time>2021-12-14T09:37:20Z</time>
      </trkpt>
      <trkpt lat="47.24285" lon="-1.54804">
        <ele>47.6153</ele>
        <time>2021-12-14T09:37:24Z</time>
      </trkpt>
      <trkpt lat="47.24291" lon="-1.54803">
        <ele>47.602203</ele>
        <time>2021-12-14T09:37:28Z</time>
      </trkpt>
      <trkpt lat="47.24297" lon="-1.548">
        <ele>47.539207</ele>
        <time>2021-12-14T09:37:34Z</time>
      </trkpt>
      <trkpt lat="47.24302" lon="-1.54797">
        <ele>47.47976</ele>
        <time>2021-12-14T09:37:38Z</time>
      </trkpt>
      <trkpt lat="47.24308" lon="-1.54795">
        <ele>47.592</ele>
        <time>2021-12-14T09:37:43Z</time>
      </trkpt>
      <trkpt lat="47.24314" lon="-1.54795">
        <ele>47.84834</ele>
        <time>2021-12-14T09:37:47Z</time>
      </trkpt>
      <trkpt lat="47.24318" lon="-1.54795">
        <ele>48.192978</ele>
        <time>2021-12-14T09:37:51Z</time>
      </trkpt>
      <trkpt lat="47.24323" lon="-1.54792">
        <ele>48.583775</ele>
        <time>2021-12-14T09:37:55Z</time>
      </trkpt>
      <trkpt lat="47.24328" lon="-1.54789">
        <ele>48.943977</ele>
        <time>2021-12-14T09:37:58Z</time>
      </trkpt>
      <trkpt lat="47.24331" lon="-1.54783">
        <ele>49.449608</ele>
        <time>2021-12-14T09:38:02Z</time>
      </trkpt>
      <trkpt lat="47.24335" lon="-1.54776">
        <ele>49.983593</ele>
        <time>2021-12-14T09:38:06Z</time>
      </trkpt>
      <trkpt lat="47.24339" lon="-1.54771">
        <ele>50.372433</ele>
        <time>2021-12-14T09:38:09Z</time>
      </trkpt>
      <trkpt lat="47.24342" lon="-1.54766">
        <ele>50.95822</ele>
        <time>2021-12-14T09:38:14Z</time>
      </trkpt>
      <trkpt lat="47.24345" lon="-1.5476">
        <ele>51.35613</ele>
        <time>2021-12-14T09:38:18Z</time>
      </trkpt>
      <trkpt lat="47.2435" lon="-1.54756">
        <ele>51.768204</ele>
        <time>2021-12-14T09:38:22Z</time>
      </trkpt>
      <trkpt lat="47.24354" lon="-1.54752">
        <ele>52.24702</ele>
        <time>2021-12-14T09:38:26Z</time>
      </trkpt>
      <trkpt lat="47.24359" lon="-1.54749">
        <ele>52.739677</ele>
        <time>2021-12-14T09:38:29Z</time>
      </trkpt>
      <trkpt lat="47.24364" lon="-1.54746">
        <ele>53.201</ele>
        <time>2021-12-14T09:38:32Z</time>
      </trkpt>
      <trkpt lat="47.24369" lon="-1.54742">
        <ele>53.834694</ele>
        <time>2021-12-14T09:38:36Z</time>
      </trkpt>
      <trkpt lat="47.24373" lon="-1.54738">
        <ele>54.6357</ele>
        <time>2021-12-14T09:38:41Z</time>
      </trkpt>
      <trkpt lat="47.24377" lon="-1.54733">
        <ele>55.16818</ele>
        <time>2021-12-14T09:38:45Z</time>
      </trkpt>
      <trkpt lat="47.24382" lon="-1.54728">
        <ele>55.54323</ele>
        <time>2021-12-14T09:38:48Z</time>
      </trkpt>
      <trkpt lat="47.24387" lon="-1.54724">
        <ele>56.193455</ele>
        <time>2021-12-14T09:38:53Z</time>
      </trkpt>
      <trkpt lat="47.24391" lon="-1.54721">
        <ele>56.637886</ele>
        <time>2021-12-14T09:38:57Z</time>
      </trkpt>
      <trkpt lat="47.24397" lon="-1.54717">
        <ele>57.05761</ele>
        <time>2021-12-14T09:39:02Z</time>
      </trkpt>
      <trkpt lat="47.24402" lon="-1.54713">
        <ele>57.32374</ele>
        <time>2021-12-14T09:39:06Z</time>
      </trkpt>
      <trkpt lat="47.24407" lon="-1.5471">
        <ele>57.651623</ele>
        <time>2021-12-14T09:39:11Z</time>
      </trkpt>
      <trkpt lat="47.24412" lon="-1.54706">
        <ele>57.961197</ele>
        <time>2021-12-14T09:39:16Z</time>
      </trkpt>
      <trkpt lat="47.24416" lon="-1.54703">
        <ele>58.128807</ele>
        <time>2021-12-14T09:39:19Z</time>
      </trkpt>
      <trkpt lat="47.24421" lon="-1.54699">
        <ele>58.275986</ele>
        <time>2021-12-14T09:39:23Z</time>
      </trkpt>
      <trkpt lat="47.24426" lon="-1.54696">
        <ele>58.53586</ele>
        <time>2021-12-14T09:39:28Z</time>
      </trkpt>
      <trkpt lat="47.24431" lon="-1.54693">
        <ele>58.75657</ele>
        <time>2021-12-14T09:39:32Z</time>
      </trkpt>
      <trkpt lat="47.24436" lon="-1.5469">
        <ele>58.941547</ele>
        <time>2021-12-14T09:39:35Z</time>
      </trkpt>
      <trkpt lat="47.2444" lon="-1.54686">
        <ele>59.26748</ele>
        <time>2021-12-14T09:39:39Z</time>
      </trkpt>
      <trkpt lat="47.24446" lon="-1.54683">
        <ele>59.457195</ele>
        <time>2021-12-14T09:39:44Z</time>
      </trkpt>
      <trkpt lat="47.24451" lon="-1.54681">
        <ele>59.615772</ele>
        <time>2021-12-14T09:39:48Z</time>
      </trkpt>
      <trkpt lat="47.24456" lon="-1.54678">
        <ele>59.82642</ele>
        <time>2021-12-14T09:39:53Z</time>
      </trkpt>
      <trkpt lat="47.24461" lon="-1.54674">
        <ele>59.850716</ele>
        <time>2021-12-14T09:39:57Z</time>
      </trkpt>
      <trkpt lat="47.24467" lon="-1.54671">
        <ele>59.75131</ele>
        <time>2021-12-14T09:40:02Z</time>
      </trkpt>
      <trkpt lat="47.24472" lon="-1.54668">
        <ele>59.781498</ele>
        <time>2021-12-14T09:40:06Z</time>
      </trkpt>
      <trkpt lat="47.24477" lon="-1.54665">
        <ele>59.767635</ele>
        <time>2021-12-14T09:40:10Z</time>
      </trkpt>
      <trkpt lat="47.24481" lon="-1.54661">
        <ele>59.759544</ele>
        <time>2021-12-14T09:40:14Z</time>
      </trkpt>
      <trkpt lat="47.24485" lon="-1.54658">
        <ele>59.68971</ele>
        <time>2021-12-14T09:40:18Z</time>
      </trkpt>
      <trkpt lat="47.2449" lon="-1.54654">
        <ele>59.55367</ele>
        <time>2021-12-14T09:40:22Z</time>
      </trkpt>
      <trkpt lat="47.24494" lon="-1.5465">
        <ele>59.316566</ele>
        <time>2021-12-14T09:40:26Z</time>
      </trkpt>
      <trkpt lat="47.24499" lon="-1.54647">
        <ele>59.13621</ele>
        <time>2021-12-14T09:40:29Z</time>
      </trkpt>
      <trkpt lat="47.24503" lon="-1.54644">
        <ele>58.981606</ele>
        <time>2021-12-14T09:40:32Z</time>
      </trkpt>
      <trkpt lat="47.24508" lon="-1.54641">
        <ele>58.79924</ele>
        <time>2021-12-14T09:40:36Z</time>
      </trkpt>
      <trkpt lat="47.24513" lon="-1.54637">
        <ele>58.68067</ele>
        <time>2021-12-14T09:40:40Z</time>
      </trkpt>
      <trkpt lat="47.24517" lon="-1.54633">
        <ele>58.573936</ele>
        <time>2021-12-14T09:40:44Z</time>
      </trkpt>
      <trkpt lat="47.24522" lon="-1.54631">
        <ele>58.45938</ele>
        <time>2021-12-14T09:40:48Z</time>
      </trkpt>
      <trkpt lat="47.24527" lon="-1.54629">
        <ele>58.252094</ele>
        <time>2021-12-14T09:40:52Z</time>
      </trkpt>
      <trkpt lat="47.24532" lon="-1.54627">
        <ele>57.922813</ele>
        <time>2021-12-14T09:40:56Z</time>
      </trkpt>
      <trkpt lat="47.24536" lon="-1.54626">
        <ele>57.572105</ele>
        <time>2021-12-14T09:40:59Z</time>
      </trkpt>
      <trkpt lat="47.24541" lon="-1.54624">
        <ele>57.140896</ele>
        <time>2021-12-14T09:41:02Z</time>
      </trkpt>
      <trkpt lat="47.24546" lon="-1.54622">
        <ele>56.44678</ele>
        <time>2021-12-14T09:41:07Z</time>
      </trkpt>
      <trkpt lat="47.24551" lon="-1.5462">
        <ele>55.9369</ele>
        <time>2021-12-14T09:41:11Z</time>
      </trkpt>
      <trkpt lat="47.24555" lon="-1.54617">
        <ele>55.575287</ele>
        <time>2021-12-14T09:41:16Z</time>
      </trkpt>
      <trkpt lat="47.2456" lon="-1.54613">
        <ele>55.21523</ele>
        <time>2021-12-14T09:41:20Z</time>
      </trkpt>
      <trkpt lat="47.24566" lon="-1.5461">
        <ele>54.78248</ele>
        <time>2021-12-14T09:41:25Z</time>
      </trkpt>
      <trkpt lat="47.24571" lon="-1.54608">
        <ele>54.45744</ele>
        <time>2021-12-14T09:41:29Z</time>
      </trkpt>
      <trkpt lat="47.24577" lon="-1.54607">
        <ele>54.29384</ele>
        <time>2021-12-14T09:41:32Z</time>
      </trkpt>
      <trkpt lat="47.24581" lon="-1.54606">
        <ele>54.098167</ele>
        <time>2021-12-14T09:41:37Z</time>
      </trkpt>
      <trkpt lat="47.24586" lon="-1.54605">
        <ele>53.95034</ele>
        <time>2021-12-14T09:41:40Z</time>
      </trkpt>
      <trkpt lat="47.24591" lon="-1.54604">
        <ele>53.479034</ele>
        <time>2021-12-14T09:41:48Z</time>
      </trkpt>
      <trkpt lat="47.24596" lon="-1.54605">
        <ele>52.951115</ele>
        <time>2021-12-14T09:41:52Z</time>
      </trkpt>
      <trkpt lat="47.24601" lon="-1.54606">
        <ele>52.095222</ele>
        <time>2021-12-14T09:42:00Z</time>
      </trkpt>
      <trkpt lat="47.24606" lon="-1.54607">
        <ele>51.768013</ele>
        <time>2021-12-14T09:42:02Z</time>
      </trkpt>
      <trkpt lat="47.24611" lon="-1.54605">
        <ele>51.491848</ele>
        <time>2021-12-14T09:42:05Z</time>
      </trkpt>
      <trkpt lat="47.24616" lon="-1.54604">
        <ele>51.310905</ele>
        <time>2021-12-14T09:42:07Z</time>
      </trkpt>
      <trkpt lat="47.2462" lon="-1.54603">
        <ele>51.095234</ele>
        <time>2021-12-14T09:42:10Z</time>
      </trkpt>
      <trkpt lat="47.24625" lon="-1.54602">
        <ele>50.86069</ele>
        <time>2021-12-14T09:42:14Z</time>
      </trkpt>
      <trkpt lat="47.2463" lon="-1.546">
        <ele>50.636246</ele>
        <time>2021-12-14T09:42:20Z</time>
      </trkpt>
      <trkpt lat="47.24635" lon="-1.54598">
        <ele>50.617588</ele>
        <time>2021-12-14T09:42:23Z</time>
      </trkpt>
      <trkpt lat="47.24639" lon="-1.54596">
        <ele>50.725937</ele>
        <time>2021-12-14T09:42:26Z</time>
      </trkpt>
      <trkpt lat="47.24643" lon="-1.54592">
        <ele>50.99398</ele>
        <time>2021-12-14T09:42:30Z</time>
      </trkpt>
      <trkpt lat="47.24648" lon="-1.54587">
        <ele>51.252613</ele>
        <time>2021-12-14T09:42:34Z</time>
      </trkpt>
      <trkpt lat="47.24652" lon="-1.54582">
        <ele>51.483047</ele>
        <time>2021-12-14T09:42:39Z</time>
      </trkpt>
      <trkpt lat="47.24657" lon="-1.5458">
        <ele>51.68586</ele>
        <time>2021-12-14T09:42:43Z</time>
      </trkpt>
      <trkpt lat="47.24662" lon="-1.54577">
        <ele>51.874413</ele>
        <time>2021-12-14T09:42:48Z</time>
      </trkpt>
      <trkpt lat="47.24666" lon="-1.54576">
        <ele>51.987103</ele>
        <time>2021-12-14T09:42:52Z</time>
      </trkpt>
      <trkpt lat="47.24672" lon="-1.54575">
        <ele>52.086853</ele>
        <time>2021-12-14T09:42:55Z</time>
      </trkpt>
      <trkpt lat="47.24677" lon="-1.54574">
        <ele>52.187756</ele>
        <time>2021-12-14T09:42:59Z</time>
      </trkpt>
      <trkpt lat="47.24682" lon="-1.54572">
        <ele>52.237366</ele>
        <time>2021-12-14T09:43:03Z</time>
      </trkpt>
      <trkpt lat="47.24687" lon="-1.5457">
        <ele>52.26935</ele>
        <time>2021-12-14T09:43:06Z</time>
      </trkpt>
      <trkpt lat="47.24692" lon="-1.54567">
        <ele>52.268017</ele>
        <time>2021-12-14T09:43:10Z</time>
      </trkpt>
      <trkpt lat="47.24697" lon="-1.54566">
        <ele>52.225285</ele>
        <time>2021-12-14T09:43:14Z</time>
      </trkpt>
      <trkpt lat="47.24702" lon="-1.54565">
        <ele>52.09908</ele>
        <time>2021-12-14T09:43:19Z</time>
      </trkpt>
      <trkpt lat="47.24707" lon="-1.54566">
        <ele>51.90332</ele>
        <time>2021-12-14T09:43:24Z</time>
      </trkpt>
      <trkpt lat="47.24711" lon="-1.54562">
        <ele>50.80426</ele>
        <time>2021-12-14T09:43:34Z</time>
      </trkpt>
      <trkpt lat="47.24715" lon="-1.54557">
        <ele>48.81535</ele>
        <time>2021-12-14T09:43:41Z</time>
      </trkpt>
      <trkpt lat="47.24713" lon="-1.54549">
        <ele>45.450123</ele>
        <time>2021-12-14T09:43:52Z</time>
      </trkpt>
      <trkpt lat="47.24716" lon="-1.54543">
        <ele>44.067863</ele>
        <time>2021-12-14T09:43:56Z</time>
      </trkpt>
      <trkpt lat="47.24719" lon="-1.54537">
        <ele>42.569157</ele>
        <time>2021-12-14T09:44:01Z</time>
      </trkpt>
      <trkpt lat="47.24723" lon="-1.54534">
        <ele>41.696827</ele>
        <time>2021-12-14T09:44:04Z</time>
      </trkpt>
      <trkpt lat="47.24727" lon="-1.54531">
        <ele>40.411564</ele>
        <time>2021-12-14T09:44:07Z</time>
      </trkpt>
      <trkpt lat="47.2473" lon="-1.54526">
        <ele>39.05908</ele>
        <time>2021-12-14T09:44:10Z</time>
      </trkpt>
      <trkpt lat="47.24733" lon="-1.5452">
        <ele>37.746593</ele>
        <time>2021-12-14T09:44:13Z</time>
      </trkpt>
      <trkpt lat="47.24739" lon="-1.54515">
        <ele>36.84159</ele>
        <time>2021-12-14T09:44:16Z</time>
      </trkpt>
      <trkpt lat="47.24739" lon="-1.54515">
        <ele>36.84159</ele>
        <time>2021-12-14T09:44:16Z</time>
      </trkpt>
      <trkpt lat="47.24739" lon="-1.54515">
        <ele>36.84159</ele>
        <time>2021-12-14T09:44:16Z</time>
      </trkpt>
      <trkpt lat="47.24751" lon="-1.54509">
        <ele>34.89444</ele>
        <time>2021-12-14T09:44:25Z</time>
      </trkpt>
      <trkpt lat="47.24757" lon="-1.54507">
        <ele>34.272976</ele>
        <time>2021-12-14T09:44:28Z</time>
      </trkpt>
      <trkpt lat="47.24761" lon="-1.54503">
        <ele>33.67419</ele>
        <time>2021-12-14T09:44:31Z</time>
      </trkpt>
      <trkpt lat="47.24765" lon="-1.54497">
        <ele>33.182755</ele>
        <time>2021-12-14T09:44:34Z</time>
      </trkpt>
      <trkpt lat="47.2477" lon="-1.54491">
        <ele>32.84613</ele>
        <time>2021-12-14T09:44:38Z</time>
      </trkpt>
      <trkpt lat="47.24774" lon="-1.54486">
        <ele>32.80282</ele>
        <time>2021-12-14T09:44:42Z</time>
      </trkpt>
      <trkpt lat="47.24779" lon="-1.5448">
        <ele>32.99112</ele>
        <time>2021-12-14T09:44:45Z</time>
      </trkpt>
      <trkpt lat="47.24783" lon="-1.54477">
        <ele>33.328873</ele>
        <time>2021-12-14T09:44:48Z</time>
      </trkpt>
      <trkpt lat="47.24787" lon="-1.54474">
        <ele>33.72191</ele>
        <time>2021-12-14T09:44:51Z</time>
      </trkpt>
      <trkpt lat="47.24792" lon="-1.5447">
        <ele>34.36634</ele>
        <time>2021-12-14T09:44:56Z</time>
      </trkpt>
      <trkpt lat="47.24797" lon="-1.54466">
        <ele>35.050495</ele>
        <time>2021-12-14T09:45:00Z</time>
      </trkpt>
      <trkpt lat="47.24803" lon="-1.54459">
        <ele>35.92122</ele>
        <time>2021-12-14T09:45:05Z</time>
      </trkpt>
      <trkpt lat="47.24807" lon="-1.54455">
        <ele>36.518276</ele>
        <time>2021-12-14T09:45:08Z</time>
      </trkpt>
      <trkpt lat="47.24812" lon="-1.54451">
        <ele>37.09152</ele>
        <time>2021-12-14T09:45:11Z</time>
      </trkpt>
      <trkpt lat="47.24816" lon="-1.54446">
        <ele>37.82326</ele>
        <time>2021-12-14T09:45:16Z</time>
      </trkpt>
      <trkpt lat="47.2482" lon="-1.54442">
        <ele>38.155315</ele>
        <time>2021-12-14T09:45:19Z</time>
      </trkpt>
      <trkpt lat="47.24823" lon="-1.54436">
        <ele>38.726677</ele>
        <time>2021-12-14T09:45:26Z</time>
      </trkpt>
      <trkpt lat="47.24828" lon="-1.54431">
        <ele>38.99015</ele>
        <time>2021-12-14T09:45:29Z</time>
      </trkpt>
      <trkpt lat="47.24832" lon="-1.54427">
        <ele>39.186375</ele>
        <time>2021-12-14T09:45:31Z</time>
      </trkpt>
      <trkpt lat="47.24837" lon="-1.54422">
        <ele>39.532043</ele>
        <time>2021-12-14T09:45:34Z</time>
      </trkpt>
      <trkpt lat="47.24841" lon="-1.54418">
        <ele>39.90215</ele>
        <time>2021-12-14T09:45:37Z</time>
      </trkpt>
      <trkpt lat="47.24846" lon="-1.54414">
        <ele>40.3535</ele>
        <time>2021-12-14T09:45:41Z</time>
      </trkpt>
      <trkpt lat="47.2485" lon="-1.54409">
        <ele>40.84564</ele>
        <time>2021-12-14T09:45:45Z</time>
      </trkpt>
      <trkpt lat="47.24853" lon="-1.54403">
        <ele>41.143276</ele>
        <time>2021-12-14T09:45:48Z</time>
      </trkpt>
      <trkpt lat="47.24857" lon="-1.54397">
        <ele>41.531887</ele>
        <time>2021-12-14T09:45:52Z</time>
      </trkpt>
      <trkpt lat="47.24861" lon="-1.54393">
        <ele>41.826595</ele>
        <time>2021-12-14T09:45:56Z</time>
      </trkpt>
      <trkpt lat="47.24864" lon="-1.54388">
        <ele>42.124428</ele>
        <time>2021-12-14T09:46:02Z</time>
      </trkpt>
      <trkpt lat="47.24868" lon="-1.54382">
        <ele>42.311565</ele>
        <time>2021-12-14T09:46:05Z</time>
      </trkpt>
      <trkpt lat="47.24873" lon="-1.54377">
        <ele>42.587273</ele>
        <time>2021-12-14T09:46:09Z</time>
      </trkpt>
      <trkpt lat="47.24877" lon="-1.54373">
        <ele>42.694126</ele>
        <time>2021-12-14T09:46:14Z</time>
      </trkpt>
      <trkpt lat="47.24881" lon="-1.54368">
        <ele>42.76715</ele>
        <time>2021-12-14T09:46:17Z</time>
      </trkpt>
      <trkpt lat="47.24885" lon="-1.54363">
        <ele>42.912556</ele>
        <time>2021-12-14T09:46:20Z</time>
      </trkpt>
      <trkpt lat="47.24891" lon="-1.5436">
        <ele>43.1491</ele>
        <time>2021-12-14T09:46:24Z</time>
      </trkpt>
      <trkpt lat="47.24896" lon="-1.54359">
        <ele>43.33878</ele>
        <time>2021-12-14T09:46:28Z</time>
      </trkpt>
      <trkpt lat="47.24899" lon="-1.54353">
        <ele>43.370964</ele>
        <time>2021-12-14T09:46:32Z</time>
      </trkpt>
      <trkpt lat="47.24902" lon="-1.54347">
        <ele>43.24339</ele>
        <time>2021-12-14T09:46:36Z</time>
      </trkpt>
      <trkpt lat="47.24905" lon="-1.54341">
        <ele>43.17032</ele>
        <time>2021-12-14T09:46:39Z</time>
      </trkpt>
      <trkpt lat="47.24908" lon="-1.54335">
        <ele>43.162712</ele>
        <time>2021-12-14T09:46:42Z</time>
      </trkpt>
      <trkpt lat="47.24912" lon="-1.54329">
        <ele>43.20436</ele>
        <time>2021-12-14T09:46:47Z</time>
      </trkpt>
      <trkpt lat="47.24917" lon="-1.54326">
        <ele>43.171814</ele>
        <time>2021-12-14T09:46:51Z</time>
      </trkpt>
      <trkpt lat="47.24921" lon="-1.54323">
        <ele>43.024445</ele>
        <time>2021-12-14T09:46:56Z</time>
      </trkpt>
      <trkpt lat="47.24927" lon="-1.54318">
        <ele>42.707886</ele>
        <time>2021-12-14T09:47:00Z</time>
      </trkpt>
      <trkpt lat="47.24932" lon="-1.54314">
        <ele>42.377625</ele>
        <time>2021-12-14T09:47:05Z</time>
      </trkpt>
      <trkpt lat="47.24937" lon="-1.5431">
        <ele>42.21062</ele>
        <time>2021-12-14T09:47:08Z</time>
      </trkpt>
      <trkpt lat="47.24941" lon="-1.54308">
        <ele>42.075542</ele>
        <time>2021-12-14T09:47:11Z</time>
      </trkpt>
      <trkpt lat="47.24947" lon="-1.54307">
        <ele>42.046604</ele>
        <time>2021-12-14T09:47:14Z</time>
      </trkpt>
      <trkpt lat="47.2495" lon="-1.54303">
        <ele>42.161247</ele>
        <time>2021-12-14T09:47:17Z</time>
      </trkpt>
      <trkpt lat="47.24954" lon="-1.54299">
        <ele>42.445084</ele>
        <time>2021-12-14T09:47:21Z</time>
      </trkpt>
      <trkpt lat="47.24958" lon="-1.54294">
        <ele>42.669334</ele>
        <time>2021-12-14T09:47:24Z</time>
      </trkpt>
      <trkpt lat="47.24961" lon="-1.54289">
        <ele>42.87341</ele>
        <time>2021-12-14T09:47:27Z</time>
      </trkpt>
      <trkpt lat="47.24962" lon="-1.54282">
        <ele>43.04838</ele>
        <time>2021-12-14T09:47:33Z</time>
      </trkpt>
      <trkpt lat="47.24963" lon="-1.54273">
        <ele>43.30233</ele>
        <time>2021-12-14T09:47:36Z</time>
      </trkpt>
      <trkpt lat="47.24965" lon="-1.54267">
        <ele>43.71624</ele>
        <time>2021-12-14T09:47:39Z</time>
      </trkpt>
      <trkpt lat="47.24971" lon="-1.5426">
        <ele>44.221893</ele>
        <time>2021-12-14T09:47:43Z</time>
      </trkpt>
      <trkpt lat="47.24976" lon="-1.54254">
        <ele>44.656666</ele>
        <time>2021-12-14T09:47:46Z</time>
      </trkpt>
      <trkpt lat="47.2498" lon="-1.54251">
        <ele>45.083714</ele>
        <time>2021-12-14T09:47:49Z</time>
      </trkpt>
      <trkpt lat="47.24984" lon="-1.54247">
        <ele>45.59701</ele>
        <time>2021-12-14T09:47:53Z</time>
      </trkpt>
      <trkpt lat="47.24989" lon="-1.54244">
        <ele>46.06032</ele>
        <time>2021-12-14T09:47:57Z</time>
      </trkpt>
      <trkpt lat="47.24992" lon="-1.54238">
        <ele>46.425415</ele>
        <time>2021-12-14T09:48:00Z</time>
      </trkpt>
      <trkpt lat="47.24996" lon="-1.54233">
        <ele>46.96741</ele>
        <time>2021-12-14T09:48:04Z</time>
      </trkpt>
      <trkpt lat="47.25002" lon="-1.54227">
        <ele>47.507496</ele>
        <time>2021-12-14T09:48:08Z</time>
      </trkpt>
      <trkpt lat="47.25006" lon="-1.54223">
        <ele>47.881905</ele>
        <time>2021-12-14T09:48:11Z</time>
      </trkpt>
      <trkpt lat="47.2501" lon="-1.54219">
        <ele>48.29399</ele>
        <time>2021-12-14T09:48:14Z</time>
      </trkpt>
      <trkpt lat="47.25014" lon="-1.54214">
        <ele>48.93313</ele>
        <time>2021-12-14T09:48:18Z</time>
      </trkpt>
      <trkpt lat="47.25017" lon="-1.5421">
        <ele>49.446922</ele>
        <time>2021-12-14T09:48:21Z</time>
      </trkpt>
      <trkpt lat="47.25021" lon="-1.54206">
        <ele>50.200523</ele>
        <time>2021-12-14T09:48:25Z</time>
      </trkpt>
      <trkpt lat="47.25026" lon="-1.54201">
        <ele>50.891197</ele>
        <time>2021-12-14T09:48:29Z</time>
      </trkpt>
      <trkpt lat="47.2503" lon="-1.54196">
        <ele>51.46504</ele>
        <time>2021-12-14T09:48:33Z</time>
      </trkpt>
      <trkpt lat="47.25034" lon="-1.54192">
        <ele>52.091766</ele>
        <time>2021-12-14T09:48:38Z</time>
      </trkpt>
      <trkpt lat="47.25037" lon="-1.54185">
        <ele>52.476475</ele>
        <time>2021-12-14T09:48:42Z</time>
      </trkpt>
      <trkpt lat="47.25041" lon="-1.5418">
        <ele>52.80595</ele>
        <time>2021-12-14T09:48:46Z</time>
      </trkpt>
      <trkpt lat="47.25046" lon="-1.54175">
        <ele>53.046394</ele>
        <time>2021-12-14T09:48:50Z</time>
      </trkpt>
      <trkpt lat="47.25049" lon="-1.54169">
        <ele>53.244152</ele>
        <time>2021-12-14T09:48:54Z</time>
      </trkpt>
      <trkpt lat="47.25053" lon="-1.54164">
        <ele>53.466423</ele>
        <time>2021-12-14T09:48:59Z</time>
      </trkpt>
      <trkpt lat="47.25057" lon="-1.54159">
        <ele>53.65819</ele>
        <time>2021-12-14T09:49:04Z</time>
      </trkpt>
      <trkpt lat="47.25061" lon="-1.54153">
        <ele>53.774696</ele>
        <time>2021-12-14T09:49:08Z</time>
      </trkpt>
      <trkpt lat="47.25065" lon="-1.54149">
        <ele>53.929142</ele>
        <time>2021-12-14T09:49:12Z</time>
      </trkpt>
      <trkpt lat="47.25069" lon="-1.54145">
        <ele>54.00167</ele>
        <time>2021-12-14T09:49:15Z</time>
      </trkpt>
      <trkpt lat="47.25074" lon="-1.54142">
        <ele>54.06437</ele>
        <time>2021-12-14T09:49:18Z</time>
      </trkpt>
      <trkpt lat="47.25079" lon="-1.54137">
        <ele>54.178524</ele>
        <time>2021-12-14T09:49:22Z</time>
      </trkpt>
      <trkpt lat="47.25083" lon="-1.54134">
        <ele>54.302887</ele>
        <time>2021-12-14T09:49:25Z</time>
      </trkpt>
      <trkpt lat="47.25089" lon="-1.54129">
        <ele>54.465492</ele>
        <time>2021-12-14T09:49:30Z</time>
      </trkpt>
      <trkpt lat="47.25093" lon="-1.54126">
        <ele>54.528843</ele>
        <time>2021-12-14T09:49:34Z</time>
      </trkpt>
      <trkpt lat="47.25098" lon="-1.54122">
        <ele>54.529564</ele>
        <time>2021-12-14T09:49:39Z</time>
      </trkpt>
      <trkpt lat="47.25102" lon="-1.54119">
        <ele>54.538227</ele>
        <time>2021-12-14T09:49:43Z</time>
      </trkpt>
      <trkpt lat="47.25106" lon="-1.54116">
        <ele>54.49579</ele>
        <time>2021-12-14T09:49:49Z</time>
      </trkpt>
      <trkpt lat="47.25112" lon="-1.54112">
        <ele>54.44923</ele>
        <time>2021-12-14T09:49:53Z</time>
      </trkpt>
      <trkpt lat="47.25116" lon="-1.54109">
        <ele>54.4534</ele>
        <time>2021-12-14T09:49:56Z</time>
      </trkpt>
      <trkpt lat="47.25121" lon="-1.54105">
        <ele>54.509113</ele>
        <time>2021-12-14T09:50:00Z</time>
      </trkpt>
      <trkpt lat="47.25123" lon="-1.54097">
        <ele>54.732754</ele>
        <time>2021-12-14T09:50:05Z</time>
      </trkpt>
      <trkpt lat="47.25126" lon="-1.54091">
        <ele>54.957798</ele>
        <time>2021-12-14T09:50:10Z</time>
      </trkpt>
      <trkpt lat="47.2513" lon="-1.54085">
        <ele>55.021893</ele>
        <time>2021-12-14T09:50:14Z</time>
      </trkpt>
      <trkpt lat="47.25134" lon="-1.54081">
        <ele>54.93197</ele>
        <time>2021-12-14T09:50:20Z</time>
      </trkpt>
      <trkpt lat="47.25138" lon="-1.54078">
        <ele>54.797806</ele>
        <time>2021-12-14T09:50:24Z</time>
      </trkpt>
      <trkpt lat="47.25142" lon="-1.54073">
        <ele>54.63547</ele>
        <time>2021-12-14T09:50:28Z</time>
      </trkpt>
      <trkpt lat="47.25148" lon="-1.54069">
        <ele>54.493595</ele>
        <time>2021-12-14T09:50:33Z</time>
      </trkpt>
      <trkpt lat="47.25153" lon="-1.54067">
        <ele>54.377895</ele>
        <time>2021-12-14T09:50:37Z</time>
      </trkpt>
      <trkpt lat="47.25159" lon="-1.54066">
        <ele>54.40699</ele>
        <time>2021-12-14T09:50:40Z</time>
      </trkpt>
      <trkpt lat="47.25164" lon="-1.54065">
        <ele>54.615887</ele>
        <time>2021-12-14T09:50:44Z</time>
      </trkpt>
      <trkpt lat="47.2517" lon="-1.54063">
        <ele>54.90693</ele>
        <time>2021-12-14T09:50:48Z</time>
      </trkpt>
      <trkpt lat="47.25175" lon="-1.54064">
        <ele>55.08866</ele>
        <time>2021-12-14T09:50:51Z</time>
      </trkpt>
      <trkpt lat="47.2518" lon="-1.54063">
        <ele>55.10805</ele>
        <time>2021-12-14T09:50:54Z</time>
      </trkpt>
      <trkpt lat="47.25186" lon="-1.54063">
        <ele>55.003334</ele>
        <time>2021-12-14T09:50:57Z</time>
      </trkpt>
      <trkpt lat="47.25192" lon="-1.5406">
        <ele>54.7623</ele>
        <time>2021-12-14T09:51:01Z</time>
      </trkpt>
      <trkpt lat="47.25197" lon="-1.54059">
        <ele>54.543423</ele>
        <time>2021-12-14T09:51:04Z</time>
      </trkpt>
      <trkpt lat="47.25202" lon="-1.54057">
        <ele>54.25591</ele>
        <time>2021-12-14T09:51:08Z</time>
      </trkpt>
      <trkpt lat="47.25207" lon="-1.54054">
        <ele>54.02211</ele>
        <time>2021-12-14T09:51:12Z</time>
      </trkpt>
      <trkpt lat="47.25212" lon="-1.54053">
        <ele>53.828915</ele>
        <time>2021-12-14T09:51:17Z</time>
      </trkpt>
      <trkpt lat="47.25217" lon="-1.5405">
        <ele>53.736618</ele>
        <time>2021-12-14T09:51:23Z</time>
      </trkpt>
      <trkpt lat="47.25222" lon="-1.54049">
        <ele>53.53144</ele>
        <time>2021-12-14T09:51:28Z</time>
      </trkpt>
      <trkpt lat="47.25227" lon="-1.54048">
        <ele>53.43241</ele>
        <time>2021-12-14T09:51:33Z</time>
      </trkpt>
      <trkpt lat="47.25233" lon="-1.54047">
        <ele>53.27115</ele>
        <time>2021-12-14T09:51:38Z</time>
      </trkpt>
      <trkpt lat="47.25237" lon="-1.54044">
        <ele>53.11305</ele>
        <time>2021-12-14T09:51:42Z</time>
      </trkpt>
      <trkpt lat="47.25242" lon="-1.54043">
        <ele>53.07928</ele>
        <time>2021-12-14T09:51:45Z</time>
      </trkpt>
      <trkpt lat="47.25248" lon="-1.54045">
        <ele>53.11597</ele>
        <time>2021-12-14T09:51:49Z</time>
      </trkpt>
      <trkpt lat="47.25254" lon="-1.54044">
        <ele>53.141262</ele>
        <time>2021-12-14T09:51:54Z</time>
      </trkpt>
      <trkpt lat="47.25259" lon="-1.54043">
        <ele>53.20592</ele>
        <time>2021-12-14T09:51:58Z</time>
      </trkpt>
      <trkpt lat="47.25264" lon="-1.5404">
        <ele>53.25396</ele>
        <time>2021-12-14T09:52:02Z</time>
      </trkpt>
      <trkpt lat="47.25269" lon="-1.54036">
        <ele>53.278732</ele>
        <time>2021-12-14T09:52:08Z</time>
      </trkpt>
      <trkpt lat="47.25275" lon="-1.54036">
        <ele>53.230003</ele>
        <time>2021-12-14T09:52:13Z</time>
      </trkpt>
      <trkpt lat="47.2528" lon="-1.54036">
        <ele>53.08241</ele>
        <time>2021-12-14T09:52:17Z</time>
      </trkpt>
      <trkpt lat="47.25285" lon="-1.54035">
        <ele>53.040283</ele>
        <time>2021-12-14T09:52:20Z</time>
      </trkpt>
      <trkpt lat="47.25291" lon="-1.54034">
        <ele>53.059757</ele>
        <time>2021-12-14T09:52:24Z</time>
      </trkpt>
      <trkpt lat="47.25296" lon="-1.54032">
        <ele>53.069977</ele>
        <time>2021-12-14T09:52:30Z</time>
      </trkpt>
      <trkpt lat="47.25301" lon="-1.54032">
        <ele>53.078033</ele>
        <time>2021-12-14T09:52:34Z</time>
      </trkpt>
      <trkpt lat="47.25308" lon="-1.54031">
        <ele>52.96996</ele>
        <time>2021-12-14T09:52:37Z</time>
      </trkpt>
      <trkpt lat="47.25313" lon="-1.54029">
        <ele>52.89694</ele>
        <time>2021-12-14T09:52:40Z</time>
      </trkpt>
      <trkpt lat="47.25319" lon="-1.54028">
        <ele>52.86753</ele>
        <time>2021-12-14T09:52:45Z</time>
      </trkpt>
      <trkpt lat="47.25324" lon="-1.5403">
        <ele>52.894478</ele>
        <time>2021-12-14T09:52:49Z</time>
      </trkpt>
      <trkpt lat="47.25327" lon="-1.54032">
        <ele>52.912846</ele>
        <time>2021-12-14T09:52:55Z</time>
      </trkpt>
      <trkpt lat="47.25327" lon="-1.54032">
        <ele>52.912846</ele>
        <time>2021-12-14T09:52:55Z</time>
      </trkpt>
      <trkpt lat="47.25333" lon="-1.54034">
        <ele>53.29434</ele>
        <time>2021-12-14T09:53:05Z</time>
      </trkpt>
      <trkpt lat="47.25338" lon="-1.54033">
        <ele>53.467</ele>
        <time>2021-12-14T09:53:09Z</time>
      </trkpt>
      <trkpt lat="47.25343" lon="-1.54032">
        <ele>53.61123</ele>
        <time>2021-12-14T09:53:12Z</time>
      </trkpt>
      <trkpt lat="47.25348" lon="-1.54032">
        <ele>53.937775</ele>
        <time>2021-12-14T09:53:17Z</time>
      </trkpt>
      <trkpt lat="47.25353" lon="-1.5403">
        <ele>54.21423</ele>
        <time>2021-12-14T09:53:22Z</time>
      </trkpt>
      <trkpt lat="47.25358" lon="-1.54028">
        <ele>54.360817</ele>
        <time>2021-12-14T09:53:25Z</time>
      </trkpt>
      <trkpt lat="47.25364" lon="-1.54027">
        <ele>54.634518</ele>
        <time>2021-12-14T09:53:29Z</time>
      </trkpt>
      <trkpt lat="47.25369" lon="-1.54027">
        <ele>54.81923</ele>
        <time>2021-12-14T09:53:34Z</time>
      </trkpt>
      <trkpt lat="47.25374" lon="-1.54023">
        <ele>55.455864</ele>
        <time>2021-12-14T09:53:39Z</time>
      </trkpt>
      <trkpt lat="47.25378" lon="-1.54022">
        <ele>56.492947</ele>
        <time>2021-12-14T09:53:45Z</time>
      </trkpt>
      <trkpt lat="47.25383" lon="-1.54021">
        <ele>56.944923</ele>
        <time>2021-12-14T09:53:50Z</time>
      </trkpt>
      <trkpt lat="47.25389" lon="-1.54021">
        <ele>57.030178</ele>
        <time>2021-12-14T09:53:53Z</time>
      </trkpt>
      <trkpt lat="47.25394" lon="-1.5402">
        <ele>57.124966</ele>
        <time>2021-12-14T09:53:57Z</time>
      </trkpt>
      <trkpt lat="47.25399" lon="-1.54019">
        <ele>57.120426</ele>
        <time>2021-12-14T09:54:03Z</time>
      </trkpt>
      <trkpt lat="47.25406" lon="-1.54019">
        <ele>57.140347</ele>
        <time>2021-12-14T09:54:07Z</time>
      </trkpt>
      <trkpt lat="47.25411" lon="-1.54016">
        <ele>57.20794</ele>
        <time>2021-12-14T09:54:10Z</time>
      </trkpt>
      <trkpt lat="47.25415" lon="-1.54014">
        <ele>57.451714</ele>
        <time>2021-12-14T09:54:15Z</time>
      </trkpt>
      <trkpt lat="47.25421" lon="-1.54013">
        <ele>57.50992</ele>
        <time>2021-12-14T09:54:18Z</time>
      </trkpt>
      <trkpt lat="47.25426" lon="-1.5401">
        <ele>57.43468</ele>
        <time>2021-12-14T09:54:22Z</time>
      </trkpt>
      <trkpt lat="47.25431" lon="-1.54008">
        <ele>57.291645</ele>
        <time>2021-12-14T09:54:26Z</time>
      </trkpt>
      <trkpt lat="47.25436" lon="-1.54007">
        <ele>57.113644</ele>
        <time>2021-12-14T09:54:30Z</time>
      </trkpt>
      <trkpt lat="47.25441" lon="-1.54008">
        <ele>56.91416</ele>
        <time>2021-12-14T09:54:33Z</time>
      </trkpt>
      <trkpt lat="47.25447" lon="-1.54006">
        <ele>56.701256</ele>
        <time>2021-12-14T09:54:38Z</time>
      </trkpt>
      <trkpt lat="47.25451" lon="-1.54005">
        <ele>56.578114</ele>
        <time>2021-12-14T09:54:41Z</time>
      </trkpt>
      <trkpt lat="47.25457" lon="-1.54004">
        <ele>56.379833</ele>
        <time>2021-12-14T09:54:45Z</time>
      </trkpt>
      <trkpt lat="47.25461" lon="-1.54003">
        <ele>56.16668</ele>
        <time>2021-12-14T09:54:48Z</time>
      </trkpt>
      <trkpt lat="47.25467" lon="-1.54002">
        <ele>55.95809</ele>
        <time>2021-12-14T09:54:51Z</time>
      </trkpt>
      <trkpt lat="47.25475" lon="-1.54001">
        <ele>55.684</ele>
        <time>2021-12-14T09:54:54Z</time>
      </trkpt>
      <trkpt lat="47.2548" lon="-1.54">
        <ele>55.307323</ele>
        <time>2021-12-14T09:55:00Z</time>
      </trkpt>
      <trkpt lat="47.25485" lon="-1.54">
        <ele>54.932327</ele>
        <time>2021-12-14T09:55:04Z</time>
      </trkpt>
      <trkpt lat="47.25491" lon="-1.54003">
        <ele>54.52245</ele>
        <time>2021-12-14T09:55:08Z</time>
      </trkpt>
      <trkpt lat="47.25496" lon="-1.54007">
        <ele>54.14355</ele>
        <time>2021-12-14T09:55:11Z</time>
      </trkpt>
      <trkpt lat="47.25502" lon="-1.54008">
        <ele>53.312363</ele>
        <time>2021-12-14T09:55:17Z</time>
      </trkpt>
      <trkpt lat="47.25508" lon="-1.54008">
        <ele>52.69432</ele>
        <time>2021-12-14T09:55:22Z</time>
      </trkpt>
      <trkpt lat="47.25512" lon="-1.54006">
        <ele>52.264057</ele>
        <time>2021-12-14T09:55:28Z</time>
      </trkpt>
      <trkpt lat="47.25517" lon="-1.54006">
        <ele>52.155113</ele>
        <time>2021-12-14T09:55:32Z</time>
      </trkpt>
      <trkpt lat="47.25522" lon="-1.54007">
        <ele>51.91107</ele>
        <time>2021-12-14T09:55:39Z</time>
      </trkpt>
      <trkpt lat="47.25527" lon="-1.54004">
        <ele>51.930523</ele>
        <time>2021-12-14T09:55:42Z</time>
      </trkpt>
      <trkpt lat="47.25531" lon="-1.54002">
        <ele>52.014122</ele>
        <time>2021-12-14T09:55:45Z</time>
      </trkpt>
      <trkpt lat="47.25536" lon="-1.53999">
        <ele>52.08418</ele>
        <time>2021-12-14T09:55:48Z</time>
      </trkpt>
      <trkpt lat="47.25541" lon="-1.53997">
        <ele>52.157776</ele>
        <time>2021-12-14T09:55:51Z</time>
      </trkpt>
      <trkpt lat="47.25546" lon="-1.53995">
        <ele>52.276695</ele>
        <time>2021-12-14T09:55:54Z</time>
      </trkpt>
      <trkpt lat="47.25552" lon="-1.53992">
        <ele>52.426144</ele>
        <time>2021-12-14T09:55:59Z</time>
      </trkpt>
      <trkpt lat="47.25557" lon="-1.5399">
        <ele>52.59005</ele>
        <time>2021-12-14T09:56:03Z</time>
      </trkpt>
      <trkpt lat="47.25563" lon="-1.53987">
        <ele>52.788387</ele>
        <time>2021-12-14T09:56:07Z</time>
      </trkpt>
      <trkpt lat="47.25568" lon="-1.53985">
        <ele>52.93765</ele>
        <time>2021-12-14T09:56:10Z</time>
      </trkpt>
      <trkpt lat="47.25573" lon="-1.53982">
        <ele>53.23108</ele>
        <time>2021-12-14T09:56:14Z</time>
      </trkpt>
      <trkpt lat="47.25578" lon="-1.53979">
        <ele>53.56049</ele>
        <time>2021-12-14T09:56:18Z</time>
      </trkpt>
      <trkpt lat="47.25582" lon="-1.53976">
        <ele>53.92297</ele>
        <time>2021-12-14T09:56:22Z</time>
      </trkpt>
      <trkpt lat="47.25588" lon="-1.53972">
        <ele>54.776264</ele>
        <time>2021-12-14T09:56:32Z</time>
      </trkpt>
      <trkpt lat="47.25592" lon="-1.53967">
        <ele>55.05899</ele>
        <time>2021-12-14T09:56:36Z</time>
      </trkpt>
      <trkpt lat="47.25598" lon="-1.53965">
        <ele>54.810776</ele>
        <time>2021-12-14T09:56:43Z</time>
      </trkpt>
      <trkpt lat="47.25603" lon="-1.53961">
        <ele>54.54431</ele>
        <time>2021-12-14T09:56:46Z</time>
      </trkpt>
      <trkpt lat="47.25606" lon="-1.53956">
        <ele>54.265404</ele>
        <time>2021-12-14T09:56:50Z</time>
      </trkpt>
      <trkpt lat="47.25611" lon="-1.53948">
        <ele>53.86733</ele>
        <time>2021-12-14T09:56:57Z</time>
      </trkpt>
      <trkpt lat="47.25617" lon="-1.53942">
        <ele>53.762592</ele>
        <time>2021-12-14T09:57:01Z</time>
      </trkpt>
      <trkpt lat="47.25623" lon="-1.53941">
        <ele>53.35991</ele>
        <time>2021-12-14T09:57:05Z</time>
      </trkpt>
      <trkpt lat="47.25628" lon="-1.53939">
        <ele>53.041786</ele>
        <time>2021-12-14T09:57:07Z</time>
      </trkpt>
      <trkpt lat="47.25633" lon="-1.53937">
        <ele>52.78969</ele>
        <time>2021-12-14T09:57:09Z</time>
      </trkpt>
      <trkpt lat="47.25637" lon="-1.53935">
        <ele>52.56246</ele>
        <time>2021-12-14T09:57:13Z</time>
      </trkpt>
      <trkpt lat="47.25642" lon="-1.53934">
        <ele>52.46264</ele>
        <time>2021-12-14T09:57:16Z</time>
      </trkpt>
      <trkpt lat="47.25648" lon="-1.53933">
        <ele>52.414684</ele>
        <time>2021-12-14T09:57:21Z</time>
      </trkpt>
      <trkpt lat="47.25653" lon="-1.53933">
        <ele>52.411236</ele>
        <time>2021-12-14T09:57:24Z</time>
      </trkpt>
      <trkpt lat="47.25658" lon="-1.53932">
        <ele>52.428917</ele>
        <time>2021-12-14T09:57:26Z</time>
      </trkpt>
      <trkpt lat="47.25662" lon="-1.53931">
        <ele>52.440453</ele>
        <time>2021-12-14T09:57:29Z</time>
      </trkpt>
      <trkpt lat="47.25667" lon="-1.53928">
        <ele>52.44149</ele>
        <time>2021-12-14T09:57:34Z</time>
      </trkpt>
      <trkpt lat="47.25672" lon="-1.53927">
        <ele>52.443657</ele>
        <time>2021-12-14T09:57:36Z</time>
      </trkpt>
      <trkpt lat="47.25678" lon="-1.53925">
        <ele>52.457066</ele>
        <time>2021-12-14T09:57:40Z</time>
      </trkpt>
      <trkpt lat="47.25682" lon="-1.53923">
        <ele>52.512543</ele>
        <time>2021-12-14T09:57:44Z</time>
      </trkpt>
      <trkpt lat="47.25686" lon="-1.53919">
        <ele>52.619183</ele>
        <time>2021-12-14T09:57:48Z</time>
      </trkpt>
      <trkpt lat="47.2569" lon="-1.53916">
        <ele>52.730022</ele>
        <time>2021-12-14T09:57:52Z</time>
      </trkpt>
      <trkpt lat="47.25696" lon="-1.53913">
        <ele>52.897713</ele>
        <time>2021-12-14T09:57:56Z</time>
      </trkpt>
      <trkpt lat="47.25702" lon="-1.5391">
        <ele>53.05762</ele>
        <time>2021-12-14T09:58:00Z</time>
      </trkpt>
      <trkpt lat="47.25707" lon="-1.53908">
        <ele>53.195595</ele>
        <time>2021-12-14T09:58:04Z</time>
      </trkpt>
      <trkpt lat="47.25712" lon="-1.53908">
        <ele>53.313675</ele>
        <time>2021-12-14T09:58:08Z</time>
      </trkpt>
      <trkpt lat="47.25717" lon="-1.53909">
        <ele>53.389217</ele>
        <time>2021-12-14T09:58:11Z</time>
      </trkpt>
      <trkpt lat="47.25722" lon="-1.53912">
        <ele>53.358536</ele>
        <time>2021-12-14T09:58:14Z</time>
      </trkpt>
      <trkpt lat="47.25726" lon="-1.53916">
        <ele>53.28058</ele>
        <time>2021-12-14T09:58:18Z</time>
      </trkpt>
      <trkpt lat="47.25729" lon="-1.53922">
        <ele>53.241783</ele>
        <time>2021-12-14T09:58:21Z</time>
      </trkpt>
      <trkpt lat="47.25732" lon="-1.53927">
        <ele>53.121086</ele>
        <time>2021-12-14T09:58:25Z</time>
      </trkpt>
      <trkpt lat="47.25736" lon="-1.53934">
        <ele>53.022873</ele>
        <time>2021-12-14T09:58:29Z</time>
      </trkpt>
      <trkpt lat="47.25739" lon="-1.5394">
        <ele>52.98035</ele>
        <time>2021-12-14T09:58:33Z</time>
      </trkpt>
      <trkpt lat="47.25742" lon="-1.53946">
        <ele>52.922714</ele>
        <time>2021-12-14T09:58:37Z</time>
      </trkpt>
      <trkpt lat="47.25745" lon="-1.53951">
        <ele>52.900784</ele>
        <time>2021-12-14T09:58:41Z</time>
      </trkpt>
      <trkpt lat="47.25748" lon="-1.53957">
        <ele>52.894035</ele>
        <time>2021-12-14T09:58:45Z</time>
      </trkpt>
      <trkpt lat="47.25752" lon="-1.53961">
        <ele>52.788895</ele>
        <time>2021-12-14T09:58:49Z</time>
      </trkpt>
      <trkpt lat="47.25756" lon="-1.53964">
        <ele>52.766304</ele>
        <time>2021-12-14T09:58:52Z</time>
      </trkpt>
      <trkpt lat="47.25761" lon="-1.53965">
        <ele>52.7085</ele>
        <time>2021-12-14T09:58:57Z</time>
      </trkpt>
      <trkpt lat="47.25765" lon="-1.53965">
        <ele>52.39902</ele>
        <time>2021-12-14T09:59:02Z</time>
      </trkpt>
      <trkpt lat="47.2577" lon="-1.53963">
        <ele>52.094135</ele>
        <time>2021-12-14T09:59:07Z</time>
      </trkpt>
      <trkpt lat="47.25775" lon="-1.53961">
        <ele>51.84242</ele>
        <time>2021-12-14T09:59:11Z</time>
      </trkpt>
      <trkpt lat="47.25781" lon="-1.53959">
        <ele>51.566242</ele>
        <time>2021-12-14T09:59:14Z</time>
      </trkpt>
      <trkpt lat="47.25786" lon="-1.53958">
        <ele>51.308044</ele>
        <time>2021-12-14T09:59:17Z</time>
      </trkpt>
      <trkpt lat="47.25791" lon="-1.53957">
        <ele>51.062016</ele>
        <time>2021-12-14T09:59:20Z</time>
      </trkpt>
      <trkpt lat="47.25797" lon="-1.53953">
        <ele>50.81326</ele>
        <time>2021-12-14T09:59:24Z</time>
      </trkpt>
      <trkpt lat="47.25803" lon="-1.53952">
        <ele>50.64012</ele>
        <time>2021-12-14T09:59:28Z</time>
      </trkpt>
      <trkpt lat="47.2581" lon="-1.53951">
        <ele>50.67053</ele>
        <time>2021-12-14T09:59:32Z</time>
      </trkpt>
      <trkpt lat="47.25814" lon="-1.5395">
        <ele>50.77183</ele>
        <time>2021-12-14T09:59:36Z</time>
      </trkpt>
      <trkpt lat="47.25819" lon="-1.53948">
        <ele>50.88288</ele>
        <time>2021-12-14T09:59:40Z</time>
      </trkpt>
      <trkpt lat="47.25825" lon="-1.53947">
        <ele>51.052063</ele>
        <time>2021-12-14T09:59:43Z</time>
      </trkpt>
      <trkpt lat="47.25829" lon="-1.53945">
        <ele>51.31557</ele>
        <time>2021-12-14T09:59:46Z</time>
      </trkpt>
      <trkpt lat="47.25834" lon="-1.53944">
        <ele>51.553627</ele>
        <time>2021-12-14T09:59:49Z</time>
      </trkpt>
      <trkpt lat="47.25839" lon="-1.53943">
        <ele>51.934326</ele>
        <time>2021-12-14T09:59:54Z</time>
      </trkpt>
      <trkpt lat="47.25843" lon="-1.53941">
        <ele>52.23076</ele>
        <time>2021-12-14T09:59:59Z</time>
      </trkpt>
      <trkpt lat="47.25849" lon="-1.53938">
        <ele>52.543007</ele>
        <time>2021-12-14T10:00:03Z</time>
      </trkpt>
      <trkpt lat="47.25854" lon="-1.53933">
        <ele>52.866528</ele>
        <time>2021-12-14T10:00:07Z</time>
      </trkpt>
      <trkpt lat="47.25858" lon="-1.53928">
        <ele>53.160248</ele>
        <time>2021-12-14T10:00:10Z</time>
      </trkpt>
      <trkpt lat="47.25862" lon="-1.53924">
        <ele>53.475403</ele>
        <time>2021-12-14T10:00:13Z</time>
      </trkpt>
      <trkpt lat="47.25867" lon="-1.53922">
        <ele>53.85048</ele>
        <time>2021-12-14T10:00:17Z</time>
      </trkpt>
      <trkpt lat="47.25872" lon="-1.53919">
        <ele>54.226627</ele>
        <time>2021-12-14T10:00:21Z</time>
      </trkpt>
      <trkpt lat="47.25878" lon="-1.53916">
        <ele>54.521675</ele>
        <time>2021-12-14T10:00:25Z</time>
      </trkpt>
      <trkpt lat="47.25882" lon="-1.53913">
        <ele>54.701313</ele>
        <time>2021-12-14T10:00:28Z</time>
      </trkpt>
      <trkpt lat="47.25887" lon="-1.5391">
        <ele>54.81162</ele>
        <time>2021-12-14T10:00:31Z</time>
      </trkpt>
      <trkpt lat="47.25893" lon="-1.53906">
        <ele>54.90217</ele>
        <time>2021-12-14T10:00:34Z</time>
      </trkpt>
      <trkpt lat="47.25898" lon="-1.53902">
        <ele>55.0119</ele>
        <time>2021-12-14T10:00:37Z</time>
      </trkpt>
      <trkpt lat="47.25902" lon="-1.53898">
        <ele>55.17149</ele>
        <time>2021-12-14T10:00:41Z</time>
      </trkpt>
      <trkpt lat="47.25907" lon="-1.53895">
        <ele>55.414684</ele>
        <time>2021-12-14T10:00:46Z</time>
      </trkpt>
      <trkpt lat="47.25913" lon="-1.53892">
        <ele>55.583565</ele>
        <time>2021-12-14T10:00:50Z</time>
      </trkpt>
      <trkpt lat="47.25918" lon="-1.53891">
        <ele>55.703205</ele>
        <time>2021-12-14T10:00:54Z</time>
      </trkpt>
      <trkpt lat="47.25923" lon="-1.5389">
        <ele>55.790993</ele>
        <time>2021-12-14T10:00:58Z</time>
      </trkpt>
      <trkpt lat="47.25928" lon="-1.53887">
        <ele>55.950085</ele>
        <time>2021-12-14T10:01:04Z</time>
      </trkpt>
      <trkpt lat="47.2593" lon="-1.53885">
        <ele>56.104824</ele>
        <time>2021-12-14T10:01:07Z</time>
      </trkpt>
      <trkpt lat="47.2593" lon="-1.53885">
        <ele>56.104824</ele>
        <time>2021-12-14T10:01:07Z</time>
      </trkpt>
      <trkpt lat="47.2594" lon="-1.53879">
        <ele>56.44266</ele>
        <time>2021-12-14T10:01:18Z</time>
      </trkpt>
      <trkpt lat="47.25943" lon="-1.53874">
        <ele>56.41119</ele>
        <time>2021-12-14T10:01:23Z</time>
      </trkpt>
      <trkpt lat="47.25948" lon="-1.53869">
        <ele>56.323658</ele>
        <time>2021-12-14T10:01:27Z</time>
      </trkpt>
      <trkpt lat="47.25953" lon="-1.53865">
        <ele>56.054436</ele>
        <time>2021-12-14T10:01:32Z</time>
      </trkpt>
      <trkpt lat="47.25957" lon="-1.53862">
        <ele>55.898376</ele>
        <time>2021-12-14T10:01:35Z</time>
      </trkpt>
      <trkpt lat="47.25962" lon="-1.53858">
        <ele>55.748783</ele>
        <time>2021-12-14T10:01:39Z</time>
      </trkpt>
      <trkpt lat="47.25967" lon="-1.53856">
        <ele>55.65297</ele>
        <time>2021-12-14T10:01:43Z</time>
      </trkpt>
      <trkpt lat="47.25971" lon="-1.53854">
        <ele>55.489468</ele>
        <time>2021-12-14T10:01:46Z</time>
      </trkpt>
      <trkpt lat="47.25976" lon="-1.5385">
        <ele>55.156773</ele>
        <time>2021-12-14T10:01:50Z</time>
      </trkpt>
      <trkpt lat="47.2598" lon="-1.53846">
        <ele>54.771503</ele>
        <time>2021-12-14T10:01:57Z</time>
      </trkpt>
      <trkpt lat="47.25986" lon="-1.53846">
        <ele>54.662624</ele>
        <time>2021-12-14T10:02:00Z</time>
      </trkpt>
      <trkpt lat="47.25992" lon="-1.53844">
        <ele>54.623215</ele>
        <time>2021-12-14T10:02:03Z</time>
      </trkpt>
      <trkpt lat="47.25998" lon="-1.53842">
        <ele>54.61177</ele>
        <time>2021-12-14T10:02:06Z</time>
      </trkpt>
      <trkpt lat="47.26003" lon="-1.5384">
        <ele>54.663338</ele>
        <time>2021-12-14T10:02:09Z</time>
      </trkpt>
      <trkpt lat="47.26008" lon="-1.53838">
        <ele>54.801083</ele>
        <time>2021-12-14T10:02:13Z</time>
      </trkpt>
      <trkpt lat="47.26012" lon="-1.53838">
        <ele>54.887817</ele>
        <time>2021-12-14T10:02:16Z</time>
      </trkpt>
      <trkpt lat="47.26017" lon="-1.53837">
        <ele>54.93925</ele>
        <time>2021-12-14T10:02:19Z</time>
      </trkpt>
      <trkpt lat="47.26023" lon="-1.53838">
        <ele>55.006554</ele>
        <time>2021-12-14T10:02:23Z</time>
      </trkpt>
      <trkpt lat="47.26028" lon="-1.53839">
        <ele>55.019608</ele>
        <time>2021-12-14T10:02:26Z</time>
      </trkpt>
      <trkpt lat="47.26032" lon="-1.5384">
        <ele>55.019035</ele>
        <time>2021-12-14T10:02:29Z</time>
      </trkpt>
      <trkpt lat="47.26038" lon="-1.53839">
        <ele>54.95319</ele>
        <time>2021-12-14T10:02:33Z</time>
      </trkpt>
      <trkpt lat="47.26042" lon="-1.53838">
        <ele>54.76468</ele>
        <time>2021-12-14T10:02:37Z</time>
      </trkpt>
      <trkpt lat="47.26047" lon="-1.53839">
        <ele>54.42935</ele>
        <time>2021-12-14T10:02:41Z</time>
      </trkpt>
      <trkpt lat="47.26053" lon="-1.53841">
        <ele>54.043537</ele>
        <time>2021-12-14T10:02:45Z</time>
      </trkpt>
      <trkpt lat="47.26057" lon="-1.53842">
        <ele>53.827667</ele>
        <time>2021-12-14T10:02:48Z</time>
      </trkpt>
      <trkpt lat="47.26062" lon="-1.53843">
        <ele>53.51439</ele>
        <time>2021-12-14T10:02:52Z</time>
      </trkpt>
      <trkpt lat="47.26067" lon="-1.53844">
        <ele>53.27421</ele>
        <time>2021-12-14T10:02:55Z</time>
      </trkpt>
      <trkpt lat="47.26073" lon="-1.53843">
        <ele>52.99562</ele>
        <time>2021-12-14T10:02:59Z</time>
      </trkpt>
      <trkpt lat="47.26078" lon="-1.53842">
        <ele>52.685986</ele>
        <time>2021-12-14T10:03:03Z</time>
      </trkpt>
      <trkpt lat="47.26083" lon="-1.53841">
        <ele>52.175903</ele>
        <time>2021-12-14T10:03:10Z</time>
      </trkpt>
      <trkpt lat="47.26089" lon="-1.53841">
        <ele>51.991222</ele>
        <time>2021-12-14T10:03:14Z</time>
      </trkpt>
      <trkpt lat="47.26094" lon="-1.5384">
        <ele>51.884235</ele>
        <time>2021-12-14T10:03:18Z</time>
      </trkpt>
      <trkpt lat="47.26099" lon="-1.53836">
        <ele>51.845554</ele>
        <time>2021-12-14T10:03:23Z</time>
      </trkpt>
      <trkpt lat="47.26103" lon="-1.53832">
        <ele>51.854023</ele>
        <time>2021-12-14T10:03:28Z</time>
      </trkpt>
      <trkpt lat="47.26109" lon="-1.53831">
        <ele>51.852077</ele>
        <time>2021-12-14T10:03:32Z</time>
      </trkpt>
      <trkpt lat="47.26114" lon="-1.5383">
        <ele>51.895412</ele>
        <time>2021-12-14T10:03:37Z</time>
      </trkpt>
      <trkpt lat="47.2612" lon="-1.53831">
        <ele>51.946064</ele>
        <time>2021-12-14T10:03:40Z</time>
      </trkpt>
      <trkpt lat="47.26125" lon="-1.53831">
        <ele>51.916733</ele>
        <time>2021-12-14T10:03:43Z</time>
      </trkpt>
      <trkpt lat="47.2613" lon="-1.53832">
        <ele>51.92998</ele>
        <time>2021-12-14T10:03:46Z</time>
      </trkpt>
      <trkpt lat="47.26135" lon="-1.53833">
        <ele>51.88515</ele>
        <time>2021-12-14T10:03:50Z</time>
      </trkpt>
      <trkpt lat="47.2614" lon="-1.53833">
        <ele>51.903168</ele>
        <time>2021-12-14T10:03:53Z</time>
      </trkpt>
      <trkpt lat="47.26146" lon="-1.53835">
        <ele>52.034737</ele>
        <time>2021-12-14T10:03:57Z</time>
      </trkpt>
      <trkpt lat="47.26151" lon="-1.53836">
        <ele>52.17562</ele>
        <time>2021-12-14T10:04:01Z</time>
      </trkpt>
      <trkpt lat="47.26156" lon="-1.53837">
        <ele>52.252495</ele>
        <time>2021-12-14T10:04:05Z</time>
      </trkpt>
      <trkpt lat="47.2616" lon="-1.53839">
        <ele>52.412457</ele>
        <time>2021-12-14T10:04:09Z</time>
      </trkpt>
      <trkpt lat="47.26164" lon="-1.53842">
        <ele>52.475235</ele>
        <time>2021-12-14T10:04:11Z</time>
      </trkpt>
      <trkpt lat="47.26169" lon="-1.53844">
        <ele>52.470085</ele>
        <time>2021-12-14T10:04:14Z</time>
      </trkpt>
      <trkpt lat="47.26174" lon="-1.53845">
        <ele>52.555256</ele>
        <time>2021-12-14T10:04:18Z</time>
      </trkpt>
      <trkpt lat="47.26178" lon="-1.53847">
        <ele>52.764698</ele>
        <time>2021-12-14T10:04:23Z</time>
      </trkpt>
      <trkpt lat="47.26183" lon="-1.53849">
        <ele>52.984554</ele>
        <time>2021-12-14T10:04:28Z</time>
      </trkpt>
      <trkpt lat="47.26187" lon="-1.53853">
        <ele>53.06554</ele>
        <time>2021-12-14T10:04:32Z</time>
      </trkpt>
      <trkpt lat="47.26191" lon="-1.53854">
        <ele>53.0391</ele>
        <time>2021-12-14T10:04:35Z</time>
      </trkpt>
      <trkpt lat="47.26196" lon="-1.53857">
        <ele>52.98039</ele>
        <time>2021-12-14T10:04:38Z</time>
      </trkpt>
      <trkpt lat="47.26201" lon="-1.5386">
        <ele>52.920784</ele>
        <time>2021-12-14T10:04:42Z</time>
      </trkpt>
      <trkpt lat="47.26205" lon="-1.53862">
        <ele>52.934315</ele>
        <time>2021-12-14T10:04:45Z</time>
      </trkpt>
      <trkpt lat="47.26209" lon="-1.53864">
        <ele>52.985462</ele>
        <time>2021-12-14T10:04:49Z</time>
      </trkpt>
      <trkpt lat="47.26214" lon="-1.53869">
        <ele>52.959167</ele>
        <time>2021-12-14T10:04:53Z</time>
      </trkpt>
      <trkpt lat="47.26219" lon="-1.53873">
        <ele>52.979774</ele>
        <time>2021-12-14T10:04:57Z</time>
      </trkpt>
      <trkpt lat="47.26223" lon="-1.53877">
        <ele>53.045403</ele>
        <time>2021-12-14T10:05:01Z</time>
      </trkpt>
      <trkpt lat="47.26227" lon="-1.53883">
        <ele>52.98864</ele>
        <time>2021-12-14T10:05:05Z</time>
      </trkpt>
      <trkpt lat="47.26231" lon="-1.53888">
        <ele>53.044277</ele>
        <time>2021-12-14T10:05:10Z</time>
      </trkpt>
      <trkpt lat="47.26234" lon="-1.53894">
        <ele>53.09058</ele>
        <time>2021-12-14T10:05:14Z</time>
      </trkpt>
      <trkpt lat="47.26239" lon="-1.53899">
        <ele>53.224155</ele>
        <time>2021-12-14T10:05:19Z</time>
      </trkpt>
      <trkpt lat="47.26242" lon="-1.53904">
        <ele>53.322235</ele>
        <time>2021-12-14T10:05:23Z</time>
      </trkpt>
      <trkpt lat="47.26248" lon="-1.53906">
        <ele>53.35991</ele>
        <time>2021-12-14T10:05:27Z</time>
      </trkpt>
      <trkpt lat="47.26253" lon="-1.53908">
        <ele>53.3386</ele>
        <time>2021-12-14T10:05:30Z</time>
      </trkpt>
      <trkpt lat="47.26259" lon="-1.5391">
        <ele>53.29789</ele>
        <time>2021-12-14T10:05:33Z</time>
      </trkpt>
      <trkpt lat="47.26263" lon="-1.53914">
        <ele>53.25003</ele>
        <time>2021-12-14T10:05:37Z</time>
      </trkpt>
      <trkpt lat="47.26266" lon="-1.53919">
        <ele>53.240734</ele>
        <time>2021-12-14T10:05:41Z</time>
      </trkpt>
      <trkpt lat="47.2627" lon="-1.53924">
        <ele>53.204334</ele>
        <time>2021-12-14T10:05:46Z</time>
      </trkpt>
      <trkpt lat="47.26275" lon="-1.53928">
        <ele>53.097836</ele>
        <time>2021-12-14T10:05:49Z</time>
      </trkpt>
      <trkpt lat="47.26279" lon="-1.53931">
        <ele>52.880875</ele>
        <time>2021-12-14T10:05:53Z</time>
      </trkpt>
      <trkpt lat="47.26284" lon="-1.53938">
        <ele>52.617416</ele>
        <time>2021-12-14T10:05:59Z</time>
      </trkpt>
      <trkpt lat="47.26288" lon="-1.53943">
        <ele>52.374115</ele>
        <time>2021-12-14T10:06:04Z</time>
      </trkpt>
      <trkpt lat="47.26292" lon="-1.53948">
        <ele>52.29014</ele>
        <time>2021-12-14T10:06:08Z</time>
      </trkpt>
      <trkpt lat="47.26296" lon="-1.53952">
        <ele>52.33917</ele>
        <time>2021-12-14T10:06:12Z</time>
      </trkpt>
      <trkpt lat="47.26301" lon="-1.53955">
        <ele>52.31455</ele>
        <time>2021-12-14T10:06:16Z</time>
      </trkpt>
      <trkpt lat="47.26306" lon="-1.53957">
        <ele>52.122856</ele>
        <time>2021-12-14T10:06:20Z</time>
      </trkpt>
      <trkpt lat="47.26312" lon="-1.53959">
        <ele>51.946503</ele>
        <time>2021-12-14T10:06:24Z</time>
      </trkpt>
      <trkpt lat="47.26317" lon="-1.53963">
        <ele>51.636017</ele>
        <time>2021-12-14T10:06:27Z</time>
      </trkpt>
      <trkpt lat="47.26323" lon="-1.53966">
        <ele>51.31447</ele>
        <time>2021-12-14T10:06:31Z</time>
      </trkpt>
      <trkpt lat="47.26328" lon="-1.5397">
        <ele>51.146233</ele>
        <time>2021-12-14T10:06:36Z</time>
      </trkpt>
      <trkpt lat="47.26332" lon="-1.53972">
        <ele>51.06659</ele>
        <time>2021-12-14T10:06:40Z</time>
      </trkpt>
      <trkpt lat="47.26337" lon="-1.53973">
        <ele>50.88416</ele>
        <time>2021-12-14T10:06:46Z</time>
      </trkpt>
      <trkpt lat="47.26342" lon="-1.53975">
        <ele>50.541058</ele>
        <time>2021-12-14T10:06:53Z</time>
      </trkpt>
      <trkpt lat="47.26346" lon="-1.53979">
        <ele>50.368958</ele>
        <time>2021-12-14T10:06:56Z</time>
      </trkpt>
      <trkpt lat="47.26351" lon="-1.53981">
        <ele>50.09542</ele>
        <time>2021-12-14T10:07:00Z</time>
      </trkpt>
      <trkpt lat="47.26357" lon="-1.53983">
        <ele>49.824574</ele>
        <time>2021-12-14T10:07:04Z</time>
      </trkpt>
      <trkpt lat="47.26362" lon="-1.53984">
        <ele>49.455658</ele>
        <time>2021-12-14T10:07:07Z</time>
      </trkpt>
      <trkpt lat="47.26367" lon="-1.53985">
        <ele>49.243916</ele>
        <time>2021-12-14T10:07:09Z</time>
      </trkpt>
      <trkpt lat="47.26371" lon="-1.53986">
        <ele>49.020214</ele>
        <time>2021-12-14T10:07:11Z</time>
      </trkpt>
      <trkpt lat="47.26378" lon="-1.53986">
        <ele>48.722782</ele>
        <time>2021-12-14T10:07:15Z</time>
      </trkpt>
      <trkpt lat="47.26382" lon="-1.53987">
        <ele>48.547752</ele>
        <time>2021-12-14T10:07:19Z</time>
      </trkpt>
      <trkpt lat="47.26387" lon="-1.53988">
        <ele>48.447628</ele>
        <time>2021-12-14T10:07:22Z</time>
      </trkpt>
      <trkpt lat="47.26392" lon="-1.5399">
        <ele>48.423203</ele>
        <time>2021-12-14T10:07:25Z</time>
      </trkpt>
      <trkpt lat="47.26397" lon="-1.53991">
        <ele>48.384323</ele>
        <time>2021-12-14T10:07:30Z</time>
      </trkpt>
      <trkpt lat="47.26401" lon="-1.53991">
        <ele>48.255493</ele>
        <time>2021-12-14T10:07:33Z</time>
      </trkpt>
      <trkpt lat="47.26407" lon="-1.53991">
        <ele>48.118317</ele>
        <time>2021-12-14T10:07:37Z</time>
      </trkpt>
      <trkpt lat="47.26411" lon="-1.53991">
        <ele>48.096214</ele>
        <time>2021-12-14T10:07:43Z</time>
      </trkpt>
      <trkpt lat="47.26416" lon="-1.5399">
        <ele>48.242485</ele>
        <time>2021-12-14T10:07:50Z</time>
      </trkpt>
      <trkpt lat="47.26421" lon="-1.53993">
        <ele>48.397415</ele>
        <time>2021-12-14T10:07:54Z</time>
      </trkpt>
      <trkpt lat="47.26426" lon="-1.53996">
        <ele>48.491444</ele>
        <time>2021-12-14T10:07:58Z</time>
      </trkpt>
      <trkpt lat="47.26432" lon="-1.53997">
        <ele>48.54684</ele>
        <time>2021-12-14T10:08:02Z</time>
      </trkpt>
      <trkpt lat="47.26437" lon="-1.53998">
        <ele>48.52595</ele>
        <time>2021-12-14T10:08:06Z</time>
      </trkpt>
      <trkpt lat="47.26442" lon="-1.53998">
        <ele>48.631577</ele>
        <time>2021-12-14T10:08:09Z</time>
      </trkpt>
      <trkpt lat="47.26447" lon="-1.53999">
        <ele>48.83315</ele>
        <time>2021-12-14T10:08:13Z</time>
      </trkpt>
      <trkpt lat="47.26453" lon="-1.53997">
        <ele>49.043636</ele>
        <time>2021-12-14T10:08:17Z</time>
      </trkpt>
      <trkpt lat="47.26457" lon="-1.53996">
        <ele>49.180565</ele>
        <time>2021-12-14T10:08:19Z</time>
      </trkpt>
      <trkpt lat="47.26463" lon="-1.53994">
        <ele>49.474472</ele>
        <time>2021-12-14T10:08:23Z</time>
      </trkpt>
      <trkpt lat="47.26467" lon="-1.53989">
        <ele>49.770317</ele>
        <time>2021-12-14T10:08:27Z</time>
      </trkpt>
      <trkpt lat="47.26471" lon="-1.53985">
        <ele>50.026093</ele>
        <time>2021-12-14T10:08:31Z</time>
      </trkpt>
      <trkpt lat="47.26476" lon="-1.53981">
        <ele>50.26829</ele>
        <time>2021-12-14T10:08:35Z</time>
      </trkpt>
      <trkpt lat="47.26481" lon="-1.5398">
        <ele>50.472862</ele>
        <time>2021-12-14T10:08:39Z</time>
      </trkpt>
      <trkpt lat="47.26486" lon="-1.53983">
        <ele>50.669907</ele>
        <time>2021-12-14T10:08:43Z</time>
      </trkpt>
      <trkpt lat="47.26489" lon="-1.5399">
        <ele>50.754402</ele>
        <time>2021-12-14T10:08:48Z</time>
      </trkpt>
      <trkpt lat="47.26492" lon="-1.53996">
        <ele>50.632584</ele>
        <time>2021-12-14T10:08:52Z</time>
      </trkpt>
      <trkpt lat="47.26494" lon="-1.54003">
        <ele>50.47082</ele>
        <time>2021-12-14T10:08:55Z</time>
      </trkpt>
      <trkpt lat="47.26496" lon="-1.54011">
        <ele>50.223316</ele>
        <time>2021-12-14T10:09:00Z</time>
      </trkpt>
      <trkpt lat="47.26498" lon="-1.54018">
        <ele>50.117535</ele>
        <time>2021-12-14T10:09:03Z</time>
      </trkpt>
      <trkpt lat="47.26501" lon="-1.54025">
        <ele>50.021904</ele>
        <time>2021-12-14T10:09:07Z</time>
      </trkpt>
      <trkpt lat="47.26503" lon="-1.54031">
        <ele>50.05152</ele>
        <time>2021-12-14T10:09:11Z</time>
      </trkpt>
      <trkpt lat="47.26506" lon="-1.54037">
        <ele>50.169285</ele>
        <time>2021-12-14T10:09:14Z</time>
      </trkpt>
      <trkpt lat="47.26509" lon="-1.54045">
        <ele>50.40686</ele>
        <time>2021-12-14T10:09:18Z</time>
      </trkpt>
      <trkpt lat="47.26511" lon="-1.54051">
        <ele>50.661625</ele>
        <time>2021-12-14T10:09:21Z</time>
      </trkpt>
      <trkpt lat="47.26514" lon="-1.54058">
        <ele>51.040173</ele>
        <time>2021-12-14T10:09:25Z</time>
      </trkpt>
      <trkpt lat="47.26518" lon="-1.54063">
        <ele>51.366295</ele>
        <time>2021-12-14T10:09:29Z</time>
      </trkpt>
      <trkpt lat="47.26521" lon="-1.5407">
        <ele>51.611935</ele>
        <time>2021-12-14T10:09:33Z</time>
      </trkpt>
      <trkpt lat="47.26524" lon="-1.54076">
        <ele>51.90014</ele>
        <time>2021-12-14T10:09:37Z</time>
      </trkpt>
      <trkpt lat="47.26527" lon="-1.54084">
        <ele>52.319378</ele>
        <time>2021-12-14T10:09:42Z</time>
      </trkpt>
      <trkpt lat="47.26531" lon="-1.5409">
        <ele>52.70572</ele>
        <time>2021-12-14T10:09:46Z</time>
      </trkpt>
      <trkpt lat="47.26534" lon="-1.54096">
        <ele>53.276722</ele>
        <time>2021-12-14T10:09:51Z</time>
      </trkpt>
      <trkpt lat="47.26538" lon="-1.54103">
        <ele>53.807606</ele>
        <time>2021-12-14T10:09:55Z</time>
      </trkpt>
      <trkpt lat="47.2654" lon="-1.54109">
        <ele>54.26698</ele>
        <time>2021-12-14T10:09:59Z</time>
      </trkpt>
      <trkpt lat="47.26543" lon="-1.54116">
        <ele>54.632904</ele>
        <time>2021-12-14T10:10:02Z</time>
      </trkpt>
      <trkpt lat="47.26547" lon="-1.54122">
        <ele>55.200073</ele>
        <time>2021-12-14T10:10:07Z</time>
      </trkpt>
      <trkpt lat="47.2655" lon="-1.54127">
        <ele>55.620415</ele>
        <time>2021-12-14T10:10:11Z</time>
      </trkpt>
      <trkpt lat="47.26552" lon="-1.54134">
        <ele>56.21206</ele>
        <time>2021-12-14T10:10:16Z</time>
      </trkpt>
      <trkpt lat="47.26554" lon="-1.5414">
        <ele>56.663574</ele>
        <time>2021-12-14T10:10:20Z</time>
      </trkpt>
      <trkpt lat="47.26557" lon="-1.54146">
        <ele>57.043747</ele>
        <time>2021-12-14T10:10:24Z</time>
      </trkpt>
      <trkpt lat="47.2656" lon="-1.54152">
        <ele>57.546253</ele>
        <time>2021-12-14T10:10:30Z</time>
      </trkpt>
      <trkpt lat="47.26563" lon="-1.54158">
        <ele>57.72416</ele>
        <time>2021-12-14T10:10:34Z</time>
      </trkpt>
      <trkpt lat="47.26566" lon="-1.54165">
        <ele>57.93929</ele>
        <time>2021-12-14T10:10:38Z</time>
      </trkpt>
      <trkpt lat="47.26569" lon="-1.54171">
        <ele>58.165142</ele>
        <time>2021-12-14T10:10:42Z</time>
      </trkpt>
      <trkpt lat="47.26572" lon="-1.54177">
        <ele>58.37269</ele>
        <time>2021-12-14T10:10:46Z</time>
      </trkpt>
      <trkpt lat="47.26574" lon="-1.54184">
        <ele>58.59526</ele>
        <time>2021-12-14T10:10:50Z</time>
      </trkpt>
      <trkpt lat="47.26576" lon="-1.54191">
        <ele>58.793182</ele>
        <time>2021-12-14T10:10:54Z</time>
      </trkpt>
      <trkpt lat="47.26577" lon="-1.54198">
        <ele>58.890617</ele>
        <time>2021-12-14T10:10:59Z</time>
      </trkpt>
      <trkpt lat="47.2658" lon="-1.54204">
        <ele>58.986134</ele>
        <time>2021-12-14T10:11:03Z</time>
      </trkpt>
      <trkpt lat="47.26582" lon="-1.54211">
        <ele>59.1204</ele>
        <time>2021-12-14T10:11:08Z</time>
      </trkpt>
      <trkpt lat="47.26585" lon="-1.54216">
        <ele>59.21377</ele>
        <time>2021-12-14T10:11:11Z</time>
      </trkpt>
      <trkpt lat="47.26589" lon="-1.54223">
        <ele>59.440014</ele>
        <time>2021-12-14T10:11:15Z</time>
      </trkpt>
      <trkpt lat="47.26591" lon="-1.5423">
        <ele>59.57181</ele>
        <time>2021-12-14T10:11:19Z</time>
      </trkpt>
      <trkpt lat="47.26594" lon="-1.54236">
        <ele>59.867207</ele>
        <time>2021-12-14T10:11:24Z</time>
      </trkpt>
      <trkpt lat="47.26597" lon="-1.54244">
        <ele>60.18263</ele>
        <time>2021-12-14T10:11:29Z</time>
      </trkpt>
      <trkpt lat="47.266" lon="-1.54249">
        <ele>60.418682</ele>
        <time>2021-12-14T10:11:33Z</time>
      </trkpt>
      <trkpt lat="47.26604" lon="-1.54254">
        <ele>60.58843</ele>
        <time>2021-12-14T10:11:36Z</time>
      </trkpt>
      <trkpt lat="47.26607" lon="-1.54259">
        <ele>60.875774</ele>
        <time>2021-12-14T10:11:40Z</time>
      </trkpt>
      <trkpt lat="47.26611" lon="-1.54265">
        <ele>61.12812</ele>
        <time>2021-12-14T10:11:44Z</time>
      </trkpt>
      <trkpt lat="47.26613" lon="-1.54272">
        <ele>61.45608</ele>
        <time>2021-12-14T10:11:48Z</time>
      </trkpt>
      <trkpt lat="47.26616" lon="-1.54278">
        <ele>61.882698</ele>
        <time>2021-12-14T10:11:52Z</time>
      </trkpt>
      <trkpt lat="47.26619" lon="-1.54285">
        <ele>62.23802</ele>
        <time>2021-12-14T10:11:55Z</time>
      </trkpt>
      <trkpt lat="47.26621" lon="-1.54292">
        <ele>62.612198</ele>
        <time>2021-12-14T10:11:58Z</time>
      </trkpt>
      <trkpt lat="47.26622" lon="-1.54299">
        <ele>63.11032</ele>
        <time>2021-12-14T10:12:02Z</time>
      </trkpt>
      <trkpt lat="47.26624" lon="-1.54305">
        <ele>63.63684</ele>
        <time>2021-12-14T10:12:06Z</time>
      </trkpt>
      <trkpt lat="47.26625" lon="-1.54312">
        <ele>64.23211</ele>
        <time>2021-12-14T10:12:11Z</time>
      </trkpt>
      <trkpt lat="47.26627" lon="-1.54319">
        <ele>64.626884</ele>
        <time>2021-12-14T10:12:15Z</time>
      </trkpt>
      <trkpt lat="47.26629" lon="-1.54327">
        <ele>64.94234</ele>
        <time>2021-12-14T10:12:19Z</time>
      </trkpt>
      <trkpt lat="47.2663" lon="-1.54334">
        <ele>65.32288</ele>
        <time>2021-12-14T10:12:24Z</time>
      </trkpt>
      <trkpt lat="47.2663" lon="-1.54343">
        <ele>65.572586</ele>
        <time>2021-12-14T10:12:29Z</time>
      </trkpt>
      <trkpt lat="47.26631" lon="-1.54351">
        <ele>65.7526</ele>
        <time>2021-12-14T10:12:33Z</time>
      </trkpt>
      <trkpt lat="47.26631" lon="-1.54359">
        <ele>66.02962</ele>
        <time>2021-12-14T10:12:37Z</time>
      </trkpt>
      <trkpt lat="47.26631" lon="-1.54367">
        <ele>66.264145</ele>
        <time>2021-12-14T10:12:41Z</time>
      </trkpt>
      <trkpt lat="47.26628" lon="-1.54373">
        <ele>66.59959</ele>
        <time>2021-12-14T10:12:45Z</time>
      </trkpt>
      <trkpt lat="47.26624" lon="-1.54378">
        <ele>67.01373</ele>
        <time>2021-12-14T10:12:50Z</time>
      </trkpt>
      <trkpt lat="47.2662" lon="-1.5438">
        <ele>67.31579</ele>
        <time>2021-12-14T10:12:53Z</time>
      </trkpt>
      <trkpt lat="47.26614" lon="-1.54381">
        <ele>67.67741</ele>
        <time>2021-12-14T10:12:57Z</time>
      </trkpt>
      <trkpt lat="47.26609" lon="-1.54384">
        <ele>68.04114</ele>
        <time>2021-12-14T10:13:01Z</time>
      </trkpt>
      <trkpt lat="47.26604" lon="-1.54382">
        <ele>68.51336</ele>
        <time>2021-12-14T10:13:06Z</time>
      </trkpt>
      <trkpt lat="47.26598" lon="-1.54383">
        <ele>68.78237</ele>
        <time>2021-12-14T10:13:10Z</time>
      </trkpt>
      <trkpt lat="47.26593" lon="-1.54383">
        <ele>69.12646</ele>
        <time>2021-12-14T10:13:14Z</time>
      </trkpt>
      <trkpt lat="47.26588" lon="-1.54383">
        <ele>69.500885</ele>
        <time>2021-12-14T10:13:19Z</time>
      </trkpt>
      <trkpt lat="47.26582" lon="-1.54386">
        <ele>69.642006</ele>
        <time>2021-12-14T10:13:24Z</time>
      </trkpt>
      <trkpt lat="47.26577" lon="-1.54389">
        <ele>69.604546</ele>
        <time>2021-12-14T10:13:28Z</time>
      </trkpt>
      <trkpt lat="47.26574" lon="-1.54395">
        <ele>69.63633</ele>
        <time>2021-12-14T10:13:33Z</time>
      </trkpt>
      <trkpt lat="47.26574" lon="-1.54404">
        <ele>69.77653</ele>
        <time>2021-12-14T10:13:38Z</time>
      </trkpt>
      <trkpt lat="47.26575" lon="-1.54411">
        <ele>70.12558</ele>
        <time>2021-12-14T10:13:43Z</time>
      </trkpt>
      <trkpt lat="47.26576" lon="-1.54418">
        <ele>70.72138</ele>
        <time>2021-12-14T10:13:48Z</time>
      </trkpt>
      <trkpt lat="47.26577" lon="-1.54425">
        <ele>71.17519</ele>
        <time>2021-12-14T10:13:53Z</time>
      </trkpt>
      <trkpt lat="47.26579" lon="-1.54431">
        <ele>71.59388</ele>
        <time>2021-12-14T10:13:58Z</time>
      </trkpt>
      <trkpt lat="47.2658" lon="-1.54438">
        <ele>71.84439</ele>
        <time>2021-12-14T10:14:02Z</time>
      </trkpt>
      <trkpt lat="47.26581" lon="-1.54445">
        <ele>72.06176</ele>
        <time>2021-12-14T10:14:05Z</time>
      </trkpt>
      <trkpt lat="47.26583" lon="-1.54452">
        <ele>72.40135</ele>
        <time>2021-12-14T10:14:11Z</time>
      </trkpt>
      <trkpt lat="47.26587" lon="-1.54459">
        <ele>72.46235</ele>
        <time>2021-12-14T10:14:14Z</time>
      </trkpt>
      <trkpt lat="47.26591" lon="-1.54463">
        <ele>72.40508</ele>
        <time>2021-12-14T10:14:18Z</time>
      </trkpt>
      <trkpt lat="47.26595" lon="-1.54466">
        <ele>72.30864</ele>
        <time>2021-12-14T10:14:22Z</time>
      </trkpt>
      <trkpt lat="47.26601" lon="-1.54466">
        <ele>72.20448</ele>
        <time>2021-12-14T10:14:26Z</time>
      </trkpt>
      <trkpt lat="47.26606" lon="-1.54465">
        <ele>72.08805</ele>
        <time>2021-12-14T10:14:29Z</time>
      </trkpt>
      <trkpt lat="47.2661" lon="-1.54463">
        <ele>71.984116</ele>
        <time>2021-12-14T10:14:33Z</time>
      </trkpt>
      <trkpt lat="47.26616" lon="-1.54462">
        <ele>71.93537</ele>
        <time>2021-12-14T10:14:36Z</time>
      </trkpt>
      <trkpt lat="47.26621" lon="-1.5446">
        <ele>71.964195</ele>
        <time>2021-12-14T10:14:40Z</time>
      </trkpt>
      <trkpt lat="47.26625" lon="-1.5446">
        <ele>71.95</ele>
        <time>2021-12-14T10:14:44Z</time>
      </trkpt>
      <trkpt lat="47.2663" lon="-1.54457">
        <ele>72.00248</ele>
        <time>2021-12-14T10:14:48Z</time>
      </trkpt>
      <trkpt lat="47.26635" lon="-1.54455">
        <ele>72.10837</ele>
        <time>2021-12-14T10:14:52Z</time>
      </trkpt>
      <trkpt lat="47.2664" lon="-1.54454">
        <ele>72.20896</ele>
        <time>2021-12-14T10:14:56Z</time>
      </trkpt>
      <trkpt lat="47.26645" lon="-1.54453">
        <ele>72.21879</ele>
        <time>2021-12-14T10:15:00Z</time>
      </trkpt>
      <trkpt lat="47.26651" lon="-1.54452">
        <ele>72.26915</ele>
        <time>2021-12-14T10:15:04Z</time>
      </trkpt>
      <trkpt lat="47.26656" lon="-1.54453">
        <ele>72.29432</ele>
        <time>2021-12-14T10:15:08Z</time>
      </trkpt>
      <trkpt lat="47.26661" lon="-1.54453">
        <ele>72.30494</ele>
        <time>2021-12-14T10:15:11Z</time>
      </trkpt>
      <trkpt lat="47.26666" lon="-1.54452">
        <ele>72.344124</ele>
        <time>2021-12-14T10:15:14Z</time>
      </trkpt>
      <trkpt lat="47.26671" lon="-1.54451">
        <ele>72.463295</ele>
        <time>2021-12-14T10:15:18Z</time>
      </trkpt>
      <trkpt lat="47.26676" lon="-1.54452">
        <ele>72.572655</ele>
        <time>2021-12-14T10:15:22Z</time>
      </trkpt>
      <trkpt lat="47.26681" lon="-1.54454">
        <ele>72.810555</ele>
        <time>2021-12-14T10:15:28Z</time>
      </trkpt>
      <trkpt lat="47.26687" lon="-1.54457">
        <ele>72.96439</ele>
        <time>2021-12-14T10:15:35Z</time>
      </trkpt>
      <trkpt lat="47.26691" lon="-1.54457">
        <ele>72.90885</ele>
        <time>2021-12-14T10:15:38Z</time>
      </trkpt>
      <trkpt lat="47.26697" lon="-1.54457">
        <ele>72.7529</ele>
        <time>2021-12-14T10:15:42Z</time>
      </trkpt>
      <trkpt lat="47.26702" lon="-1.54459">
        <ele>72.59556</ele>
        <time>2021-12-14T10:15:46Z</time>
      </trkpt>
      <trkpt lat="47.26707" lon="-1.54461">
        <ele>72.62992</ele>
        <time>2021-12-14T10:15:50Z</time>
      </trkpt>
      <trkpt lat="47.26712" lon="-1.54461">
        <ele>72.63905</ele>
        <time>2021-12-14T10:15:53Z</time>
      </trkpt>
      <trkpt lat="47.26717" lon="-1.54463">
        <ele>72.758675</ele>
        <time>2021-12-14T10:15:58Z</time>
      </trkpt>
      <trkpt lat="47.26721" lon="-1.54465">
        <ele>72.91663</ele>
        <time>2021-12-14T10:16:02Z</time>
      </trkpt>
      <trkpt lat="47.26727" lon="-1.54467">
        <ele>73.17015</ele>
        <time>2021-12-14T10:16:06Z</time>
      </trkpt>
      <trkpt lat="47.26733" lon="-1.5447">
        <ele>73.427055</ele>
        <time>2021-12-14T10:16:10Z</time>
      </trkpt>
      <trkpt lat="47.26738" lon="-1.54473">
        <ele>73.687454</ele>
        <time>2021-12-14T10:16:15Z</time>
      </trkpt>
      <trkpt lat="47.26743" lon="-1.54477">
        <ele>73.82582</ele>
        <time>2021-12-14T10:16:18Z</time>
      </trkpt>
      <trkpt lat="47.26746" lon="-1.54481">
        <ele>73.948456</ele>
        <time>2021-12-14T10:16:21Z</time>
      </trkpt>
      <trkpt lat="47.2675" lon="-1.54485">
        <ele>74.10495</ele>
        <time>2021-12-14T10:16:24Z</time>
      </trkpt>
      <trkpt lat="47.26753" lon="-1.54491">
        <ele>74.225624</ele>
        <time>2021-12-14T10:16:29Z</time>
      </trkpt>
      <trkpt lat="47.26756" lon="-1.54498">
        <ele>74.29494</ele>
        <time>2021-12-14T10:16:33Z</time>
      </trkpt>
      <trkpt lat="47.2676" lon="-1.54504">
        <ele>74.551834</ele>
        <time>2021-12-14T10:16:37Z</time>
      </trkpt>
      <trkpt lat="47.26761" lon="-1.54514">
        <ele>74.855194</ele>
        <time>2021-12-14T10:16:41Z</time>
      </trkpt>
      <trkpt lat="47.26764" lon="-1.5452">
        <ele>75.03549</ele>
        <time>2021-12-14T10:16:45Z</time>
      </trkpt>
      <trkpt lat="47.26766" lon="-1.54527">
        <ele>75.17403</ele>
        <time>2021-12-14T10:16:49Z</time>
      </trkpt>
      <trkpt lat="47.26768" lon="-1.54534">
        <ele>75.22289</ele>
        <time>2021-12-14T10:16:53Z</time>
      </trkpt>
      <trkpt lat="47.26769" lon="-1.54541">
        <ele>75.1915</ele>
        <time>2021-12-14T10:16:57Z</time>
      </trkpt>
      <trkpt lat="47.26772" lon="-1.54547">
        <ele>74.98921</ele>
        <time>2021-12-14T10:17:01Z</time>
      </trkpt>
      <trkpt lat="47.26777" lon="-1.54553">
        <ele>74.605705</ele>
        <time>2021-12-14T10:17:06Z</time>
      </trkpt>
      <trkpt lat="47.2678" lon="-1.54558">
        <ele>74.38795</ele>
        <time>2021-12-14T10:17:10Z</time>
      </trkpt>
      <trkpt lat="47.26784" lon="-1.54563">
        <ele>74.19564</ele>
        <time>2021-12-14T10:17:14Z</time>
      </trkpt>
      <trkpt lat="47.26785" lon="-1.5457">
        <ele>73.72767</ele>
        <time>2021-12-14T10:17:20Z</time>
      </trkpt>
      <trkpt lat="47.26785" lon="-1.54577">
        <ele>73.3697</ele>
        <time>2021-12-14T10:17:25Z</time>
      </trkpt>
      <trkpt lat="47.26785" lon="-1.54584">
        <ele>73.1089</ele>
        <time>2021-12-14T10:17:29Z</time>
      </trkpt>
      <trkpt lat="47.26785" lon="-1.54592">
        <ele>72.87292</ele>
        <time>2021-12-14T10:17:33Z</time>
      </trkpt>
      <trkpt lat="47.2679" lon="-1.54596">
        <ele>72.69892</ele>
        <time>2021-12-14T10:17:38Z</time>
      </trkpt>
      <trkpt lat="47.26795" lon="-1.54596">
        <ele>72.770096</ele>
        <time>2021-12-14T10:17:42Z</time>
      </trkpt>
      <trkpt lat="47.268" lon="-1.54597">
        <ele>72.85009</ele>
        <time>2021-12-14T10:17:45Z</time>
      </trkpt>
      <trkpt lat="47.26804" lon="-1.54598">
        <ele>72.9397</ele>
        <time>2021-12-14T10:17:50Z</time>
      </trkpt>
      <trkpt lat="47.26809" lon="-1.54599">
        <ele>72.85075</ele>
        <time>2021-12-14T10:17:54Z</time>
      </trkpt>
      <trkpt lat="47.26814" lon="-1.54599">
        <ele>72.80634</ele>
        <time>2021-12-14T10:17:58Z</time>
      </trkpt>
      <trkpt lat="47.26819" lon="-1.54599">
        <ele>72.744</ele>
        <time>2021-12-14T10:18:01Z</time>
      </trkpt>
      <trkpt lat="47.26823" lon="-1.54599">
        <ele>72.62227</ele>
        <time>2021-12-14T10:18:07Z</time>
      </trkpt>
      <trkpt lat="47.26829" lon="-1.546">
        <ele>72.57973</ele>
        <time>2021-12-14T10:18:11Z</time>
      </trkpt>
      <trkpt lat="47.26835" lon="-1.54601">
        <ele>72.52659</ele>
        <time>2021-12-14T10:18:14Z</time>
      </trkpt>
      <trkpt lat="47.2684" lon="-1.54604">
        <ele>72.57406</ele>
        <time>2021-12-14T10:18:18Z</time>
      </trkpt>
      <trkpt lat="47.26844" lon="-1.54609">
        <ele>72.58401</ele>
        <time>2021-12-14T10:18:21Z</time>
      </trkpt>
      <trkpt lat="47.26846" lon="-1.54615">
        <ele>72.42473</ele>
        <time>2021-12-14T10:18:25Z</time>
      </trkpt>
      <trkpt lat="47.26848" lon="-1.54622">
        <ele>72.208755</ele>
        <time>2021-12-14T10:18:29Z</time>
      </trkpt>
      <trkpt lat="47.2685" lon="-1.54629">
        <ele>72.08521</ele>
        <time>2021-12-14T10:18:33Z</time>
      </trkpt>
      <trkpt lat="47.26852" lon="-1.54637">
        <ele>72.03389</ele>
        <time>2021-12-14T10:18:38Z</time>
      </trkpt>
      <trkpt lat="47.26853" lon="-1.54645">
        <ele>72.03359</ele>
        <time>2021-12-14T10:18:43Z</time>
      </trkpt>
      <trkpt lat="47.26855" lon="-1.54652">
        <ele>72.152756</ele>
        <time>2021-12-14T10:18:47Z</time>
      </trkpt>
      <trkpt lat="47.26857" lon="-1.54658">
        <ele>72.33314</ele>
        <time>2021-12-14T10:18:51Z</time>
      </trkpt>
      <trkpt lat="47.26861" lon="-1.54665">
        <ele>72.539795</ele>
        <time>2021-12-14T10:18:55Z</time>
      </trkpt>
      <trkpt lat="47.26865" lon="-1.54671">
        <ele>72.88671</ele>
        <time>2021-12-14T10:18:59Z</time>
      </trkpt>
      <trkpt lat="47.26867" lon="-1.54678">
        <ele>73.2368</ele>
        <time>2021-12-14T10:19:03Z</time>
      </trkpt>
      <trkpt lat="47.26869" lon="-1.54685">
        <ele>73.54827</ele>
        <time>2021-12-14T10:19:07Z</time>
      </trkpt>
      <trkpt lat="47.26871" lon="-1.54692">
        <ele>73.84286</ele>
        <time>2021-12-14T10:19:10Z</time>
      </trkpt>
      <trkpt lat="47.26873" lon="-1.54699">
        <ele>74.31048</ele>
        <time>2021-12-14T10:19:15Z</time>
      </trkpt>
      <trkpt lat="47.26875" lon="-1.54705">
        <ele>74.633965</ele>
        <time>2021-12-14T10:19:19Z</time>
      </trkpt>
      <trkpt lat="47.26877" lon="-1.54712">
        <ele>74.890976</ele>
        <time>2021-12-14T10:19:23Z</time>
      </trkpt>
      <trkpt lat="47.2688" lon="-1.5472">
        <ele>75.11819</ele>
        <time>2021-12-14T10:19:27Z</time>
      </trkpt>
      <trkpt lat="47.26881" lon="-1.54727">
        <ele>75.29634</ele>
        <time>2021-12-14T10:19:30Z</time>
      </trkpt>
      <trkpt lat="47.26883" lon="-1.54734">
        <ele>75.450806</ele>
        <time>2021-12-14T10:19:33Z</time>
      </trkpt>
      <trkpt lat="47.26885" lon="-1.54741">
        <ele>75.601425</ele>
        <time>2021-12-14T10:19:38Z</time>
      </trkpt>
      <trkpt lat="47.26886" lon="-1.54747">
        <ele>75.56101</ele>
        <time>2021-12-14T10:19:41Z</time>
      </trkpt>
      <trkpt lat="47.26887" lon="-1.54756">
        <ele>75.451096</ele>
        <time>2021-12-14T10:19:45Z</time>
      </trkpt>
      <trkpt lat="47.26889" lon="-1.54764">
        <ele>75.47482</ele>
        <time>2021-12-14T10:19:50Z</time>
      </trkpt>
      <trkpt lat="47.26889" lon="-1.54771">
        <ele>75.50751</ele>
        <time>2021-12-14T10:19:53Z</time>
      </trkpt>
      <trkpt lat="47.2689" lon="-1.54779">
        <ele>75.53252</ele>
        <time>2021-12-14T10:19:57Z</time>
      </trkpt>
      <trkpt lat="47.26893" lon="-1.54786">
        <ele>75.60178</ele>
        <time>2021-12-14T10:20:01Z</time>
      </trkpt>
      <trkpt lat="47.26894" lon="-1.54793">
        <ele>75.635025</ele>
        <time>2021-12-14T10:20:05Z</time>
      </trkpt>
      <trkpt lat="47.26896" lon="-1.548">
        <ele>75.638824</ele>
        <time>2021-12-14T10:20:09Z</time>
      </trkpt>
      <trkpt lat="47.26899" lon="-1.54807">
        <ele>75.57047</ele>
        <time>2021-12-14T10:20:14Z</time>
      </trkpt>
      <trkpt lat="47.26902" lon="-1.54813">
        <ele>75.42012</ele>
        <time>2021-12-14T10:20:18Z</time>
      </trkpt>
      <trkpt lat="47.26905" lon="-1.54819">
        <ele>75.17085</ele>
        <time>2021-12-14T10:20:22Z</time>
      </trkpt>
      <trkpt lat="47.26907" lon="-1.54826">
        <ele>74.97662</ele>
        <time>2021-12-14T10:20:26Z</time>
      </trkpt>
      <trkpt lat="47.26908" lon="-1.54833">
        <ele>74.91292</ele>
        <time>2021-12-14T10:20:29Z</time>
      </trkpt>
      <trkpt lat="47.26909" lon="-1.5484">
        <ele>74.85692</ele>
        <time>2021-12-14T10:20:32Z</time>
      </trkpt>
      <trkpt lat="47.2691" lon="-1.54846">
        <ele>74.8081</ele>
        <time>2021-12-14T10:20:36Z</time>
      </trkpt>
      <trkpt lat="47.26911" lon="-1.54853">
        <ele>74.814926</ele>
        <time>2021-12-14T10:20:40Z</time>
      </trkpt>
      <trkpt lat="47.26913" lon="-1.54859">
        <ele>74.73183</ele>
        <time>2021-12-14T10:20:44Z</time>
      </trkpt>
      <trkpt lat="47.26915" lon="-1.54866">
        <ele>74.52294</ele>
        <time>2021-12-14T10:20:48Z</time>
      </trkpt>
      <trkpt lat="47.26917" lon="-1.54873">
        <ele>74.307014</ele>
        <time>2021-12-14T10:20:52Z</time>
      </trkpt>
      <trkpt lat="47.26919" lon="-1.54879">
        <ele>74.14922</ele>
        <time>2021-12-14T10:20:56Z</time>
      </trkpt>
      <trkpt lat="47.2692" lon="-1.54887">
        <ele>73.96871</ele>
        <time>2021-12-14T10:21:00Z</time>
      </trkpt>
      <trkpt lat="47.26922" lon="-1.54895">
        <ele>73.762535</ele>
        <time>2021-12-14T10:21:04Z</time>
      </trkpt>
      <trkpt lat="47.26923" lon="-1.54901">
        <ele>73.61849</ele>
        <time>2021-12-14T10:21:07Z</time>
      </trkpt>
      <trkpt lat="47.26925" lon="-1.54907">
        <ele>73.5093</ele>
        <time>2021-12-14T10:21:10Z</time>
      </trkpt>
      <trkpt lat="47.26927" lon="-1.54916">
        <ele>73.401825</ele>
        <time>2021-12-14T10:21:14Z</time>
      </trkpt>
      <trkpt lat="47.26927" lon="-1.54925">
        <ele>73.28809</ele>
        <time>2021-12-14T10:21:18Z</time>
      </trkpt>
      <trkpt lat="47.26927" lon="-1.54933">
        <ele>73.16037</ele>
        <time>2021-12-14T10:21:22Z</time>
      </trkpt>
      <trkpt lat="47.26926" lon="-1.5494">
        <ele>73.019165</ele>
        <time>2021-12-14T10:21:26Z</time>
      </trkpt>
      <trkpt lat="47.26925" lon="-1.54948">
        <ele>72.84835</ele>
        <time>2021-12-14T10:21:30Z</time>
      </trkpt>
      <trkpt lat="47.26923" lon="-1.54955">
        <ele>72.71138</ele>
        <time>2021-12-14T10:21:33Z</time>
      </trkpt>
      <trkpt lat="47.26921" lon="-1.54963">
        <ele>72.49451</ele>
        <time>2021-12-14T10:21:38Z</time>
      </trkpt>
      <trkpt lat="47.26918" lon="-1.5497">
        <ele>72.17232</ele>
        <time>2021-12-14T10:21:43Z</time>
      </trkpt>
      <trkpt lat="47.26918" lon="-1.54978">
        <ele>71.858665</ele>
        <time>2021-12-14T10:21:47Z</time>
      </trkpt>
      <trkpt lat="47.26917" lon="-1.54985">
        <ele>71.649666</ele>
        <time>2021-12-14T10:21:50Z</time>
      </trkpt>
      <trkpt lat="47.26917" lon="-1.54993">
        <ele>71.51082</ele>
        <time>2021-12-14T10:21:53Z</time>
      </trkpt>
      <trkpt lat="47.26917" lon="-1.55">
        <ele>71.39364</ele>
        <time>2021-12-14T10:21:57Z</time>
      </trkpt>
      <trkpt lat="47.2692" lon="-1.55008">
        <ele>71.33419</ele>
        <time>2021-12-14T10:22:02Z</time>
      </trkpt>
      <trkpt lat="47.2692" lon="-1.55017">
        <ele>71.26649</ele>
        <time>2021-12-14T10:22:07Z</time>
      </trkpt>
      <trkpt lat="47.26923" lon="-1.55024">
        <ele>71.20854</ele>
        <time>2021-12-14T10:22:11Z</time>
      </trkpt>
      <trkpt lat="47.26926" lon="-1.55029">
        <ele>71.14071</ele>
        <time>2021-12-14T10:22:15Z</time>
      </trkpt>
      <trkpt lat="47.26928" lon="-1.55035">
        <ele>71.018936</ele>
        <time>2021-12-14T10:22:20Z</time>
      </trkpt>
      <trkpt lat="47.26927" lon="-1.55042">
        <ele>70.96626</ele>
        <time>2021-12-14T10:22:24Z</time>
      </trkpt>
      <trkpt lat="47.26928" lon="-1.55052">
        <ele>70.99523</ele>
        <time>2021-12-14T10:22:27Z</time>
      </trkpt>
      <trkpt lat="47.26929" lon="-1.5506">
        <ele>71.11971</ele>
        <time>2021-12-14T10:22:33Z</time>
      </trkpt>
      <trkpt lat="47.26932" lon="-1.55066">
        <ele>71.196</ele>
        <time>2021-12-14T10:22:37Z</time>
      </trkpt>
      <trkpt lat="47.26933" lon="-1.55073">
        <ele>71.35804</ele>
        <time>2021-12-14T10:22:42Z</time>
      </trkpt>
      <trkpt lat="47.26936" lon="-1.5508">
        <ele>71.49422</ele>
        <time>2021-12-14T10:22:47Z</time>
      </trkpt>
      <trkpt lat="47.26939" lon="-1.55086">
        <ele>71.548615</ele>
        <time>2021-12-14T10:22:51Z</time>
      </trkpt>
      <trkpt lat="47.2694" lon="-1.55093">
        <ele>71.64182</ele>
        <time>2021-12-14T10:22:54Z</time>
      </trkpt>
      <trkpt lat="47.26942" lon="-1.55101">
        <ele>71.78604</ele>
        <time>2021-12-14T10:22:57Z</time>
      </trkpt>
      <trkpt lat="47.26944" lon="-1.55107">
        <ele>71.92937</ele>
        <time>2021-12-14T10:23:00Z</time>
      </trkpt>
      <trkpt lat="47.26945" lon="-1.55114">
        <ele>72.11167</ele>
        <time>2021-12-14T10:23:03Z</time>
      </trkpt>
      <trkpt lat="47.26946" lon="-1.55121">
        <ele>72.39119</ele>
        <time>2021-12-14T10:23:07Z</time>
      </trkpt>
      <trkpt lat="47.26946" lon="-1.55129">
        <ele>72.740746</ele>
        <time>2021-12-14T10:23:11Z</time>
      </trkpt>
      <trkpt lat="47.26949" lon="-1.55135">
        <ele>72.985916</ele>
        <time>2021-12-14T10:23:14Z</time>
      </trkpt>
      <trkpt lat="47.26951" lon="-1.55142">
        <ele>73.362854</ele>
        <time>2021-12-14T10:23:18Z</time>
      </trkpt>
      <trkpt lat="47.26951" lon="-1.55149">
        <ele>73.6294</ele>
        <time>2021-12-14T10:23:22Z</time>
      </trkpt>
      <trkpt lat="47.26952" lon="-1.55156">
        <ele>73.76932</ele>
        <time>2021-12-14T10:23:26Z</time>
      </trkpt>
      <trkpt lat="47.26954" lon="-1.55164">
        <ele>73.783195</ele>
        <time>2021-12-14T10:23:30Z</time>
      </trkpt>
      <trkpt lat="47.26954" lon="-1.5517">
        <ele>73.79262</ele>
        <time>2021-12-14T10:23:34Z</time>
      </trkpt>
      <trkpt lat="47.26956" lon="-1.55178">
        <ele>73.81179</ele>
        <time>2021-12-14T10:23:38Z</time>
      </trkpt>
      <trkpt lat="47.26958" lon="-1.55186">
        <ele>73.94243</ele>
        <time>2021-12-14T10:23:42Z</time>
      </trkpt>
      <trkpt lat="47.26959" lon="-1.55193">
        <ele>74.08649</ele>
        <time>2021-12-14T10:23:45Z</time>
      </trkpt>
      <trkpt lat="47.26961" lon="-1.552">
        <ele>74.30728</ele>
        <time>2021-12-14T10:23:49Z</time>
      </trkpt>
      <trkpt lat="47.26963" lon="-1.55208">
        <ele>74.635666</ele>
        <time>2021-12-14T10:23:54Z</time>
      </trkpt>
      <trkpt lat="47.26967" lon="-1.55212">
        <ele>74.98989</ele>
        <time>2021-12-14T10:23:59Z</time>
      </trkpt>
      <trkpt lat="47.26972" lon="-1.5521">
        <ele>75.252655</ele>
        <time>2021-12-14T10:24:04Z</time>
      </trkpt>
      <trkpt lat="47.26977" lon="-1.55209">
        <ele>75.82421</ele>
        <time>2021-12-14T10:24:10Z</time>
      </trkpt>
      <trkpt lat="47.26981" lon="-1.55207">
        <ele>76.368065</ele>
        <time>2021-12-14T10:24:14Z</time>
      </trkpt>
      <trkpt lat="47.26987" lon="-1.55209">
        <ele>76.67272</ele>
        <time>2021-12-14T10:24:18Z</time>
      </trkpt>
      <trkpt lat="47.26989" lon="-1.55215">
        <ele>76.82904</ele>
        <time>2021-12-14T10:24:21Z</time>
      </trkpt>
      <trkpt lat="47.26991" lon="-1.55219">
        <ele>76.9449</ele>
        <time>2021-12-14T10:24:29Z</time>
      </trkpt>
      <trkpt lat="47.26991" lon="-1.55219">
        <ele>76.9449</ele>
        <time>2021-12-14T10:24:29Z</time>
      </trkpt>
    </trkseg>
  </trk>
</gpx>